[[{"header":{"parameterUnit":"m.s-1","parameterCategory":1,"la1":30.6,"la2":28.766,"lo1":-90.7593,"lo2":-88.6598,"dy":0.0162,"dx":0.0183,"nx":116,"ny":114,"refTime":"2023-04-08T12:00:00:Z","depth":0,"parameterNumber":2,"parameterNumberName":"U-component_of_WINDS"},"data":[0.0,0.0,0.0,0.0,0.0,0.0,0.0,0.0,0.0,0.0,0.0,0.0,0.0,0.0,0.0,0.0,0.0,0.0,0.0,0.0,0.0,0.0,0.0,0.0,0.0,0.0,0.0,0.0,0.0,0.0,0.0,0.0,0.0,0.0,0.0,0.0,0.0,0.0,0.0,0.0,0.0,0.0,0.0,0.0,0.0,0.0,0.0,0.0,0.0,0.0,0.0,0.0,0.0,0.0,0.0,0.0,0.0,0.0,0.0,0.0,0.0,0.0,0.0,0.0,0.0,0.0,0.0,0.0,0.0,0.0,0.0,0.0,0.0,0.0,0.0,0.0,0.0,0.0,0.0,0.0,0.0,0.0,0.0,0.0,0.0,0.0,0.0,0.0,0.0,0.0,0.0,0.0,0.0,0.0,0.0,0.0,0.0,0.0,0.0,0.0,0.0,0.0,0.0,0.0,0.0,0.0,0.0,0.0,0.0,0.0,0.0,0.0,0.0,0.0,0.0,0.0,0.0,0.0,0.0,0.0,0.0,0.0,0.0,0.0,0.0,0.0,0.0,0.0,0.0,0.0,0.0,0.0,0.0,0.0,0.0,0.0,0.0,0.0,0.0,0.0,0.0,0.0,0.0,0.0,0.0,0.0,0.0,0.0,0.0,0.0,0.0,0.0,0.0,0.0,0.0,0.0,0.0,0.0,0.0,0.0,0.0,0.0,0.0,0.0,0.0,0.0,0.0,0.0,0.0,0.0,0.0,0.0,0.0,0.0,0.0,0.0,0.0,0.0,0.0,0.0,0.0,0.0,0.0,0.0,0.0,0.0,0.0,0.0,0.0,0.0,0.0,0.0,0.0,0.0,0.0,0.0,0.0,0.0,0.0,0.0,0.0,0.0,0.0,0.0,0.0,0.0,0.0,0.0,0.0,0.0,0.0,0.0,0.0,0.0,0.0,0.0,0.0,0.0,0.0,0.0,0.0,0.0,0.0,0.0,0.0,0.0,0.0,0.0,0.0,0.0,0.0,0.0,0.0,0.0,0.0,0.0,0.0,0.0,0.0,0.0,0.0,0.0,0.0,0.0,0.0,0.0,0.0,0.0,0.0,0.0,0.0,0.0,0.0,0.0,0.0,0.0,0.0,0.0,0.0,0.0,0.0,0.0,0.0,0.0,0.0,0.0,0.0,0.0,0.0,0.0,0.0,0.0,0.0,0.0,0.0,0.0,0.0,0.0,0.0,0.0,0.0,0.0,0.0,0.0,0.0,0.0,0.0,0.0,0.0,0.0,0.0,0.0,0.0,0.0,0.0,0.0,0.0,0.0,0.0,0.0,0.0,0.0,0.0,0.0,0.0,0.0,0.0,0.0,0.0,0.0,0.0,0.0,0.0,0.0,0.0,0.0,0.0,0.0,0.0,0.0,0.0,0.0,0.0,0.0,0.0,0.0,0.0,0.0,0.0,0.0,0.0,0.0,0.0,0.0,0.0,0.0,0.0,0.0,0.0,0.0,0.0,0.0,0.0,0.0,0.0,0.0,0.0,0.0,0.0,0.0,0.0,0.0,0.0,0.0,0.0,0.0,0.0,0.0,0.0,0.0,0.0,0.0,0.0,0.0,0.0,0.0,0.0,0.0,0.0,0.0,0.0,0.0,0.0,0.0,0.0,0.0,0.0,0.0,0.0,0.0,0.0,0.0,0.0,0.0,0.0,0.0,0.0,0.0,0.0,0.0,0.0,0.0,0.0,0.0,0.0,0.0,0.0,0.0,0.0,0.0,0.0,0.0,0.0,0.0,0.0,0.0,0.0,0.0,0.0,0.0,0.0,0.0,0.0,0.0,0.0,0.0,0.0,0.0,0.0,0.0,0.0,0.0,0.0,0.0,0.0,0.0,0.0,0.0,0.0,0.0,0.0,0.0,0.0,0.0,0.0,0.0,0.0,0.0,0.0,0.0,0.0,0.0,0.0,0.0,0.0,0.0,0.0,0.0,0.0,0.0,0.0,0.0,0.0,0.0,0.0,0.0,0.0,0.0,0.0,0.0,0.0,0.0,0.0,0.0,0.0,0.0,0.0,0.0,0.0,0.0,0.0,0.0,0.0,0.0,0.0,0.0,0.0,0.0,0.0,0.0,0.0,0.0,0.0,0.0,0.0,0.0,0.0,0.0,0.0,0.0,0.0,0.0,0.0,0.0,0.0,0.0,0.0,0.0,0.0,0.0,0.0,0.0,0.0,0.0,0.0,0.0,0.0,0.0,0.0,0.0,0.0,0.0,0.0,0.0,0.0,0.0,0.0,0.0,0.0,0.0,0.0,0.0,0.0,0.0,0.0,0.0,0.0,0.0,0.0,0.0,0.0,0.0,0.0,0.0,0.0,0.0,0.0,0.0,0.0,0.0,0.0,0.0,0.0,0.0,0.0,0.0,0.0,0.0,0.0,0.0,0.0,0.0,0.0,0.0,0.0,0.0,0.0,0.0,0.0,0.0,0.0,0.0,0.0,0.0,0.0,0.0,0.0,0.0,0.0,0.0,0.0,0.0,0.0,0.0,0.0,0.0,0.0,0.0,0.0,0.0,0.0,0.0,0.0,0.0,0.0,0.0,0.0,0.0,0.0,0.0,0.0,0.0,0.0,0.0,0.0,0.0,0.0,0.0,0.0,0.0,0.0,0.0,0.0,0.0,0.0,0.0,0.0,0.0,0.0,0.0,0.0,0.0,0.0,0.0,0.0,0.0,0.0,0.0,0.0,0.0,0.0,0.0,0.0,0.0,0.0,0.0,0.0,0.0,0.0,0.0,0.0,0.0,0.0,0.0,0.0,0.0,0.0,0.0,0.0,0.0,0.0,0.0,0.0,0.0,0.0,0.0,0.0,0.0,0.0,0.0,0.0,0.0,0.0,0.0,0.0,0.0,0.0,0.0,0.0,0.0,0.0,0.0,0.0,0.0,0.0,0.0,0.0,0.0,0.0,0.0,0.0,0.0,0.0,0.0,0.0,0.0,0.0,0.0,0.0,0.0,0.0,0.0,0.0,0.0,0.0,0.0,0.0,0.0,0.0,0.0,0.0,0.0,0.0,0.0,0.0,0.0,0.0,0.0,0.0,0.0,0.0,0.0,0.0,0.0,0.0,0.0,0.0,0.0,0.0,0.0,0.0,0.0,0.0,0.0,0.0,0.0,0.0,0.0,0.0,0.0,0.0,0.0,0.0,0.0,0.0,0.0,0.0,0.0,0.0,0.0,0.0,0.0,0.0,0.0,0.0,0.0,0.0,0.0,0.0,0.0,0.0,0.0,0.0,0.0,0.0,0.0,0.0,0.0,0.0,0.0,0.0,0.0,0.0,0.0,0.0,0.0,0.0,0.0,0.0,0.0,0.0,0.0,0.0,0.0,0.0,0.0,0.0,0.0,0.0,0.0,0.0,0.0,0.0,0.0,0.0,0.0,0.0,0.0,0.0,0.0,0.0,0.0,0.0,0.0,0.0,0.0,0.0,0.0,0.0,0.0,0.0,0.0,0.0,0.0,0.0,0.0,0.0,0.0,0.0,0.0,0.0,0.0,0.0,0.0,0.0,0.0,0.0,0.0,0.0,0.0,0.0,0.0,0.0,0.0,0.0,0.0,0.0,0.0,0.0,0.0,0.0,0.0,0.0,0.0,0.0,0.0,0.0,0.0,0.0,0.0,0.0,0.0,0.0,0.0,0.0,0.0,0.0,0.0,0.0,0.0,0.0,0.0,0.0,0.0,0.0,0.0,0.0,0.0,0.0,0.0,0.0,0.0,0.0,0.0,0.0,0.0,0.0,0.0,0.0,0.0,0.0,0.0,0.0,0.0,0.0,0.0,0.0,0.0,0.0,0.0,0.0,0.0,0.0,0.0,0.0,0.0,0.0,0.0,0.0,0.0,0.0,0.0,0.0,0.0,0.0,0.0,0.0,0.0,0.0,0.0,0.0,0.0,0.0,0.0,0.0,0.0,0.0,0.0,0.0,0.0,0.0,0.0,0.0,0.0,0.0,0.0,0.0,0.0,0.0,0.0,0.0,0.0,0.0,0.0,0.0,0.0,0.0,0.0,0.0,0.0,0.0,0.0,0.0,0.0,0.0,0.0,0.0,0.0,0.0,0.0,0.0,0.0,0.0,0.0,0.0,0.0,0.0,0.0,0.0,0.0,0.0,0.0,0.0,0.0,0.0,0.0,0.0,0.0,0.0,0.0,0.0,0.0,0.0,0.0,0.0,0.0,0.0,0.0,0.0,0.0,0.0,0.0,0.0,0.0,0.0,0.0,0.0,0.0,0.0,0.0,0.0,0.0,0.0,0.0,0.0,0.0,0.0,0.0,0.0,0.0,0.0,0.0,0.0,0.0,0.0,0.0,0.0,0.0,0.0,0.0,0.0,0.0,0.0,0.0,0.0,0.0,0.0,0.0,0.0,0.0,0.0,0.0,0.0,0.0,0.0,0.0,0.0,0.0,0.0,0.0,0.0,0.0,0.0,0.0,0.0,0.0,0.0,0.0,0.0,0.0,0.0,0.0,0.0,0.0,0.0,0.0,0.0,0.0,0.0,0.0,0.0,0.0,0.0,0.0,0.0,0.0,0.0,0.0,0.0,0.0,0.0,0.0,0.0,0.0,0.0,0.0,0.0,0.0,0.0,0.0,0.0,0.0,0.0,0.0,0.0,0.0,0.0,0.0,0.0,0.0,0.0,0.0,0.0,0.0,0.0,0.0,0.0,0.0,0.0,0.0,0.0,0.0,0.0,0.0,0.0,0.0,0.0,0.0,0.0,0.0,0.0,0.0,0.0,0.0,0.0,0.0,0.0,0.0,0.0,0.0,0.0,0.0,0.0,0.0,0.0,0.0,0.0,0.0,0.0,0.0,0.0,0.0,0.0,0.0,0.0,0.0,0.0,0.0,0.0,0.0,0.0,0.0,0.0,0.0,0.0,0.0,0.0,0.0,0.0,0.0,0.0,0.0,0.0,0.0,0.0,0.0,0.0,0.0,0.0,0.0,0.0,0.0,0.0,0.0,0.0,0.0,0.0,0.0,0.0,0.0,0.0,0.0,0.0,0.0,0.0,0.0,0.0,0.0,0.0,0.0,0.0,0.0,0.0,0.0,0.0,0.0,0.0,0.0,0.0,0.0,0.0,0.0,0.0,0.0,0.0,0.0,0.0,0.0,0.0,0.0,0.0,0.0,0.0,0.0,0.0,0.0,0.0,0.0,0.0,0.0,0.0,0.0,0.0,0.0,0.0,0.0,0.0,0.0,0.0,0.0,0.0,0.0,0.0,0.0,0.0,0.0,0.0,0.0,0.0,0.0,0.0,0.0,0.0,0.0,0.0,0.0,0.0,0.0,0.0,0.0,0.0,0.0,0.0,0.0,0.0,0.0,0.0,0.0,0.0,0.0,0.0,0.0,0.0,0.0,0.0,0.0,0.0,0.0,0.0,0.0,0.0,0.0,0.0,0.0,0.0,0.0,0.0,0.0,0.0,0.0,0.0,0.0,0.0,0.0,0.0,0.0,0.0,0.0,0.0,0.0,0.0,0.0,0.0,0.0,0.0,0.0,0.0,0.0,0.0,0.0,0.0,0.0,0.0,0.0,0.0,0.0,0.0,0.0,0.0,0.0,0.0,0.0,0.0,0.0,0.0,0.0,0.0,0.0,0.0,0.0,0.0,0.0,0.0,0.0,0.0,0.0,0.0,0.0,0.0,0.0,0.0,0.0,0.0,0.0,0.0,0.0,0.0,0.0,0.0,0.0,0.0,0.0,0.0,0.0,0.0,0.0,0.0,0.0,0.0,0.0,0.0,0.0,0.0,0.0,0.0,0.0,0.0,0.0,0.0,0.0,0.0,0.0,0.0,0.0,0.0,0.0,0.0,0.0,0.0,0.0,0.0,0.0,0.0,0.0,0.0,0.0,0.0,0.0,0.0,0.0,0.0,0.0,0.0,0.0,0.0,0.0,0.0,0.0,0.0,0.0,0.0,0.0,0.0,0.0,0.0,0.0,0.0,0.0,0.0,0.0,0.0,0.0,0.0,0.0,0.0,0.0,0.0,0.0,0.0,0.0,0.0,0.0,0.0,0.0,0.0,0.0,0.0,0.0,0.0,0.0,1.8374,1.7764,0.0,0.0,0.0,0.0,0.0,0.0,0.0,0.0,0.0,0.0,0.0,0.0,0.0,0.0,0.0,0.0,0.0,0.0,0.0,0.0,0.0,0.0,0.0,0.0,0.0,0.0,0.0,0.0,0.0,0.0,0.0,0.0,0.0,0.0,0.0,0.0,0.0,0.0,0.0,0.0,0.0,0.0,0.0,0.0,0.0,0.0,0.0,0.0,0.0,0.0,0.0,0.0,0.0,0.0,0.0,0.0,0.0,0.0,0.0,0.0,0.0,0.0,0.0,0.0,0.0,0.0,0.0,0.0,0.0,0.0,0.0,0.0,0.0,0.0,0.0,0.0,0.0,0.0,0.0,0.0,0.0,0.0,0.0,0.0,0.0,0.0,0.0,0.0,0.0,0.0,0.0,0.0,0.0,0.0,0.0,0.0,0.0,0.0,0.0,0.0,0.0,0.0,0.0,0.0,0.0,0.0,0.0,0.0,0.0,0.0,0.0,0.0,0.0,0.0,1.9027,1.8496,0.0,0.0,0.0,0.0,0.0,0.0,0.0,0.0,0.0,0.0,0.0,0.0,0.0,0.0,0.0,0.0,0.0,0.0,0.0,0.0,0.0,0.0,0.0,0.0,2.2651,2.4168,2.5254,0.0,0.0,0.0,0.0,0.0,0.0,0.0,0.0,0.0,0.0,0.0,0.0,0.0,0.0,0.0,0.0,0.0,0.0,0.0,0.0,0.0,0.0,0.0,0.0,0.0,0.0,0.0,0.0,0.0,0.0,0.0,0.0,0.0,0.0,0.0,0.0,0.0,0.0,0.0,0.0,0.0,0.0,0.0,0.0,0.0,0.0,0.0,0.0,0.0,0.0,0.0,0.0,0.0,0.0,0.0,0.0,0.0,0.0,0.0,0.0,0.0,0.0,0.0,0.0,0.0,0.0,0.0,0.0,0.0,0.0,0.0,0.0,0.0,0.0,0.0,0.0,0.0,0.0,0.0,0.0,0.0,1.8118,1.7982,1.8884,1.8873,1.9211,1.9762,1.9619,1.9251,1.8681,1.7827,0.0,0.0,0.0,0.0,0.0,0.0,0.0,0.0,0.0,0.0,0.0,0.0,0.0,0.0,0.0,0.0,0.0,0.0,0.0,0.0,0.0,2.2894,2.4135,2.5053,2.6679,2.8036,0.0,0.0,0.0,0.0,0.0,0.0,0.0,0.0,0.0,0.0,0.0,3.728,3.6762,3.7453,3.6793,3.4894,3.1805,0.0,0.0,0.0,0.0,0.0,0.0,0.0,0.0,0.0,0.0,0.0,0.0,0.0,0.0,0.0,0.0,0.0,0.0,0.0,0.0,0.0,0.0,0.0,0.0,0.0,0.0,0.0,0.0,0.0,0.0,0.0,0.0,0.0,0.0,0.0,0.0,0.0,0.0,0.0,0.0,0.0,0.0,0.0,2.0993,2.3645,0.0,0.0,0.0,0.0,0.0,0.0,0.0,0.0,0.0,0.0,0.0,0.0,0.0,2.3444,2.4027,2.3707,2.2691,2.1024,2.1528,2.1048,1.9671,2.0405,2.0371,1.9694,1.9444,0.0,1.8457,1.7348,0.0,0.0,0.0,0.0,0.0,0.0,0.0,0.0,0.0,0.0,0.0,0.0,0.0,0.0,0.0,0.0,0.0,0.0,0.0,0.0,0.0,2.4551,2.6273,2.8068,2.9835,3.1051,3.1471,0.0,0.0,0.0,0.0,0.0,0.0,0.0,0.0,0.0,4.005,4.1071,4.0684,4.0014,3.9324,3.8471,3.5044,3.1996,2.9278,2.7326,0.0,0.0,0.0,0.0,0.0,0.0,0.0,0.0,0.0,0.0,0.0,0.0,0.0,0.0,0.0,0.0,0.0,0.0,0.0,0.0,0.0,0.0,0.0,0.0,0.0,0.0,0.0,0.0,0.0,0.0,0.0,0.0,0.0,0.0,0.0,0.0,0.0,0.0,0.0,1.9575,2.2499,2.4102,2.39,2.3604,0.0,0.0,0.0,0.0,0.0,0.0,0.0,0.0,0.0,2.0381,2.1713,2.2778,2.3535,2.35,2.3012,2.2098,2.2054,2.1544,2.0653,2.0615,2.0233,1.957,1.9095,1.851,1.7745,1.6853,1.587,1.4772,0.0,0.0,0.0,0.0,0.9382,0.9274,0.0,0.0,0.0,0.0,0.0,0.0,0.0,0.0,0.0,0.0,0.0,0.0,2.4353,2.6033,2.8066,3.0598,3.2435,3.3674,3.4182,3.486,0.0,0.0,0.0,0.0,0.0,0.0,0.0,4.0772,4.3284,4.4392,4.4141,4.2792,4.184,4.1129,3.8128,3.4542,3.0607,2.8705,2.5658,0.0,0.0,0.0,0.0,0.0,0.0,0.0,0.0,0.0,0.0,0.0,0.0,0.0,0.0,0.0,0.0,0.0,0.0,0.0,0.0,0.0,0.0,0.0,0.0,0.0,0.0,0.0,0.0,0.0,0.0,0.0,0.0,0.0,0.0,0.0,0.0,0.0,0.0,2.1531,2.3394,2.4491,2.4515,2.4322,0.0,0.0,0.0,0.0,0.0,0.0,1.698,1.77,1.861,1.9672,2.104,2.221,2.313,2.3051,2.2789,2.2391,2.2026,2.1496,2.0854,2.0462,1.9879,1.9154,1.8484,1.7746,1.6943,1.653,1.5609,1.4318,1.2526,1.1299,1.0447,0.9574,0.9294,0.9297,0.0,0.0,0.0,0.0,0.0,0.0,0.0,0.0,0.0,0.0,0.0,2.3579,2.5248,2.692,2.896,3.1506,3.3383,3.5126,3.68,3.7007,3.7414,3.8206,0.0,0.0,0.0,0.0,0.0,4.3416,4.6021,4.6833,4.5979,4.5874,4.453,4.2155,4.0312,3.7592,3.401,2.9125,2.5503,2.2732,0.0,0.0,0.0,0.0,0.0,0.0,0.0,0.0,0.0,0.0,0.0,0.0,0.0,0.0,0.0,0.0,0.0,0.0,0.0,0.0,0.0,0.0,0.0,0.0,0.0,0.0,0.0,0.0,0.0,0.0,0.0,0.0,0.0,0.0,0.0,0.0,0.0,0.0,0.0,2.5253,2.5271,0.0,0.0,0.0,0.0,1.9521,1.9066,1.8218,1.6628,1.7232,1.827,1.9668,2.0459,2.1554,2.2999,2.2828,2.233,2.1569,2.2227,2.1537,1.9697,2.0237,1.97,1.8314,1.7441,1.6723,1.6184,1.6618,1.5638,1.3868,1.3188,1.1547,0.9591,0.9858,0.9519,0.8874,0.0,0.0,0.0,0.0,0.0,0.0,0.0,0.0,0.0,2.0915,2.2644,2.4484,2.621,2.9358,3.2161,3.4205,3.6968,3.8908,3.9574,3.9634,4.0052,4.0974,0.0,0.0,0.0,0.0,4.6377,4.7786,4.8717,4.9283,4.9451,4.721,4.5676,4.4675,4.1823,3.9264,3.6774,3.1637,2.6952,2.2885,2.1147,1.8694,0.0,0.0,0.0,0.0,0.0,0.0,0.0,0.0,0.0,0.0,0.0,0.0,0.0,0.0,0.0,0.0,0.0,0.0,0.0,0.0,0.0,0.0,0.0,0.0,0.0,0.0,0.0,0.0,0.0,0.0,0.0,0.0,0.0,0.0,0.0,0.0,0.0,2.5056,2.5109,0.0,2.422,2.3351,2.2359,2.1126,2.0245,1.944,1.8664,1.8683,1.8851,1.9154,1.9772,2.0304,2.0732,2.1493,2.1673,2.1309,2.163,2.1199,2.0156,1.9309,1.8477,1.7511,1.6489,1.5732,1.5231,1.5051,1.4147,1.2758,1.1715,1.0516,0.9308,0.8649,0.8275,0.8011,0.0,0.0,0.0,0.0,0.0,0.0,0.0,0.0,2.0701,2.1296,2.333,2.5505,2.7511,3.1263,3.4456,3.65,3.9277,4.1296,4.2224,4.147,4.1662,4.3175,4.2168,0.0,0.0,4.721,4.922,5.0984,5.1274,5.1562,5.1791,4.9162,4.7494,4.6527,4.3318,4.0601,3.8179,3.3861,2.9068,2.4187,2.2781,2.0309,1.7439,0.0,0.0,0.0,0.0,0.0,0.0,0.0,0.0,0.0,0.0,0.0,0.0,0.0,0.0,0.0,0.0,0.0,0.0,0.0,0.0,0.0,0.0,0.0,0.0,0.0,0.0,0.0,0.0,0.0,0.0,0.0,0.0,0.0,0.0,2.1613,2.3202,2.4722,2.474,2.4492,2.4132,2.3249,2.241,2.1753,2.0754,1.9969,1.9452,1.9039,1.8732,1.8639,1.9048,1.9341,1.9516,2.0403,2.0888,2.0888,2.0828,2.0413,1.9701,1.8616,1.7652,1.6773,1.5857,1.517,1.4612,1.3812,1.2893,1.1854,1.0941,0.9985,0.9015,0.7939,0.7379,0.6967,0.0,0.0,0.0,0.0,0.0,0.0,0.0,2.0531,2.113,2.2867,2.4584,2.6624,2.9206,3.2524,3.5627,3.8244,4.0032,4.2071,4.4634,4.2478,4.2227,4.48,0.0,0.0,4.7689,4.9368,5.1054,5.2787,5.3626,5.3581,5.2726,5.1789,5.0022,4.7517,4.4841,4.1737,3.835,3.5725,3.172,2.6857,2.4183,2.1599,1.9221,0.0,0.0,0.0,0.0,0.0,0.0,0.0,0.0,0.0,0.0,0.0,0.0,0.0,0.0,0.0,0.0,0.0,0.0,0.0,0.0,0.0,0.0,0.0,0.0,0.0,0.0,0.0,0.0,0.0,0.0,0.0,0.0,0.0,1.9624,2.1264,2.2811,2.4247,2.4208,2.3916,2.3487,2.3094,2.2369,2.1171,2.0533,1.9755,1.8768,1.815,1.789,1.8098,1.8341,1.8775,1.9466,1.9669,1.9917,2.0274,1.9917,1.9241,1.8262,1.8106,1.7327,1.6031,1.5541,1.4961,1.4278,1.2974,1.1968,1.1219,1.095,1.0002,0.8667,0.7823,0.6866,0.564,0.0,0.0,0.0,0.0,0.0,0.0,0.0,2.0138,2.1133,2.2861,2.5114,2.775,3.0938,3.4333,3.7444,4.0054,4.186,4.3432,4.4779,4.3637,4.352,0.0,0.0,0.0,5.0321,5.2042,5.3471,5.4587,5.4839,5.4492,5.3593,5.1464,4.9746,4.8354,4.5721,4.3319,4.1042,3.8325,3.4971,3.1127,2.7302,2.4272,2.1876,0.0,0.0,0.0,0.0,0.0,0.0,0.0,0.0,0.0,0.0,0.0,0.0,0.0,0.0,0.0,0.0,0.0,0.0,0.0,0.0,0.0,0.0,0.0,0.0,0.0,0.0,0.0,0.0,0.0,0.0,0.0,1.4465,1.6848,1.8575,2.0619,2.2159,2.2756,2.3252,2.3262,2.2557,2.2255,2.1764,2.1013,2.0479,1.9854,1.903,1.8492,1.8168,1.8051,1.7945,1.8126,1.8565,1.8952,1.9175,1.921,1.8836,1.8203,1.7319,1.6627,1.5903,1.517,1.4506,1.3969,1.3514,1.2294,1.1234,1.0294,0.9679,0.8851,0.7739,0.6222,0.4312,0.2373,0.0,0.0,0.0,0.0,0.0,0.0,0.0,2.0224,2.1263,2.3371,2.5863,2.874,3.218,3.5593,3.8707,4.1356,4.2494,4.3434,4.4334,4.4256,4.4592,0.0,0.0,5.0566,5.1923,5.365,5.4978,5.5848,5.5488,5.4858,5.3949,5.1701,4.998,4.8704,4.646,4.4273,4.2167,4.0189,3.7384,3.4004,3.0778,2.7343,2.3995,2.2693,2.0874,1.8926,1.8065,1.7483,1.7229,1.771,0.0,0.0,0.0,0.0,0.0,0.0,0.0,0.0,0.0,0.0,0.0,0.0,0.0,0.0,0.0,0.0,0.0,0.0,0.0,0.0,0.0,0.0,0.0,0.0,1.3649,1.5527,1.712,1.9102,2.0723,2.1706,2.2046,2.2016,2.1616,2.1345,2.0952,2.0354,1.9766,1.912,1.8455,1.8008,1.747,1.6855,1.7296,1.7543,1.7509,1.8222,1.8545,1.8482,1.8201,1.7537,1.6645,1.6089,1.5417,1.4656,1.3972,1.3341,1.2728,1.1604,1.0447,0.9256,0.0,0.0,0.0,0.0,0.174,-0.0303,0.0,0.0,0.0,0.0,0.0,0.0,0.0,2.0566,2.1586,2.4206,2.6763,2.9652,3.3067,3.632,3.9384,4.2156,4.2251,4.2607,4.3618,4.4513,0.0,4.6396,4.9614,5.1814,5.2676,5.4303,5.5531,5.6308,5.5524,5.4652,5.3674,5.2025,5.0303,4.8577,4.6921,4.4806,4.2388,4.1457,3.9088,3.5811,3.4032,3.0447,2.6028,2.4923,2.3015,2.0767,1.9807,1.8955,1.8266,1.8091,0.0,0.0,0.0,0.0,0.0,0.0,0.0,0.0,0.0,0.0,0.0,0.0,0.0,0.0,0.0,0.0,0.0,0.0,0.0,0.0,0.0,0.0,0.0,0.0,1.2818,1.4078,1.5465,1.6957,1.8698,2.0773,2.0712,2.0542,2.0718,2.0358,1.9919,1.9353,1.862,1.7909,1.726,1.69,0.0,0.0,0.0,1.7123,1.674,1.7619,1.8043,1.8045,1.7813,1.7084,1.6052,1.6038,1.5384,1.4247,1.3715,1.2902,1.1834,1.0849,0.9405,0.776,0.7653,0.6712,0.506,0.1576,-0.0832,-0.256,0.0,0.0,0.0,0.0,0.0,0.0,0.0,2.069,2.2486,2.5106,2.7678,3.0559,3.3974,3.6195,3.8764,4.2105,4.1758,4.1987,4.351,4.4496,4.5672,4.7196,4.9911,5.1806,5.2676,5.3726,5.432,5.4506,5.4333,5.3455,5.1882,5.0774,4.9336,4.763,4.6578,4.5095,4.3303,4.2408,4.0054,3.6759,3.4902,3.231,2.9227,2.6313,2.4424,2.3125,2.1532,2.0881,2.061,1.9818,2.012,2.0687,2.0088,1.9468,0.0,0.0,0.0,0.0,0.0,0.0,0.0,0.0,0.0,0.0,0.0,0.0,0.0,0.0,0.0,0.0,0.0,0.0,0.0,1.091,1.1809,1.2837,1.404,1.4611,1.603,1.9008,1.9611,1.9721,1.9613,1.9275,1.8831,1.8252,1.7455,1.6754,1.6049,1.5858,1.5665,1.5358,1.6142,1.6874,1.7473,1.7669,1.7776,1.7672,1.7124,0.0,1.5242,1.4872,1.4203,1.3408,1.2662,1.1716,1.0602,0.9333,0.7216,0.4688,0.4361,0.3013,0.1048,-0.1049,-0.2911,-0.4549,0.0,0.0,0.0,0.0,0.0,0.0,0.0,2.0992,2.2732,2.5363,2.7546,3.0331,3.4222,3.5814,3.7819,4.0843,4.0703,4.1185,4.2888,4.3847,4.5307,4.7461,5.0012,5.1606,5.2031,5.3337,5.3796,5.3346,5.291,5.2016,5.0675,4.9284,4.8185,4.731,4.6472,4.5168,4.3564,4.315,4.0978,3.7674,3.5771,3.3683,3.1379,2.8386,2.637,2.4992,2.3659,2.2944,2.2462,2.1551,2.1179,2.1043,2.0785,1.9837,1.8832,0.0,0.0,0.0,0.0,0.0,0.0,0.0,0.0,0.0,0.0,0.0,0.0,0.0,0.0,0.8786,0.8879,0.0,0.9351,1.0428,1.0747,1.1561,1.3611,1.3725,1.4542,1.7061,1.7762,1.8101,1.8208,1.7972,1.7558,1.6944,1.6414,1.5753,1.4927,1.5049,1.4977,1.4609,1.5509,1.6187,1.6499,1.6842,1.6931,1.6689,1.6307,1.5617,1.4723,1.4274,1.3656,1.2806,1.1708,1.0605,0.9433,0.719,0.4921,0.2657,0.1429,0.0195,-0.1215,-0.3226,-0.5095,-0.6754,0.0,0.0,0.0,0.0,0.0,0.0,0.0,0.0,2.286,2.5144,2.7199,2.985,3.3535,3.4861,3.6441,3.8827,3.9481,4.0511,0.0,4.3186,4.4859,4.7479,4.9556,5.075,5.0918,5.2283,5.2644,5.196,5.1211,5.0386,4.9438,4.7958,4.7082,4.6736,4.6113,4.4899,4.3347,4.3178,4.1339,3.8319,3.6223,3.44,3.2641,3.0232,2.8248,2.6619,2.5577,2.4809,2.4119,2.3057,2.2067,2.1267,2.1255,2.0079,1.875,1.8941,1.8428,0.0,0.0,0.0,0.0,0.0,0.0,0.0,0.0,1.1229,1.0528,0.968,0.8955,0.856,0.8865,0.8379,0.8454,1.0089,0.9896,1.0416,1.2948,1.3068,1.3386,1.4705,1.5708,1.638,1.6652,1.6517,1.6164,1.5552,1.5218,1.4676,1.3912,1.4312,1.4267,1.3725,1.482,1.5371,1.5252,1.5897,1.6004,1.5651,1.5507,1.5009,1.4204,1.3705,1.3032,1.2131,1.0617,0.9176,0.7779,0.5045,0.2868,0.1022,-0.0921,-0.214,-0.3033,-0.5119,-0.6995,-0.8646,0.0,0.0,0.0,0.0,0.0,0.0,0.0,0.0,0.0,2.4401,2.7351,2.9831,3.1109,3.2706,3.4414,3.6181,3.8405,4.0421,4.211,4.309,4.4784,4.7397,4.7831,4.8393,4.9156,4.9314,4.9358,4.9325,4.904,4.8469,4.7602,4.7275,4.6306,4.4808,4.4831,4.3948,4.2393,4.1679,4.0262,3.8277,3.5667,3.3935,3.269,3.0797,2.9355,2.813,2.6544,2.601,2.576,2.3978,2.2871,2.2098,2.128,1.996,1.8748,1.8943,1.8432,1.7771,1.7657,1.7367,1.7224,1.7787,1.6546,1.5078,0.0,1.3097,1.1248,0.9512,0.8942,0.874,0.8666,0.8103,0.8183,0.9865,0.9691,0.9681,1.0662,1.1543,1.1979,1.1588,1.3917,1.5441,1.5254,1.5112,1.4778,1.4168,1.3629,1.3285,1.3029,1.3369,1.3513,1.345,1.4231,1.4823,1.5195,1.5323,1.5391,1.5247,1.4862,1.426,1.3331,1.2718,1.1929,1.0858,0.8697,0.6738,0.4997,0.3307,0.1523,-0.0287,-0.2253,-0.4025,-0.5681,-0.6637,-0.8054,-0.9573,0.0,0.0,0.0,0.0,0.0,0.0,0.0,0.0,0.0,0.0,2.6529,2.8577,2.9955,3.162,3.3326,3.4993,3.7001,0.0,4.0582,4.1992,4.3493,4.5098,4.5729,4.6434,4.7299,4.7793,4.7764,4.7207,4.7087,4.6283,4.4853,4.48,4.4394,4.3752,4.3847,4.3261,4.218,4.1331,3.9735,3.755,3.5327,3.3574,3.2111,3.0733,2.9912,2.9294,2.7533,2.6949,0.0,2.5004,2.384,2.2981,2.2223,2.1176,2.0164,1.9883,1.9544,1.9182,1.8897,1.8621,1.8241,1.7472,1.6396,1.5048,1.3208,1.181,1.0542,0.9257,0.8447,0.8136,0.8581,0.8136,0.8136,0.9421,0.9319,0.94,1.0383,1.0804,1.099,1.0943,1.2207,1.3197,1.3557,1.3895,1.3834,1.3363,1.3187,1.2966,1.2624,1.2881,1.3058,1.305,1.3639,1.4079,1.4393,1.4637,1.4662,1.4536,1.4053,1.3397,1.2659,1.1929,1.0716,0.9042,0.7427,0.5691,0.388,0.2408,0.0689,-0.1042,-0.2903,-0.4792,-0.6571,-0.7893,-0.9408,-1.1024,0.0,0.0,0.0,0.0,0.0,0.0,0.0,0.0,0.0,0.0,2.5765,2.7657,2.941,3.0675,3.2054,3.3737,3.5201,0.0,0.0,4.0034,4.1457,4.3045,4.3551,4.4312,4.5422,4.6078,4.5922,4.4913,4.5094,4.4346,4.2744,4.2983,4.3011,4.2815,4.2897,4.2499,4.1718,4.0641,3.9026,3.6961,3.467,3.2834,3.1362,3.0332,2.9948,2.9747,2.8396,2.7943,2.7746,2.6305,2.505,2.4025,2.3561,2.2654,2.1698,2.1274,2.0919,2.0542,1.9931,1.9382,1.8587,1.7142,1.5941,1.4559,1.2389,1.1111,1.0144,0.9354,0.8337,0.7861,0.8693,0.818,0.7983,0.9017,0.8943,0.9024,0.9752,0.9934,1.0029,1.0168,1.0604,1.115,1.1694,1.2347,1.2682,1.24,1.2415,1.2373,1.2062,1.2292,1.2367,1.2367,1.2814,1.3059,1.3095,1.3559,1.37,1.3427,1.3034,1.2452,1.1855,1.0881,0.9422,0.7646,0.6508,0.4993,0.3222,0.1574,0.0,-0.1701,-0.3606,-0.5304,-0.6992,-0.8746,-1.0347,-1.1862,0.0,0.0,0.0,0.0,0.0,0.0,0.0,0.0,0.0,0.0,0.0,0.0,0.0,0.0,3.0244,3.1923,0.0,0.0,0.0,3.7035,3.8577,4.2003,4.1412,4.1835,4.3527,4.3672,4.3226,4.2226,4.2994,4.2844,4.1867,4.2688,4.2643,4.1854,4.1977,4.1558,4.0629,3.9054,3.7886,3.6802,3.3433,3.1501,3.0537,2.9656,2.9287,2.9216,2.9019,2.9038,2.8984,2.7972,2.6599,2.534,2.5253,2.4185,2.2951,2.2998,2.2328,2.1331,2.0278,1.9031,1.8001,1.7806,1.5854,1.3897,1.3658,1.2139,1.0639,1.0082,0.8948,0.8305,0.9054,0.8105,0.7578,0.8733,0.8646,0.831,0.8028,0.8716,0.9031,0.8432,0.9124,0.964,0.9595,1.0441,1.1028,1.1137,1.0971,1.0965,1.1212,1.1308,1.1365,1.1365,1.1803,1.1825,1.1401,1.2248,1.2354,1.1737,1.1735,1.1409,1.0812,0.9382,0.8249,0.7229,0.6008,0.4499,0.2746,0.0804,-0.0818,-0.2304,-0.4258,-0.5913,-0.7333,-0.9092,-1.0554,-1.1819,0.0,0.0,0.0,0.0,0.0,0.0,0.0,0.0,0.0,0.0,0.0,0.0,0.0,0.0,0.0,0.0,0.0,0.0,0.0,3.6199,3.732,3.8535,3.9402,4.0122,4.0757,4.1468,4.128,4.0181,4.0584,4.051,4.0015,4.0408,4.0731,4.1016,4.1012,4.0882,4.0494,3.8252,3.6531,3.5053,3.2259,3.0626,2.9829,2.9486,3.0076,3.1059,0.0,3.0292,2.9137,2.8268,2.7615,2.6993,2.5863,2.5143,2.439,2.2678,2.1893,2.1338,2.0127,1.8815,1.756,1.6536,1.4833,1.3108,1.1858,1.0676,0.9738,0.9245,0.824,0.7611,0.8225,0.7566,0.7215,0.803,0.7935,0.7645,0.7387,0.7668,0.7804,0.7649,0.7968,0.8402,0.8851,0.9735,1.03,1.0447,1.0487,1.0538,1.0442,1.0574,1.0548,1.0471,1.0949,1.1168,1.1069,1.1669,1.1807,1.1499,1.1101,1.0588,0.9992,0.9084,0.8105,0.7019,0.5724,0.4294,0.2611,0.0736,-0.0876,-0.2517,-0.4338,-0.5948,-0.7325,-0.8925,-1.0438,-1.1947,0.0,0.0,0.0,0.0,0.0,0.0,0.0,0.0,0.0,0.0,0.0,0.0,0.0,0.0,0.0,0.0,0.0,0.0,0.0,0.0,3.5335,3.6293,3.7083,3.7791,3.8466,3.8869,3.8682,3.787,3.8365,3.8488,3.8289,3.9036,3.9656,4.0183,4.0463,4.041,3.9995,3.7758,3.5689,3.3731,3.1239,2.957,2.8607,2.8909,2.9889,0.0,3.1858,3.1523,3.0687,3.0164,2.9558,2.8845,2.7753,2.6794,2.5545,2.2927,2.211,2.1671,1.984,1.8367,1.6989,1.5488,1.386,1.2253,1.0835,0.9862,0.9169,0.8895,0.7877,0.7211,0.7817,0.7125,0.6652,0.729,0.7094,0.6825,0.6701,0.6725,0.6805,0.6939,0.7064,0.7428,0.8184,0.8595,0.9092,0.9788,0.9737,0.976,0.9784,0.9762,0.9722,0.9582,1.0037,1.0278,1.0182,1.0725,1.0989,1.0751,1.0473,0.9948,0.935,0.8822,0.8067,0.7041,0.5604,0.4174,0.2647,0.0673,-0.0939,-0.2479,-0.423,-0.5745,-0.7219,-0.8652,-1.0206,-1.172,0.0,0.0,0.0,0.0,0.0,0.0,0.0,0.0,0.0,0.0,0.0,0.0,0.0,0.0,0.0,0.0,0.0,0.0,0.0,0.0,0.0,3.5213,3.4597,3.4943,3.6568,3.6038,3.5607,3.5367,3.6348,3.6781,3.6791,3.8496,3.934,3.9437,4.0269,4.0139,3.9201,3.7456,3.5295,3.2812,3.0331,2.8378,2.707,2.802,2.8923,2.9921,3.1678,3.2866,3.358,3.349,3.2297,3.0825,3.0728,2.8977,2.6464,2.3881,2.3027,2.2299,1.9526,1.7764,1.6324,1.4759,1.2945,1.1366,1.0603,0.9653,0.892,0.9,0.7854,0.7063,0.7755,0.6708,0.5918,0.6489,0.6145,0.58,0.5806,0.5876,0.6015,0.6193,0.6337,0.6774,0.7547,0.714,0.7516,0.9057,0.8731,0.8598,0.9022,0.8862,0.8683,0.8683,0.901,0.9018,0.8737,0.9494,0.9803,0.9583,0.9798,0.9553,0.8968,0.8585,0.7957,0.7175,0.5488,0.407,0.2712,0.0612,-0.1008,-0.2274,-0.3893,-0.5403,-0.6889,-0.8397,-0.9773,-1.1155,0.0,0.0,0.0,0.0,0.0,0.0,0.0,0.0,0.0,0.0,0.0,0.0,0.0,0.0,0.0,0.0,0.0,0.0,0.0,0.0,0.0,3.2617,3.3557,3.3991,3.391,3.4456,3.4393,3.3632,3.4095,3.4866,3.5931,3.6487,3.7713,3.9483,3.9644,3.9565,3.9143,3.6766,3.4345,3.1903,2.9431,2.8242,2.8023,2.8865,3.0524,3.2631,3.4382,3.5524,3.6031,3.4729,3.3563,3.2405,3.1106,2.9405,2.7484,2.5517,2.3963,2.2429,2.0268,1.8297,1.6373,1.4435,1.2434,1.0666,0.9682,0.8561,0.7731,0.7744,0.6896,0.6169,0.6196,0.5418,0.4846,0.5097,0.4805,0.4597,0.476,0.487,0.4984,0.5081,0.5503,0.6002,0.6683,0.6462,0.6569,0.7182,0.7339,0.7375,0.7269,0.7456,0.754,0.7482,0.7903,0.8176,0.8279,0.9064,0.951,0.9577,0.9637,0.9394,0.874,0.8361,0.7628,0.6616,0.5259,0.3815,0.2375,0.0551,-0.1026,-0.248,-0.3987,-0.5377,-0.6572,-0.7651,-0.9089,-1.06,0.0,0.0,0.0,0.0,0.0,0.0,0.0,0.0,0.0,0.0,0.0,0.0,0.0,0.0,0.0,0.0,0.0,0.0,0.0,0.0,0.0,3.1718,3.2216,3.2269,3.186,3.2078,3.1958,3.1423,3.1972,3.2868,3.4041,3.4871,3.6203,3.7898,3.8175,3.8273,3.8105,3.5836,3.3682,0.0,0.0,2.849,2.8387,2.9609,3.147,3.3618,3.5343,3.6956,3.8072,3.6683,3.5385,3.3992,3.1887,3.0334,2.8879,2.6755,2.4629,2.245,2.0177,1.7763,1.5423,1.3408,1.1464,0.9739,0.8577,0.7576,0.6816,0.6593,0.5787,0.5062,0.4887,0.4103,0.3575,0.3895,0.355,0.3412,0.3769,0.3876,0.3991,0.4173,0.4676,0.5184,0.5718,0.5617,0.5576,0.5714,0.6174,0.6411,0.6363,0.6409,0.6551,0.6764,0.6942,0.7236,0.7726,0.8798,0.9263,0.92,0.9547,0.9394,0.8715,0.8318,0.7597,0.6592,0.5191,0.3855,0.246,0.0755,-0.0749,-0.2076,-0.3394,-0.4675,-0.5925,-0.6969,-0.8393,-0.9929,0.0,0.0,0.0,0.0,0.0,0.0,0.0,0.0,0.0,0.0,2.5044,2.5693,0.0,0.0,0.0,0.0,0.0,0.0,0.0,0.0,0.0,0.0,3.0579,3.0182,3.0171,2.9555,2.9235,2.9235,3.0043,3.0866,3.1697,3.3315,3.458,3.5503,3.6231,3.6566,3.6451,3.4769,3.3106,3.1514,3.002,2.9005,2.8578,0.0,0.0,0.0,3.5727,3.789,3.9701,3.8656,3.7298,3.563,3.3189,3.1693,3.0361,2.7761,2.5095,2.2406,1.9608,1.6764,1.4122,1.204,1.0271,0.8679,0.735,0.6465,0.5796,0.5353,0.4502,0.3785,0.3597,0.2775,0.2281,0.2737,0.2384,0.2251,0.2822,0.2908,0.3022,0.337,0.3906,0.4373,0.48,0.4705,0.4614,0.4562,0.5003,0.5437,0.5743,0.5443,0.5563,0.6258,0.6063,0.6388,0.7296,0.8517,0.8942,0.8643,0.9439,0.9384,0.8679,0.8191,0.7509,0.6659,0.5196,0.3894,0.2704,0.1089,-0.0269,-0.1397,-0.2465,-0.3753,-0.5113,-0.6267,-0.7661,-0.9114,0.0,0.0,0.0,0.0,0.0,0.0,0.0,0.0,0.0,0.0,2.4613,2.5644,0.0,0.0,0.0,0.0,0.0,0.0,0.0,0.0,0.0,0.0,0.0,2.8512,2.8509,2.8392,2.834,2.832,2.8544,2.9058,2.9869,3.0909,3.2225,3.378,3.4509,3.4826,3.4754,3.3677,3.228,3.0739,2.9836,2.942,2.9545,0.0,0.0,0.0,3.793,3.9746,4.0441,3.884,3.8141,3.7588,3.565,3.353,3.1274,2.8704,2.5637,2.2342,1.8921,1.6381,1.3951,1.0904,0.9141,0.769,0.6031,0.4781,0.3912,0.359,0.2995,0.2362,0.1858,0.1465,0.1258,0.1335,0.1317,0.1447,0.1868,0.2171,0.2391,0.2524,0.3227,0.3796,0.3913,0.3852,0.3805,0.3808,0.3373,0.3392,0.3987,0.4062,0.4423,0.5244,0.56,0.6244,0.7296,0.7937,0.8492,0.8868,0.9102,0.8896,0.8299,0.7617,0.6905,0.5981,0.4915,0.3721,0.2437,0.1449,0.0203,-0.1166,-0.205,-0.3147,-0.4314,-0.5235,-0.6391,-0.7659,0.0,0.0,0.0,0.0,0.0,0.0,0.0,2.2164,2.3165,2.3617,2.4771,2.5566,2.5644,2.5281,2.5213,0.0,0.0,0.0,0.0,0.0,0.0,0.0,0.0,0.0,0.0,2.7388,2.6929,2.6022,0.0,2.6689,2.6714,2.801,2.9565,3.1318,3.2104,3.2962,3.3723,3.2813,3.2008,3.1255,3.045,3.0162,0.0,0.0,0.0,0.0,0.0,4.0232,4.0742,3.9384,3.8394,3.7413,3.565,3.3638,3.1449,2.889,2.5434,2.1657,1.8097,1.5027,1.2142,0.9313,0.7414,0.5864,0.4432,0.3375,0.2551,0.192,0.1463,0.0948,0.0275,-0.0043,-0.018,-0.0151,-0.0078,0.0113,0.0577,0.0994,0.1299,0.1482,0.227,0.2853,0.3064,0.2962,0.2968,0.3031,0.2507,0.2521,0.3258,0.354,0.3952,0.4448,0.5104,0.5892,0.6805,0.7692,0.8245,0.8565,0.8851,0.8732,0.8172,0.7526,0.6741,0.5954,0.502,0.4001,0.2887,0.2043,0.0936,-0.0321,-0.1075,-0.2217,-0.3468,-0.4342,-0.5467,-0.6658,0.0,0.0,0.0,0.0,0.0,0.0,2.1563,2.2435,2.3314,2.4193,2.4839,2.5335,2.5576,2.5031,2.4857,0.0,0.0,0.0,0.0,0.0,0.0,0.0,0.0,0.0,0.0,0.0,0.0,2.4076,2.454,0.0,0.0,0.0,0.0,0.0,2.9678,3.0866,3.2061,3.1388,3.1216,0.0,0.0,3.0583,0.0,0.0,0.0,0.0,0.0,3.9735,3.9984,3.9023,3.7704,3.6135,3.4032,3.2449,3.0839,2.8087,2.4412,2.0433,1.6716,1.3275,1.0119,0.7566,0.5646,0.4061,0.2875,0.2056,0.1314,0.0459,0.0049,-0.0371,-0.1149,-0.1435,-0.1525,-0.1476,-0.1326,-0.1016,-0.0449,0.0,0.0381,0.0686,0.146,0.2059,0.2349,0.2312,0.2312,0.2343,0.1966,0.2007,0.2681,0.3049,0.3416,0.3774,0.4611,0.5422,0.635,0.7377,0.8006,0.8244,0.8583,0.8485,0.8042,0.7396,0.6741,0.6079,0.5213,0.4417,0.362,0.275,0.1847,0.0834,0.0,-0.1151,-0.2475,-0.3393,-0.4538,-0.5641,0.0,0.0,0.0,0.0,0.0,0.0,2.1568,2.2447,2.33,2.4193,2.4366,2.471,2.5513,2.5535,2.523,0.0,0.0,0.0,0.0,0.0,0.0,0.0,0.0,0.0,0.0,0.0,0.0,2.4015,2.3361,0.0,0.0,0.0,0.0,0.0,0.0,2.8423,2.8565,2.8477,0.0,0.0,0.0,0.0,0.0,0.0,0.0,0.0,0.0,3.8019,3.7239,3.6346,3.5372,3.3986,3.0714,2.9666,2.8973,2.5622,2.2183,1.8515,1.4297,1.139,0.8836,0.5806,0.4183,0.2975,0.1592,0.0657,-0.0066,-0.0646,-0.1025,-0.1514,-0.2384,-0.246,-0.2367,-0.2301,-0.1886,-0.1338,-0.0756,-0.0162,0.0275,0.051,0.1274,0.185,0.1933,0.2182,0.2194,0.1893,0.1599,0.1561,0.1893,0.2076,0.2453,0.3182,0.3956,0.5014,0.628,0.6973,0.7593,0.8275,0.8164,0.7942,0.7731,0.7068,0.6539,0.6079,0.5352,0.4752,0.4154,0.362,0.2969,0.218,0.1058,-0.0061,-0.1153,-0.2341,-0.3416,-0.4307,0.0,0.0,0.0,0.0,0.0,0.0,2.1565,2.2027,2.277,2.4127,2.4294,2.4427,2.4773,2.5299,2.5485,2.521,0.0,0.0,0.0,0.0,0.0,0.0,0.0,0.0,0.0,0.0,2.3955,2.3158,2.2832,0.0,0.0,0.0,0.0,0.0,0.0,2.718,2.8157,2.812,0.0,0.0,0.0,0.0,0.0,0.0,0.0,0.0,0.0,0.0,3.6045,3.4573,3.3167,3.1485,2.8508,2.6236,2.4281,2.2475,1.9526,1.6003,1.207,0.9211,0.6863,0.4775,0.2729,0.0963,0.0,-0.0814,-0.1514,-0.2053,-0.2103,-0.2347,-0.3251,-0.3185,-0.3028,-0.3173,-0.288,-0.2362,-0.1632,-0.1163,-0.0687,-0.0103,0.0665,0.1326,0.1729,0.1931,0.1914,0.1679,0.1638,0.1668,0.1899,0.1959,0.2329,0.3051,0.362,0.4607,0.6113,0.6396,0.7003,0.7915,0.7757,0.7599,0.7591,0.7073,0.6675,0.6408,0.5947,0.5547,0.5213,0.4686,0.4017,0.327,0.222,0.0864,-0.0535,-0.1625,-0.275,-0.3812,0.0,0.0,0.0,0.0,0.0,2.0783,2.1599,2.1997,2.2697,2.4116,2.4305,2.4408,2.4652,2.5012,2.5371,2.5671,2.5701,0.0,0.0,0.0,0.0,0.0,0.0,0.0,0.0,0.0,2.3429,2.263,2.2132,2.1321,0.0,0.0,2.2289,2.3591,0.0,0.0,0.0,0.0,0.0,0.0,0.0,0.0,0.0,0.0,0.0,0.0,0.0,0.0,0.0,0.0,0.0,2.8462,2.5825,0.0,0.0,1.9742,1.7204,1.3816,1.0407,0.7447,0.4966,0.3531,0.1278,-0.0741,-0.1395,-0.2079,-0.2755,-0.3351,-0.3246,-0.3328,-0.4212,-0.4058,-0.3835,-0.3955,-0.3612,-0.3089,-0.2378,-0.1777,-0.12,-0.063,0.0176,0.0888,0.1402,0.1655,0.1798,0.1852,0.1816,0.1926,0.2176,0.2184,0.249,0.3009,0.3442,0.4305,0.567,0.5908,0.6498,0.7286,0.7259,0.7229,0.7242,0.6981,0.6876,0.6806,0.6474,0.6342,0.6264,0.5629,0.5087,0.4535,0.321,0.1773,0.0295,-0.0931,-0.2182,-0.3234,0.0,0.0,0.0,0.0,0.0,0.0,2.1659,2.2532,2.3381,2.418,2.4297,2.4628,2.5493,2.4871,2.4769,2.5613,2.5707,0.0,0.0,0.0,0.0,0.0,0.0,0.0,0.0,0.0,2.1119,2.27,2.1039,2.025,2.0328,2.1262,2.1745,2.1855,0.0,0.0,0.0,0.0,0.0,0.0,0.0,0.0,0.0,0.0,0.0,0.0,0.0,0.0,0.0,0.0,0.0,0.0,0.0,0.0,0.0,0.0,1.5405,1.2214,0.9452,0.6275,0.336,0.1811,-0.0138,-0.1847,-0.2447,-0.3056,-0.3695,-0.4439,-0.4476,-0.4599,-0.5343,-0.5208,-0.4894,-0.4632,-0.3928,-0.3235,-0.2773,-0.1715,-0.0969,-0.0896,0.0,0.0669,0.0778,0.1404,0.1948,0.2353,0.2215,0.2288,0.2681,0.2691,0.2745,0.2907,0.3462,0.4161,0.4977,0.5604,0.6057,0.644,0.6759,0.6849,0.6724,0.6858,0.7007,0.7199,0.7012,0.7007,0.712,0.6408,0.6136,0.6091,0.3954,0.2619,0.1634,-0.0343,-0.1599,-0.2399,0.0,0.0,0.0,0.0,0.0,0.0,2.0783,2.1173,2.1889,2.3309,2.2952,2.3369,2.5377,2.4871,2.4719,2.5565,2.5675,0.0,0.0,0.0,0.0,0.0,0.0,0.0,0.0,0.0,2.2015,2.1884,2.1353,2.0819,2.032,2.0653,2.1165,2.1816,2.2034,2.2487,0.0,0.0,0.0,0.0,0.0,0.0,0.0,0.0,0.0,0.0,0.0,0.0,0.0,0.0,0.0,0.0,0.0,0.0,0.0,1.3577,1.177,0.9679,0.7623,0.4539,0.1624,0.0407,-0.1911,-0.4074,-0.4756,-0.5288,-0.5674,-0.5864,-0.5603,-0.5515,-0.6023,-0.5549,-0.4926,-0.4528,-0.3947,-0.3227,-0.2352,-0.1592,-0.0967,-0.0464,0.0727,0.1464,0.1368,0.1923,0.2338,0.2459,0.2626,0.277,0.2959,0.3299,0.3411,0.3244,0.3613,0.4352,0.5439,0.56,0.6098,0.6847,0.6825,0.6864,0.6946,0.7069,0.7298,0.7696,0.7565,0.7718,0.8037,0.7419,0.7077,0.6862,0.5022,0.3287,0.165,0.0348,-0.1148,-0.2614,0.0,0.0,0.0,0.0,0.0,0.0,1.9959,2.0621,2.1435,2.2474,2.2419,2.2999,2.49,2.4681,2.4724,2.5522,2.5368,0.0,0.0,0.0,0.0,0.0,0.0,0.0,2.2929,2.2287,2.1829,2.1571,2.1261,2.0849,2.0391,2.041,2.0757,2.1348,2.126,2.1558,0.0,0.0,0.0,0.0,0.0,0.0,2.6928,0.0,0.0,0.0,0.0,0.0,0.0,0.0,0.0,0.0,0.0,0.0,0.0,0.0,0.9164,0.7819,0.669,0.3612,0.0446,-0.0702,-0.3053,-0.5229,-0.5798,-0.6343,-0.6808,-0.7,-0.6707,-0.6505,-0.674,-0.6206,-0.554,-0.4914,-0.4256,-0.3505,-0.2594,-0.1742,-0.0905,-0.0099,0.0906,0.1497,0.1447,0.2062,0.2432,0.2405,0.2827,0.3083,0.3123,0.3574,0.3855,0.3799,0.4021,0.4619,0.5628,0.5788,0.6184,0.6841,0.6897,0.6999,0.7145,0.742,0.7756,0.8156,0.8305,0.8557,0.0,0.814,0.7822,0.7553,0.5336,0.3548,0.2052,0.0517,-0.1025,-0.2355,0.0,0.0,0.0,0.0,0.0,0.0,0.0,2.0702,2.1751,2.1879,2.2536,2.3361,2.4307,2.4404,2.4719,2.5526,2.486,0.0,0.0,0.0,0.0,0.0,0.0,0.0,2.28,2.125,2.0803,2.1615,2.0794,2.0441,2.05,2.0506,2.0534,2.0584,2.0386,2.0348,0.0,0.0,0.0,0.0,0.0,0.0,0.0,0.0,0.0,0.0,0.0,0.0,0.0,0.0,0.0,0.0,0.0,0.0,0.0,0.0,0.0,0.0,0.0,0.3139,-0.0253,-0.1733,-0.3821,-0.5603,-0.5899,-0.6597,0.0,-0.7874,-0.7812,-0.7612,-0.7459,-0.7137,-0.6577,-0.5614,-0.4779,-0.4007,-0.326,-0.1991,-0.0763,0.0199,0.0704,0.1037,0.1213,0.1884,0.2308,0.2246,0.2926,0.3281,0.3176,0.3744,0.4187,0.4574,0.4743,0.5073,0.5673,0.605,0.6317,0.649,0.7027,0.7238,0.7254,0.7805,0.827,0.8634,0.9115,0.9291,0.9267,0.8638,0.8316,0.8024,0.5106,0.3534,0.2587,0.0167,-0.1174,-0.179,0.0,0.0,0.0,0.0,0.0,0.0,0.0,0.0,0.0,0.0,2.239,2.2937,2.5134,2.4779,2.4717,0.0,0.0,0.0,0.0,0.0,0.0,0.0,0.0,0.0,2.108,2.0694,2.0546,2.0721,2.0555,2.048,2.0506,2.0497,2.0511,2.0487,1.9738,1.9406,0.0,0.0,0.0,0.0,0.0,0.0,0.0,0.0,0.0,0.0,2.2322,2.1146,0.0,0.0,0.0,0.0,0.0,0.0,0.0,0.0,0.4463,0.164,0.1612,0.0,-0.0726,-0.4152,-0.586,-0.6876,0.0,0.0,0.0,0.0,0.0,0.0,0.0,-0.7783,-0.7193,-0.542,-0.4992,-0.4365,-0.288,-0.1435,-0.0246,0.0533,0.1092,0.1483,0.1561,0.2193,0.2657,0.2797,0.3351,0.3738,0.379,0.4187,0.4684,0.5344,0.5563,0.5891,0.6372,0.648,0.6853,0.7557,0.7566,0.7649,0.7757,0.7891,0.8279,0.8895,0.9016,0.9284,0.9636,0.9051,0.8555,0.7875,0.5203,0.3416,0.2143,0.0216,-0.1023,-0.1728,0.0,0.0,0.0,0.0,0.0,0.0,0.0,0.0,0.0,0.0,2.2435,2.3081,2.4911,2.504,2.5165,0.0,0.0,0.0,0.0,0.0,0.0,0.0,0.0,2.0533,2.049,2.05,2.0474,2.0457,2.0483,2.0526,2.0549,2.0503,2.0511,2.0527,1.9973,1.9301,0.0,0.0,0.0,0.0,2.1118,0.0,0.0,0.0,0.0,0.0,1.9881,1.8743,0.0,1.6601,1.4737,1.2355,0.0,0.0,0.0,0.0,0.1973,-0.0388,-0.2176,-0.2744,-0.3364,-0.5594,-0.6927,-0.7814,-0.8243,0.0,0.0,0.0,0.0,0.0,0.0,-0.7914,-0.7309,-0.5672,-0.5162,-0.4223,-0.215,-0.096,0.0,0.0834,0.131,0.1625,0.1711,0.2254,0.2644,0.2774,0.3392,0.3872,0.4076,0.4396,0.501,0.5828,0.577,0.6072,0.6804,0.6972,0.7348,0.8043,0.7943,0.8043,0.8196,0.8334,0.8614,0.8902,0.9208,0.9414,0.9596,0.8951,0.8342,0.7549,0.4794,0.3061,0.1888,0.0,-0.1,-0.1459,0.0,0.0,0.0,0.0,0.0,0.0,0.0,0.0,0.0,0.0,0.0,0.0,0.0,0.0,0.0,0.0,0.0,0.0,0.0,0.0,0.0,0.0,2.0705,2.0646,2.0497,2.0506,2.0511,2.0492,2.0494,2.0531,2.0578,2.0528,2.0375,2.0156,1.9985,1.9076,0.0,0.0,1.8888,1.9013,1.9013,0.0,0.0,0.0,0.0,0.0,0.0,0.0,0.0,1.4424,1.2293,0.9649,0.8598,0.0,0.0,0.0,0.0,0.0,-0.488,-0.6076,-0.6388,-0.6568,-0.7517,-0.8438,-0.8587,0.0,0.0,0.0,0.0,0.0,0.0,-0.7865,-0.7248,-0.6038,-0.5085,-0.3732,-0.1581,-0.0688,0.0093,0.1068,0.141,0.161,0.1785,0.2229,0.2527,0.264,0.3369,0.391,0.4237,0.4534,0.5157,0.6147,0.5668,0.5974,0.7079,0.732,0.7694,0.8221,0.8221,0.8321,0.858,0.8767,0.8792,0.8856,0.9328,0.944,0.9247,0.8595,0.784,0.6865,0.41,0.2483,0.1528,-0.0367,-0.1027,-0.1004,0.0,0.0,0.0,0.0,0.0,0.0,0.0,0.0,0.0,0.0,0.0,0.0,0.0,0.0,0.0,0.0,0.0,0.0,0.0,0.0,0.0,2.1666,2.1597,2.1257,2.0526,2.0553,2.0558,2.0506,2.0509,2.0506,2.0525,2.0506,1.9682,1.82,1.7506,1.7057,1.6809,1.694,1.747,1.8182,1.818,0.0,0.0,0.0,0.0,0.0,0.0,0.0,0.0,1.1609,1.0283,0.9185,0.7006,0.0,0.0,0.0,0.0,0.0,-0.5088,-0.5996,-0.6787,-0.7751,-0.8194,-0.8612,-0.9397,0.0,0.0,0.0,0.0,0.0,0.0,-0.8118,-0.7661,-0.5859,-0.4172,-0.2845,-0.2141,-0.0931,0.0188,0.1103,0.1246,0.1543,0.2207,0.2307,0.265,0.3391,0.3567,0.3873,0.4442,0.4576,0.5006,0.5897,0.599,0.6333,0.7079,0.7095,0.7466,0.8221,0.8221,0.8321,0.8573,0.8253,0.8348,0.8788,0.8783,0.8802,0.8845,0.8117,0.6941,0.5408,0.3319,0.1796,0.0576,-0.0545,-0.0772,-0.0481,0.0,0.0,0.0,0.0,0.0,0.0,0.0,0.0,0.0,0.0,0.0,0.0,0.0,0.0,0.0,0.0,0.0,0.0,0.0,0.0,2.4455,2.3213,2.2738,2.1873,2.0522,2.0528,2.054,2.0543,2.0543,2.0555,2.0542,2.0065,1.8881,1.7156,1.726,1.7019,1.6546,1.6573,1.7119,1.791,0.0,0.0,0.0,0.0,0.0,0.0,0.0,0.0,0.0,0.0,0.8776,0.6953,0.5944,0.0,0.0,0.0,0.0,0.0,-0.557,-0.6344,-0.6963,-0.8257,-0.8626,-0.8797,-0.931,0.0,0.0,0.0,0.0,0.0,-0.8435,-0.8497,-0.7984,-0.5713,-0.401,-0.2646,-0.1676,-0.0719,0.0261,0.1238,0.1311,0.1493,0.2055,0.231,0.2596,0.3008,0.3497,0.4068,0.4753,0.4854,0.5311,0.6232,0.6119,0.6271,0.6681,0.6634,0.7004,0.7824,0.7824,0.7824,0.7759,0.7664,0.7626,0.7784,0.7845,0.8009,0.8118,0.7109,0.6037,0.4888,0.277,0.1358,0.046,-0.0095,-0.0142,0.0,0.0,0.0,0.0,0.0,0.0,0.0,0.0,0.0,0.0,0.0,0.0,0.0,0.0,0.0,0.0,0.0,0.0,0.0,0.0,0.0,2.5123,2.4044,2.3592,2.2578,2.0841,2.0801,2.0736,2.0591,2.079,2.0781,2.0542,1.9498,1.8242,1.6919,1.7365,1.7178,1.6527,1.6561,1.6963,1.753,0.0,0.0,0.0,0.0,0.0,0.0,0.0,0.0,0.0,0.0,0.0,0.0,0.0,0.0,0.0,-0.0806,-0.2101,-0.3762,-0.6187,-0.6697,-0.69,-0.8317,-0.8792,0.0,0.0,0.0,0.0,0.0,0.0,-0.948,-0.8752,-0.844,-0.7549,-0.5299,-0.3796,-0.2431,-0.1141,-0.0336,0.0436,0.1341,0.1378,0.1478,0.1809,0.2206,0.2513,0.2755,0.344,0.4203,0.4979,0.5016,0.5455,0.633,0.6128,0.6069,0.6159,0.6214,0.6581,0.7171,0.7171,0.7117,0.6956,0.7015,0.6961,0.6853,0.7074,0.7235,0.7289,0.6089,0.5085,0.4139,0.2378,0.123,0.0593,0.0461,0.0467,0.0538,0.0,0.0,0.0,0.0,0.0,0.0,0.0,0.0,0.0,0.0,0.0,0.0,0.0,0.0,0.0,0.0,0.0,0.0,0.0,0.0,2.4845,2.3168,2.3814,2.3436,2.1737,2.1708,2.1345,2.0605,2.1357,2.1296,2.0472,1.8854,1.7987,1.7771,1.6965,1.6592,1.659,1.6527,1.6588,1.6612,1.5813,0.0,0.0,0.0,0.0,0.0,0.0,0.0,0.0,0.0,0.0,0.0,0.0,0.0,-0.1167,-0.2656,-0.3488,-0.4456,-0.6874,-0.6848,-0.6494,-0.7971,-0.8628,0.0,-0.9622,-0.9713,0.0,-1.0215,0.0,-0.9111,-0.8991,-0.7465,-0.5763,-0.4391,-0.311,-0.1911,-0.0936,0.0033,0.0808,0.1246,0.1415,0.1549,0.1699,0.1981,0.2436,0.3213,0.3526,0.41,0.5038,0.4941,0.5075,0.5667,0.5874,0.5937,0.5742,0.6037,0.6249,0.6312,0.6312,0.6372,0.6436,0.6317,0.6426,0.6642,0.6642,0.6593,0.6416,0.5316,0.3971,0.2532,0.2044,0.1482,0.0951,0.1002,0.1034,0.1038,0.0,0.0,0.0,0.0,0.0,0.0,0.0,0.0,0.0,0.0,0.0,0.0,0.0,0.0,0.0,0.0,0.0,0.0,0.0,2.5525,2.5266,2.4644,2.4402,2.3776,2.2636,2.2606,2.2452,2.2142,2.1923,2.0817,1.8925,1.8301,1.7396,1.6271,1.5912,1.6057,1.6507,1.5976,1.6079,1.6522,1.5672,1.4835,0.0,0.0,0.0,0.0,0.0,0.0,0.0,0.0,0.4889,0.2903,0.2808,0.0267,-0.27,-0.2832,-0.4092,-0.5741,-0.72,-0.7073,-0.6783,-0.7794,-0.8288,0.0,0.0,-0.9291,-0.9336,-0.9193,-0.9537,-0.9612,-0.8884,-0.7374,-0.5855,-0.4606,-0.3062,-0.1785,-0.1074,-0.0134,0.0672,0.1111,0.1145,0.1154,0.121,0.1707,0.2175,0.2518,0.3137,0.3816,0.457,0.4797,0.5052,0.5356,0.5672,0.5702,0.5312,0.559,0.5582,0.5381,0.5666,0.5723,0.5449,0.5723,0.5887,0.5991,0.5859,0.5877,0.5923,0.4608,0.3647,0.2944,0.1939,0.1446,0.1327,0.1228,0.1275,0.1298,0.0,0.0,0.0,0.0,0.0,0.0,0.0,0.0,0.0,0.0,0.0,0.0,0.0,0.0,0.0,0.0,0.0,0.0,2.5506,2.5499,2.5415,2.5207,2.488,2.4319,2.3534,2.3773,2.3538,2.271,2.2371,2.0917,1.8412,1.8397,1.7435,1.5747,1.5698,1.5995,1.6493,1.5927,1.6038,1.6491,1.5342,1.4409,0.0,0.0,0.0,0.0,0.0,0.0,0.0,0.0,0.4342,0.2351,0.2222,-0.0345,-0.3376,-0.3628,-0.4924,-0.6524,-0.7659,-0.7324,-0.6838,-0.7648,0.0,0.0,-0.8295,-0.8802,-0.9113,-0.8859,-0.9307,-0.9353,-0.8084,-0.6807,-0.5555,-0.4367,-0.2911,-0.172,-0.1076,-0.0202,0.0471,0.0739,0.0841,0.0875,0.0739,0.1411,0.1954,0.213,0.2912,0.3685,0.4307,0.4756,0.5053,0.5149,0.5591,0.555,0.507,0.5225,0.5168,0.4888,0.5222,0.5202,0.4931,0.5259,0.5512,0.5614,0.5481,0.5517,0.5507,0.4226,0.3416,0.2905,0.1821,0.1508,0.1612,0.1547,0.1471,0.1373,0.0,0.0,0.0,0.0,0.0,0.0,0.0,0.0,0.0,0.0,0.0,0.0,0.0,0.0,0.0,0.0,0.0,0.0,2.5499,2.5506,2.5137,2.4352,2.5132,2.5216,2.4393,2.5234,2.4433,2.1904,2.2704,2.1794,1.9291,1.9216,1.8289,1.6684,1.6542,1.6512,1.658,1.6505,1.6524,1.6426,1.4694,1.3528,1.2703,0.0,0.0,0.0,0.0,0.0,0.0,0.0,0.4451,0.299,0.0724,-0.1148,-0.2979,-0.5395,-0.6146,-0.659,-0.8315,-0.7585,-0.6527,-0.7465,0.0,0.0,-0.7336,-0.8321,-0.9284,-0.9604,-0.9033,-0.8001,-0.6478,-0.5521,-0.4607,-0.3384,-0.2529,-0.172,-0.0908,-0.0168,0.0235,0.0101,0.0571,0.0773,0.0437,0.1127,0.1778,0.2247,0.2981,0.3675,0.4364,0.4763,0.5009,0.5101,0.554,0.5523,0.5014,0.5149,0.5095,0.4907,0.4849,0.4843,0.4916,0.5024,0.528,0.5614,0.5732,0.5515,0.5064,0.4278,0.3248,0.2091,0.1732,0.1747,0.1896,0.1959,0.1702,0.1326,0.0,0.0,0.0,0.0,0.0,0.0,0.0,0.0,0.0,0.0,0.0,0.0,0.0,0.0,0.0,0.0,0.0,0.0,2.5615,2.5531,2.5381,2.5156,2.544,2.491,2.3452,2.3709,2.3508,2.2734,2.2988,2.1456,1.8303,1.8286,1.7373,1.5707,1.5628,1.5562,1.5541,1.5511,1.5498,1.537,1.4294,1.3387,1.2497,0.0,0.0,0.0,0.0,0.0,0.0,0.0,0.0,0.0,0.0973,-0.0782,-0.2744,-0.5063,-0.6001,-0.6579,-0.7993,-0.749,-0.6693,-0.7161,0.0,0.0,0.0,-0.7178,0.0,0.0,-0.7293,-0.6278,-0.5431,-0.4662,-0.3847,-0.2878,-0.199,-0.1276,-0.0874,-0.0336,0.0067,0.0235,0.0303,0.0336,0.0336,0.0919,0.1464,0.1848,0.2624,0.3242,0.3671,0.426,0.4622,0.4748,0.5213,0.5365,0.5144,0.5248,0.526,0.5247,0.5158,0.5063,0.5044,0.5148,0.5329,0.5581,0.5233,0.5018,0.4823,0.3723,0.2976,0.2418,0.2143,0.2123,0.2277,0.2072,0.1853,0.1556,0.0,0.0,0.0,0.0,0.0,0.0,0.0,0.0,0.0,0.0,0.0,0.0,0.0,0.0,0.0,0.0,0.0,0.0,0.0,2.5247,2.5182,2.5525,2.5257,2.4596,2.3579,2.3605,2.3447,2.3093,2.3458,2.1834,1.8418,1.8388,1.7458,1.5752,1.5362,1.5157,1.5061,1.5038,1.4794,1.438,1.3531,1.2744,1.1892,0.0,0.0,0.0,0.0,0.0,0.0,0.0,0.0,0.0,0.0916,-0.0752,-0.2439,-0.4474,-0.5716,-0.6506,-0.6867,-0.6674,-0.6362,-0.6242,-0.5926,-0.5512,-0.5049,-0.599,-0.6904,-0.6647,-0.5857,-0.507,-0.462,-0.3709,-0.2844,-0.2336,-0.1642,-0.1083,-0.0836,-0.0538,-0.0269,-0.0034,-0.0034,0.0034,0.0269,0.0737,0.1224,0.1651,0.2328,0.2873,0.3293,0.4073,0.4586,0.4787,0.5361,0.5646,0.5605,0.5602,0.5632,0.5717,0.5715,0.5636,0.5541,0.5391,0.5524,0.5785,0.5184,0.4837,0.4542,0.3528,0.2922,0.2597,0.2398,0.2373,0.2415,0.2194,0.1948,0.1702,0.0,0.0,0.0,0.0,0.0,0.0,0.0,0.0,0.0,0.0,0.0,0.0,0.0,0.0,0.0,0.0,0.0,0.0,0.0,0.0,2.4684,2.5564,2.4764,2.4364,2.4512,2.4432,2.3975,2.3092,2.3883,2.2524,1.9184,1.9047,1.8087,1.646,1.5599,1.512,1.4988,1.4925,1.4392,1.3497,1.2649,1.1873,1.1087,0.9338,0.0,0.0,0.0,0.0,0.0,0.0,0.0,0.0,0.0693,-0.0825,-0.1959,-0.3732,-0.5224,-0.6106,-0.5263,-0.5399,-0.5587,-0.4961,-0.4608,-0.4279,-0.3749,-0.4667,-0.5501,-0.5068,-0.463,-0.4192,-0.383,-0.2649,-0.1743,-0.1763,-0.1366,-0.1012,-0.0826,-0.0739,-0.0672,-0.0538,-0.0403,-0.0168,0.0235,0.0605,0.1041,0.1642,0.2148,0.2628,0.3131,0.4058,0.4749,0.5105,0.5825,0.6227,0.6221,0.6124,0.6136,0.6263,0.6464,0.6458,0.6306,0.5871,0.5846,0.6059,0.5376,0.4835,0.4318,0.3533,0.2996,0.2684,0.2506,0.237,0.2279,0.2279,0.2018,0.1698,0.0,0.0,0.0,0.0,0.0,0.0,0.0,0.0,0.0,0.0,0.0,0.0,0.0,0.0,0.0,0.0,0.0,0.0,0.0,0.0,2.469,2.5556,2.4771,2.4644,2.5408,2.4752,2.3962,2.3104,2.3283,2.1921,1.9103,1.8405,1.7493,1.6396,1.5573,1.5101,1.4921,1.4921,1.4317,1.3309,1.254,1.1755,1.0825,0.8569,0.7734,0.0,0.0,0.0,0.0,0.0,0.0,0.0,0.0892,0.0076,-0.0587,-0.3211,-0.3991,-0.4096,-0.4456,-0.4604,0.0,-0.4079,-0.3522,-0.2962,-0.2357,-0.2558,-0.295,-0.333,-0.3066,-0.2594,-0.1996,-0.1492,-0.1084,-0.0773,-0.0811,-0.0832,-0.0719,-0.0739,-0.0773,-0.0739,-0.0571,-0.0303,0.0101,0.0538,0.1009,0.1514,0.2116,0.2621,0.294,0.3912,0.4687,0.5255,0.5862,0.6264,0.6435,0.6513,0.6619,0.6746,0.6774,0.6948,0.7147,0.6672,0.6259,0.5853,0.5321,0.4816,0.424,0.3401,0.286,0.2506,0.2241,0.2107,0.2152,0.2062,0.1939,0.1778,0.0,0.0,0.0,0.0,0.0,0.0,0.0,0.0,0.0,0.0,0.0,0.0,0.0,0.0,0.0,0.0,0.0,0.0,0.0,0.0,2.3717,2.3782,2.4144,2.4378,2.4449,2.4425,2.3971,2.3098,2.3061,2.1895,1.966,1.8821,1.8146,1.7584,1.6377,1.5715,1.5497,1.4961,1.3924,1.2586,1.2176,1.1346,1.0165,0.8131,0.7414,0.731,0.5884,0.0,0.0,0.0,0.0,0.0,0.0,0.0,-0.018,-0.214,-0.2876,-0.3044,-0.2939,-0.3172,0.0,-0.2582,0.0,-0.1313,-0.1169,-0.1082,-0.1158,-0.1564,-0.1589,-0.1416,-0.1003,-0.0616,-0.0356,-0.0227,-0.0501,-0.0671,-0.0628,-0.0908,-0.1043,-0.0773,-0.0605,-0.0303,0.0235,0.0724,0.119,0.1645,0.227,0.281,0.3368,0.4297,0.5158,0.5843,0.6445,0.6859,0.6979,0.7189,0.7271,0.7298,0.7594,0.7845,0.7996,0.719,0.6569,0.6093,0.5534,0.4923,0.4268,0.3385,0.286,0.2642,0.2241,0.2199,0.2375,0.2194,0.2061,0.1981,0.0,0.0,0.0,0.0,0.0,0.0,0.0,0.0,0.0,0.0,0.0,0.0,0.0,0.0,0.0,0.0,0.0,0.0,0.0,0.0,0.0,2.2045,2.342,2.3913,2.3334,2.3884,2.3825,2.3095,2.2894,2.1939,2.0301,1.9477,1.8989,1.8705,1.7175,1.6298,1.5887,1.4878,1.3467,1.1927,1.1714,1.0867,0.9542,0.7904,0.7363,0.7324,0.6117,0.5165,0.4505,0.468,0.0,0.0,0.0,0.0,-0.0085,-0.0928,-0.1766,-0.2265,-0.145,-0.1627,-0.1819,-0.0885,-0.0176,0.0,-0.0044,0.0067,0.0156,0.0,-0.0335,-0.0553,-0.04,0.0,0.0223,0.0033,-0.0294,-0.0523,-0.0626,-0.1056,-0.1262,-0.084,-0.0605,-0.0235,0.0403,0.0884,0.1384,0.1856,0.24,0.3057,0.3858,0.4792,0.5681,0.6529,0.7126,0.7489,0.7648,0.7863,0.7912,0.7836,0.8396,0.8665,0.8629,0.761,0.6943,0.6568,0.5836,0.5135,0.4387,0.3426,0.2937,0.2794,0.2326,0.2322,0.2527,0.2364,0.2239,0.2194,0.0,0.0,0.0,0.0,0.0,0.0,0.0,0.0,0.0,0.0,0.0,0.0,0.0,0.0,0.0,0.0,0.0,0.0,0.0,0.0,0.0,2.2923,2.316,2.3564,2.4207,2.3594,2.3212,2.3096,2.2337,2.1415,0.0,0.0,1.8662,1.7831,1.6918,1.5941,1.4942,1.4153,1.3151,1.2004,1.1296,1.0511,0.9603,0.7879,0.7298,0.7172,0.5417,0.4611,0.4335,0.3865,0.3398,0.0,0.0,0.0,0.0338,-0.0139,-0.0609,-0.0974,-0.0954,0.0,-0.0088,0.0,0.0939,0.1136,0.1084,0.1062,0.1042,0.1072,0.0401,-0.0112,0.0137,0.0257,0.0224,0.0028,-0.0057,-0.032,-0.1023,-0.1032,-0.1031,-0.1135,-0.0706,-0.0235,0.0269,0.0813,0.1312,0.1782,0.2363,0.3053,0.3842,0.4858,0.5825,0.672,0.7216,0.7739,0.8291,0.8193,0.8193,0.8291,0.8379,0.8445,0.8403,0.7976,0.7538,0.7041,0.6087,0.5303,0.4648,0.347,0.284,0.2507,0.2165,0.1974,0.1957,0.2205,0.2235,0.2133,0.0,0.0,0.0,0.0,0.0,0.0,0.0,0.0,0.0,0.0,0.0,0.0,0.0,0.0,0.0,0.0,0.0,0.0,0.0,0.0,0.0,2.1656,2.2584,2.3068,2.3005,2.3063,2.2851,2.2366,2.1503,0.0,0.0,1.9538,1.8866,0.0,1.7587,1.6364,1.4869,1.3997,1.2792,1.1392,1.1005,1.0713,1.0286,0.8098,0.762,0.7812,0.5314,0.4343,0.4147,0.3628,0.3268,0.2935,0.2251,0.0,0.0,0.0,0.0071,-0.0212,0.0212,0.0718,0.1284,0.0,0.2266,0.2254,0.179,0.1688,0.1589,0.1159,0.0714,0.049,0.0761,0.0558,0.0339,0.0248,-0.0053,-0.0418,-0.0858,-0.1023,-0.11,-0.1039,-0.0639,-0.0168,0.0269,0.0846,0.1436,0.1932,0.2624,0.342,0.4262,0.5193,0.6132,0.7097,0.7529,0.7987,0.857,0.8602,0.8724,0.8862,0.8741,0.8659,0.8561,0.7797,0.7414,0.7251,0.6215,0.5394,0.4691,0.3514,0.2875,0.2688,0.219,0.2021,0.2026,0.2149,0.2123,0.2117,0.0,0.0,0.0,0.0,0.0,0.0,0.0,0.0,0.0,0.0,0.0,0.0,0.0,0.0,0.0,0.0,0.0,0.0,0.0,0.0,0.0,2.1156,2.1976,2.2252,2.1875,2.2242,2.2227,2.1795,0.0,0.0,2.0439,1.9536,1.9063,0.0,1.8155,1.674,1.4947,1.38,1.2546,1.1282,1.1018,1.0998,1.092,0.8799,0.8427,0.8673,0.5698,0.4561,0.4343,0.3603,0.326,0.3046,0.2498,0.2052,0.0,0.0,0.0,0.018,0.0,0.0,0.2188,0.3064,0.3427,0.3365,0.2538,0.2354,0.2105,0.1259,0.1059,0.1062,0.113,0.079,0.0459,0.0341,-0.0049,-0.0421,-0.0698,-0.103,-0.1129,-0.092,-0.0566,-0.0168,0.0269,0.0951,0.1595,0.2149,0.2924,0.3762,0.4626,0.5573,0.6429,0.7174,0.7774,0.8277,0.8703,0.9004,0.9136,0.9136,0.8903,0.8781,0.8716,0.7809,0.7477,0.7579,0.6235,0.5269,0.4581,0.3503,0.3001,0.2847,0.227,0.2127,0.2274,0.2302,0.2273,0.2268,0.0,0.0,0.0,0.0,0.0,0.0,0.0,0.0,0.0,0.0,0.0,0.0,0.0,0.0,2.56,2.5591,0.0,0.0,0.0,0.0,0.0,2.2838,2.1432,0.0,2.1796,2.1033,2.1015,0.0,0.0,0.0,2.0394,1.9513,1.9104,1.9044,1.8119,1.6721,1.4972,0.0,1.249,1.2334,1.1509,1.1225,1.1188,1.0226,0.9927,0.964,0.6619,0.5483,0.5199,0.3709,0.3247,0.3187,0.2587,0.2245,0.1958,0.0,0.0,0.0,0.0,0.1924,0.0,0.3494,0.4197,0.4399,0.3526,0.3182,0.2762,0.1776,0.162,0.1518,0.1099,0.0872,0.0633,0.018,0.0135,-0.0093,-0.0798,-0.097,-0.0984,-0.0922,-0.0586,-0.0202,0.0336,0.1058,0.178,0.2415,0.3159,0.3965,0.4843,0.5945,0.6569,0.6651,0.7835,0.8558,0.8703,0.922,0.9328,0.9016,0.8683,0.8651,0.8879,0.8357,0.8234,0.8226,0.6078,0.4841,0.4272,0.3524,0.307,0.2871,0.2392,0.2282,0.2419,0.2733,0.282,0.2802,0.0,0.0,0.0,0.0,0.0,0.0,0.0,0.0,0.0,0.0,0.0,0.0,0.0,2.5632,2.56,2.5591,2.4832,0.0,0.0,0.0,0.0,2.1342,2.0799,2.0659,2.0964,2.0661,2.0644,0.0,0.0,1.9919,2.0359,1.8982,1.8313,1.8222,1.7273,1.624,1.5045,1.3257,0.0,1.1664,1.0834,1.0847,1.1206,0.9779,0.9599,0.9803,0.7461,0.6108,0.5333,0.4698,0.3984,0.3327,0.3114,0.2781,0.2302,0.1403,0.0,0.0,0.0,0.0,0.0,0.3668,0.4125,0.4005,0.33,0.2919,0.2495,0.1698,0.1482,0.136,0.1117,0.0885,0.065,0.0337,0.0022,-0.0271,-0.0534,-0.0749,-0.0897,-0.0948,-0.0628,-0.0254,0.0159,0.0868,0.162,0.2376,0.3199,0.396,0.4682,0.5517,0.6129,0.6535,0.7243,0.7945,0.8683,0.9098,0.9217,0.8975,0.8765,0.8724,0.8935,0.8317,0.8086,0.8148,0.6629,0.5609,0.4919,0.383,0.3306,0.3132,0.279,0.2665,0.2757,0.2958,0.2909,0.2797,0.0,0.0,0.0,0.0,0.0,0.0,0.0,0.0,0.0,0.0,0.0,0.0,0.0,0.0,2.5367,2.4778,2.4432,2.3534,2.1812,2.1675,2.1423,2.0857,2.0322,2.0048,2.0096,1.9802,1.9667,0.0,0.0,0.0,0.0,1.8126,1.7578,1.7747,1.6529,1.5701,0.0,0.0,1.2685,1.2146,1.132,1.1349,1.1718,1.023,1.0034,1.0247,0.7962,0.6598,0.5758,0.5009,0.4224,0.3533,0.3528,0.318,0.2549,0.146,0.0,0.0,0.1106,0.0,0.0,0.0,0.3694,0.3588,0.3265,0.2984,0.2569,0.1852,0.1724,0.1623,0.1261,0.1126,0.0934,0.0511,0.0134,-0.0134,-0.0246,-0.0574,-0.0805,-0.0832,-0.0587,-0.0241,0.0184,0.0922,0.1742,0.262,0.3424,0.4174,0.4848,0.5506,0.6193,0.6959,0.721,0.7795,0.8797,0.9128,0.9217,0.9056,0.8854,0.8895,0.9159,0.8655,0.8421,0.8353,0.7412,0.6428,0.5376,0.4309,0.372,0.3503,0.3259,0.3166,0.3134,0.327,0.3138,0.2973,0.0,0.0,0.0,0.0,0.0,0.0,0.0,0.0,0.0,2.5662,0.0,0.0,0.0,0.0,0.0,2.3215,2.3765,2.3492,2.1836,2.1647,2.1608,2.1632,1.9997,1.9154,1.9262,1.8436,1.8007,0.0,0.0,0.0,0.0,0.0,1.7016,1.7688,1.5969,1.5226,1.5202,1.4358,1.4005,1.3937,1.3113,1.2777,1.2665,1.1756,1.1373,1.0983,0.8121,0.698,0.6556,0.4628,0.3921,0.3824,0.3788,0.3341,0.2624,0.1499,0.0,0.0,0.0,0.0,0.0,0.0,0.2963,0.3233,0.352,0.342,0.3052,0.2276,0.2374,0.2369,0.1569,0.1637,0.155,0.0671,0.0533,0.0399,0.0067,-0.0429,-0.0701,-0.0504,-0.0429,-0.0143,0.0456,0.1224,0.2142,0.3213,0.3837,0.4547,0.5448,0.5997,0.6823,0.7946,0.7804,0.8126,0.8967,0.9328,0.9408,0.9177,0.8992,0.9145,0.9518,0.9518,0.934,0.9023,0.8335,0.7138,0.5627,0.4916,0.4372,0.4007,0.3794,0.3691,0.3635,0.37,0.3532,0.3392,0.0,0.0,0.0,0.0,0.0,0.0,2.3907,2.4898,2.547,0.0,0.0,0.0,0.0,2.5466,2.517,2.4647,2.4254,2.3619,2.2554,2.1982,2.1127,1.9873,1.9396,1.8885,1.8303,1.8091,1.7987,1.7939,1.7977,1.7961,1.7881,1.7004,1.6715,0.0,1.5768,1.495,1.4403,1.4125,1.4024,1.3982,1.3093,1.2341,1.1769,1.1509,1.1008,1.033,0.9381,0.8514,0.7619,0.6353,0.5368,0.4479,0.3357,0.2291,0.0,0.0673,0.0,0.0,-0.0974,0.0,0.0,0.0,0.0,0.0,0.2966,0.2939,0.2703,0.2389,0.2472,0.2488,0.2123,0.2237,0.2186,0.1614,0.1111,0.0742,0.0602,0.0207,-0.0108,-0.0208,0.0025,0.0365,0.0875,0.1499,0.2141,0.2871,0.3442,0.4095,0.4868,0.5648,0.6438,0.7261,0.7508,0.7912,0.857,0.9056,0.9257,0.9217,0.9177,0.9518,1.0147,1.0264,1.0311,1.0303,0.9322,0.8356,0.7425,0.5631,0.4722,0.4433,0.4366,0.428,0.4188,0.4156,0.3956,0.3723,0.0,0.0,0.0,0.0,0.0,2.4196,2.3686,2.4469,2.4927,0.0,0.0,0.0,0.0,2.5117,2.5061,2.4643,2.3856,2.3024,2.2239,2.1143,2.0096,1.9137,1.847,1.7893,1.7409,1.7081,1.6893,1.6856,1.69,1.6909,1.6856,1.6309,1.6068,1.6028,0.0,0.0,0.0,1.3669,1.3723,1.4013,1.3078,1.2392,1.1868,1.1138,1.0522,0.9996,0.9472,0.8788,0.795,0.6893,0.5786,0.4584,0.3126,0.1741,0.0547,0.0058,-0.1481,0.0,0.0,0.0,0.0,0.0454,0.0,0.0,0.3176,0.3132,0.2866,0.3205,0.3072,0.2837,0.2659,0.2714,0.264,0.2254,0.1867,0.1484,0.1098,0.09,0.0728,0.0543,0.0791,0.1128,0.1511,0.2014,0.2566,0.3215,0.3681,0.4292,0.5061,0.5928,0.6618,0.7113,0.7363,0.7759,0.8276,0.894,0.9292,0.933,0.9642,1.0099,1.0725,1.0916,1.0924,1.0777,0.9822,0.8967,0.8115,0.6395,0.547,0.5137,0.5011,0.4922,0.4794,0.4634,0.4344,0.3951,0.0,0.0,2.4023,2.4016,2.4018,2.4024,2.4011,2.4157,2.4255,0.0,2.3625,2.345,2.4002,2.4588,2.4629,2.3833,2.2897,2.2034,2.1349,1.9797,1.8917,1.8959,1.7458,1.6583,1.6562,1.5801,1.5344,1.5268,1.5266,1.5258,1.5235,1.5183,1.5156,1.5113,0.0,0.0,0.0,1.3096,1.3182,1.3753,1.3001,1.2641,1.2382,1.0828,1.0146,0.9879,0.8996,0.844,0.7883,0.6603,0.5366,0.4139,0.2685,0.1177,-0.0177,-0.0811,-0.2367,0.0,0.0,0.0,0.0,-0.0169,0.0397,0.0,0.3712,0.3659,0.3315,0.4244,0.3883,0.3365,0.3242,0.316,0.3017,0.2767,0.2707,0.2421,0.1604,0.1629,0.1688,0.1545,0.1798,0.209,0.2323,0.2755,0.3287,0.3966,0.4421,0.4995,0.5776,0.655,0.709,0.7369,0.7466,0.7743,0.8237,0.8985,0.9448,0.9616,1.0202,1.0764,1.1292,1.1479,1.1322,1.0812,1.0131,0.9281,0.8278,0.724,0.6478,0.5921,0.5679,0.5522,0.5383,0.5144,0.466,0.4135,0.0,0.0,2.2298,2.2279,2.2282,2.2247,2.2138,2.333,2.418,2.4045,2.4474,2.4514,2.385,2.3897,2.3853,2.3573,2.2212,2.1339,2.1236,1.9802,1.8699,1.8082,1.7177,1.6355,1.5679,1.5492,1.5059,1.4354,1.4342,1.4337,1.4279,1.4264,1.4252,1.4244,0.0,0.0,0.0,1.2578,1.2481,1.2048,1.252,1.2258,1.1537,1.126,1.0645,0.9863,0.9406,0.8993,0.8304,0.6087,0.4326,0.27,0.0599,-0.1077,-0.2514,-0.3764,-0.4829,-0.5609,-0.5565,-0.4593,-0.3183,-0.145,-0.0216,0.0,0.3259,0.3571,0.3524,0.3941,0.4026,0.4014,0.3994,0.3883,0.3732,0.352,0.3399,0.3034,0.2157,0.2346,0.2502,0.2299,0.2815,0.3204,0.333,0.3597,0.4046,0.4673,0.5651,0.6331,0.6502,0.712,0.757,0.7789,0.7991,0.8422,0.9041,0.9554,0.9989,1.0376,1.0712,1.1196,1.1763,1.192,1.1911,1.1786,1.1078,1.0217,0.9275,0.8456,0.7392,0.6214,0.6153,0.589,0.554,0.5313,0.4998,0.4558,0.0,2.2347,2.1807,2.1796,2.18,2.1885,2.2119,2.2575,2.3106,2.3721,2.4117,2.4151,2.3669,2.3558,2.3507,2.3409,2.1906,2.0828,2.0524,1.9095,1.7915,1.7185,1.6456,1.5859,1.5403,1.497,1.4545,1.4102,1.3662,1.3435,1.3406,1.3369,1.3349,1.3335,1.2895,0.0,0.0,1.1503,1.126,1.0931,1.1652,1.1652,1.1149,1.0793,1.0193,0.9492,0.8987,0.8049,0.6811,0.516,0.3613,0.2095,0.0315,-0.18,-0.3783,-0.4767,-0.5879,-0.6768,-0.6631,-0.5491,-0.3898,-0.2013,-0.0618,0.0,0.0,0.389,0.3911,0.4526,0.4515,0.4363,0.4275,0.4146,0.4026,0.3911,0.4212,0.4087,0.3091,0.3408,0.3803,0.3932,0.4274,0.4481,0.4409,0.4486,0.4823,0.5489,0.6656,0.7305,0.72,0.7814,0.8115,0.8058,0.8239,0.8591,0.9062,0.9613,1.0126,1.0631,1.1174,1.1653,1.1993,1.2186,1.2138,1.1959,1.1188,1.0407,0.9616,0.8645,0.7723,0.6952,0.6912,0.6544,0.6014,0.5751,0.5345,0.4845,0.0,2.1993,2.155,2.1556,2.1541,2.174,2.2372,2.1962,2.2046,2.3384,2.349,2.3516,2.3633,2.33,2.3039,2.2959,2.1343,2.0062,1.9501,1.7937,1.6854,1.6503,1.5636,1.5211,1.5376,1.4539,1.4011,1.3851,1.2998,1.2559,1.2556,1.2486,1.2454,1.2418,1.1709,0.0,0.0,1.0497,1.0194,1.0258,1.0763,1.0945,1.0816,1.0174,0.9613,0.8999,0.791,0.6306,0.454,0.3555,0.243,0.1188,-0.0231,-0.2541,-0.4816,-0.5289,-0.6483,-0.754,-0.7107,-0.5823,-0.4126,-0.2202,-0.0669,0.1093,0.0,0.0,0.0,0.5037,0.489,0.4567,0.4363,0.4049,0.3839,0.3926,0.4691,0.4977,0.4166,0.4504,0.4982,0.5354,0.5616,0.5697,0.55,0.5557,0.5878,0.6608,0.7659,0.8171,0.7965,0.8496,0.8673,0.829,0.8507,0.8755,0.9046,0.9734,1.0306,1.0709,1.1511,1.1957,1.2029,1.2294,1.2222,1.185,1.1171,1.0545,0.9853,0.8848,0.8187,0.7753,0.756,0.7092,0.649,0.6213,0.5743,0.5163,2.0672,2.0663,2.0648,2.0648,2.0607,2.0809,2.1522,2.157,2.1966,0.0,2.3368,2.3524,2.4062,2.2738,2.1769,2.1716,1.9737,1.8434,1.83,1.6404,1.563,1.6389,1.503,1.4583,1.529,1.4514,1.3715,1.2942,1.2126,1.1706,1.1644,1.1585,1.1554,1.1547,1.1432,1.1007,0.0,1.0243,1.0194,1.0191,1.0147,1.0125,1.0116,1.0096,0.961,0.86,0.6021,0.3965,0.223,0.0645,-0.0386,-0.133,-0.327,-0.4961,-0.6297,-0.6543,-0.7328,-0.8003,-0.7496,-0.5456,-0.3212,-0.2066,-0.0037,0.2158,0.3985,0.0,0.4216,0.439,0.0,0.4705,0.443,0.0,0.0,0.3323,0.4176,0.4897,0.5238,0.531,0.5344,0.5403,0.6206,0.6691,0.6554,0.7007,0.7588,0.8275,0.8839,0.9047,0.8858,0.9158,0.9101,0.8673,0.9189,0.9624,0.9939,1.0429,1.0848,1.1137,1.1641,1.1884,1.1847,1.2222,1.2186,1.1811,1.1718,1.1169,1.0339,1.0202,0.9418,0.8239,0.7633,0.7071,0.6565,0.6488,0.6183,0.5758,2.0395,2.042,0.0,2.0429,2.0427,2.0642,2.1345,2.156,2.1709,2.1826,2.2426,2.2923,2.3135,2.2094,2.1331,2.1274,1.9645,1.8273,1.7514,1.6309,1.5434,1.4974,1.3918,1.3505,1.3839,1.3028,1.2405,1.2044,1.1244,1.0825,1.0791,1.074,1.0681,1.0641,1.0611,1.043,1.0147,1.0056,1.0083,1.0176,1.0001,0.999,1.0044,0.9952,0.8452,0.6022,0.3131,0.125,0.0043,-0.0496,-0.1493,-0.2693,-0.381,-0.5077,-0.6297,-0.7001,-0.7493,-0.7773,-0.7618,-0.5573,-0.3245,-0.2321,0.004,0.245,0.3661,0.4162,0.4291,0.3965,0.0,0.0,0.0,0.0,0.0,0.0,0.4053,0.516,0.4802,0.5552,0.6059,0.5781,0.595,0.6282,0.6763,0.7577,0.8405,0.9243,0.9542,0.9659,0.9528,0.9567,0.9512,0.9414,0.9543,0.9886,1.0519,1.0612,1.0852,1.1136,1.1627,1.1726,1.1542,1.2066,1.2004,1.1586,1.1516,1.1094,1.036,1.0,0.944,0.8756,0.8075,0.7323,0.6595,0.6535,0.636,0.6083,2.005,0.0,0.0,2.0039,2.0003,2.0212,2.0864,2.0922,2.0835,2.0641,2.137,2.196,2.2121,2.1416,2.0873,2.071,1.9227,1.7872,1.6803,1.5831,1.4866,1.3887,1.3095,1.2715,1.2808,1.1942,1.1495,1.1508,1.0698,1.0272,1.0246,1.0197,1.0144,1.0073,1.0,1.0022,1.009,0.9971,1.0038,1.0191,1.0018,0.9544,0.8876,0.8444,0.6408,0.3372,0.0286,-0.1359,-0.2098,-0.2168,-0.2885,-0.3871,-0.454,-0.5593,-0.6662,-0.7236,-0.7482,-0.753,-0.7525,-0.557,-0.3345,-0.2347,-0.0073,0.227,0.3532,0.4129,0.4305,0.3904,0.403,0.0,0.0,0.0,0.2628,0.0,0.0,0.5253,0.4483,0.5351,0.5989,0.58,0.5858,0.6314,0.7301,0.8074,0.8859,0.9684,0.9886,0.9919,0.9828,0.9845,0.9812,0.9684,0.9837,1.0111,1.0549,1.0551,1.0669,1.0925,1.1366,1.1428,1.1162,1.1816,1.1859,1.1394,1.1351,1.0992,1.0437,0.9941,0.9524,0.9133,0.8639,0.7881,0.6998,0.6771,0.6612,0.6429,1.9142,1.9134,0.0,1.914,1.9033,1.915,1.9763,1.9143,1.9031,2.0246,2.0389,2.0661,2.1433,2.0753,2.0072,1.9688,1.7951,1.6612,1.6062,1.4317,1.3426,1.3685,1.2886,1.2531,1.2784,1.1953,1.1502,1.1503,1.07,1.0224,1.0109,1.01,1.0066,1.0006,0.9928,0.9979,1.0098,1.0029,1.0086,1.0188,1.0127,0.8415,0.5828,0.4845,0.3322,0.1253,-0.2158,-0.3702,-0.4238,-0.5144,-0.5239,-0.5152,-0.625,-0.7355,-0.8096,-0.7421,-0.7399,-0.7517,-0.7121,-0.5307,-0.321,-0.1941,-0.0272,0.1629,0.387,0.4297,0.424,0.4355,0.3933,0.359,0.3811,0.3172,0.0,0.0,0.0,0.0,0.0,0.4604,0.4655,0.5159,0.6239,0.74,0.8521,0.8781,0.9083,0.9573,0.9801,0.9828,0.9617,1.0024,0.9932,0.9154,1.0186,1.0496,0.995,1.0252,1.0414,1.0439,1.0812,1.0928,1.0767,1.155,1.1712,1.1394,1.1394,1.1099,1.0582,1.0447,1.0,0.94,0.9381,0.8855,0.8068,0.7426,0.7056,0.6885,0.0,0.0,0.0,0.0,1.8416,1.798,1.7947,1.8416,1.8732,1.8701,1.9458,2.0058,2.0103,1.9495,1.8838,1.8253,1.7073,1.6007,1.5192,1.4496,1.3963,1.3577,1.2435,1.1853,1.1948,1.1123,1.0678,1.0644,0.9844,0.9672,0.0,0.9559,0.9476,0.9813,0.9868,0.985,0.9756,0.9603,0.9636,0.9667,0.8079,0.5464,0.2467,0.221,0.0628,-0.1815,-0.4716,-0.5986,-0.6376,-0.6783,-0.6774,-0.6757,-0.7773,-0.8234,-0.832,-0.8087,-0.7679,-0.7144,-0.6349,-0.4074,-0.204,-0.2529,0.0116,0.2735,0.2255,0.3382,0.4435,0.4075,0.416,0.4179,0.3834,0.3711,0.0,0.0,0.0,0.0,0.0,0.402,0.4235,0.5381,0.5859,0.6593,0.79,0.876,0.9395,0.9772,1.0031,1.0186,1.0254,1.0326,1.0307,1.017,1.062,1.0608,1.0037,1.0172,1.0333,1.0464,1.0327,1.0534,1.1045,1.1182,1.1231,1.1271,1.1164,1.1002,1.0764,1.0495,1.0253,1.002,0.9719,0.9406,0.9017,0.8259,0.7761,0.7333,1.7635,1.6832,1.6548,1.7725,1.707,1.6506,1.6814,1.7333,1.7613,1.7338,1.8051,1.8509,1.8285,1.7731,1.7061,1.6218,1.5259,1.4386,1.37,1.3525,1.334,1.3159,1.2175,1.1602,1.1497,1.0682,1.0233,1.0194,0.9687,0.9641,0.0,0.0,0.0,0.9769,0.9664,0.9598,0.9547,0.9091,0.8629,0.7952,0.5365,0.2209,-0.0967,-0.1139,-0.2434,-0.453,-0.7287,-0.8074,-0.7856,-0.8248,-0.8122,-0.7956,-0.8882,-0.9114,-0.9002,-0.8857,-0.8207,-0.73,-0.6335,-0.4181,-0.222,-0.2468,0.0,0.2478,0.2431,0.3641,0.4774,0.4765,0.4916,0.4889,0.4365,0.4368,0.0,0.0,0.0,0.0,0.0,0.3984,0.4398,0.557,0.5653,0.6198,0.7592,0.8482,0.906,0.9274,0.9598,0.9969,1.0416,1.059,1.0726,1.0783,1.1138,1.0921,1.0135,1.0241,1.0365,1.0437,1.0252,1.0534,1.1144,1.1132,1.1144,1.1185,1.1126,1.1002,1.0878,1.0659,1.0572,1.0542,1.0271,1.0086,0.9896,0.8999,0.8456,0.7997,1.7433,1.6668,1.6017,1.6081,1.5198,1.4944,1.6309,1.596,1.5717,1.6265,1.621,1.6102,1.6036,1.5499,1.4708,1.3538,1.2453,1.175,1.1555,1.127,1.151,1.2399,1.2027,1.1731,1.1609,1.0673,1.0217,1.0265,1.0175,1.0093,0.0,0.0,0.0,0.0,0.9261,0.9121,0.9259,0.8387,0.6946,0.5037,0.2055,-0.1245,-0.447,-0.5192,-0.5971,-0.7026,-0.981,-0.9881,-0.8777,-0.9625,-0.9335,-0.8762,-0.9721,-1.0123,-1.0169,-0.977,-0.8932,-0.7951,-0.7008,-0.543,-0.3623,-0.1835,-0.06,0.099,0.4068,0.4817,0.5163,0.6212,0.6036,0.5599,0.5349,0.5082,0.4826,0.0,0.0,0.0,0.0,0.441,0.5003,0.5632,0.5711,0.6275,0.7649,0.803,0.8208,0.8194,0.8578,0.919,1.0078,1.0828,1.1136,1.1001,1.171,1.1525,1.0221,1.0413,1.0459,1.0352,1.0561,1.0815,1.1067,1.1308,1.1351,1.1223,1.1223,1.1099,1.0916,1.085,1.085,1.0916,1.0981,1.0905,1.0613,0.9617,0.9131,0.8838,1.6315,1.5421,1.4672,1.4575,1.5291,1.5757,1.5391,1.5683,1.5807,1.5395,1.5214,1.4774,1.3988,1.2661,1.1271,0.9891,0.888,0.8171,0.7817,0.8251,0.9449,1.1456,1.0721,1.1148,1.3021,1.1227,1.0534,1.1084,0.9897,0.9579,1.0061,0.0,0.0,0.0,0.799,0.734,0.6697,0.577,0.365,0.0711,-0.1547,-0.4821,-0.841,-0.9151,-1.0295,-1.1465,-1.1151,-1.0991,-1.0991,-1.1151,-1.0721,-1.0226,-1.1229,-1.1145,-1.0692,-1.0485,-0.9587,-0.8308,-0.6455,-0.4755,-0.3363,-0.273,-0.0632,0.1335,0.1481,0.295,0.4522,0.5302,0.5421,0.5374,0.5243,0.5174,0.4965,0.4508,0.0,0.0,0.4259,0.4275,0.466,0.5645,0.5901,0.6408,0.7474,0.7997,0.8245,0.8198,0.8613,0.9291,1.0261,1.0948,1.1229,1.1081,1.1915,1.1791,1.051,1.0709,1.0863,1.0979,1.0465,1.073,1.1584,1.1064,1.1101,1.1571,1.1309,1.126,1.1325,1.1174,1.1099,1.1136,1.125,1.1314,1.1217,1.0379,1.0077,0.9897,1.5866,1.471,1.3821,1.3821,1.422,1.4455,1.4261,1.491,1.5201,1.4667,1.3521,1.2335,1.1292,0.8863,0.6831,0.5577,0.4808,0.4542,0.4806,0.5115,0.5864,0.7162,0.8073,0.9139,1.0337,1.029,1.0623,1.1365,1.0134,0.9721,1.0088,0.0,0.0,0.0,0.6538,0.5576,0.4379,0.219,-0.0268,-0.2863,-0.5107,-0.7832,0.0,-1.0739,-1.1871,-1.3248,-1.221,-1.2128,-1.2506,-1.2631,-1.2084,-1.1535,-1.2374,-1.1851,-1.0894,-1.0802,-0.9953,-0.86,-0.6841,-0.4938,-0.3303,-0.263,-0.0534,0.1475,0.181,0.3192,0.4587,0.5269,0.5545,0.5563,0.5266,0.5003,0.4795,0.4603,0.4355,0.4328,0.4694,0.4897,0.5254,0.5903,0.6309,0.6711,0.7148,0.7414,0.7577,0.7661,0.8134,0.8876,0.9912,1.0902,1.1474,1.157,1.2251,1.2116,1.1037,1.1239,1.1316,1.1229,1.0967,1.1188,1.1822,1.1336,1.1297,1.1608,1.1496,1.1448,1.1485,1.14,1.1389,1.1538,1.1686,1.1859,1.197,1.1496,1.108,1.0637,1.5567,1.4262,1.3377,1.3544,1.2689,1.2206,1.2846,1.3495,1.3753,1.3344,1.0983,0.8901,0.7696,0.4466,0.2041,0.1153,0.0688,0.0871,0.1857,0.166,0.1524,0.1615,0.4636,0.6306,0.6259,0.8789,1.0305,1.0714,1.0447,0.9899,0.0,0.0,0.0,0.0,0.0,0.3221,0.1673,-0.1805,-0.4241,-0.5949,-0.8286,-1.025,-1.1731,-1.1168,-1.2088,-1.3595,-1.3145,-1.3141,-1.3399,-1.3728,-1.3144,-1.2418,-1.3085,-1.2214,-1.0922,-1.0954,-1.0115,-0.8907,-0.7556,-0.558,-0.3574,-0.2147,-0.0465,0.1346,0.3251,0.4147,0.4803,0.5539,0.5846,0.5823,0.534,0.4808,0.4514,0.473,0.4742,0.4855,0.5224,0.5794,0.6183,0.6221,0.6801,0.0,0.6787,0.663,0.6698,0.6971,0.7462,0.8193,0.9241,1.0632,1.1603,1.2046,1.246,1.2373,1.1707,1.187,1.1763,1.1423,1.1667,1.1844,1.1918,1.1819,1.1708,1.1586,1.1671,1.1645,1.156,1.1564,1.1689,1.1945,1.2174,1.2437,1.2709,1.2627,1.2083,1.1364,1.4467,1.3721,1.3396,1.3421,1.2283,1.1172,1.06,1.0628,1.0277,0.9053,0.6525,0.4035,0.1921,-0.0164,-0.1647,-0.2218,-0.2784,-0.2987,-0.2649,-0.2709,-0.2204,-0.0998,0.1094,0.3586,0.6464,0.8554,0.8974,0.7664,0.982,0.845,0.0,0.0,0.0,0.0,0.0,-0.174,-0.3562,-0.5162,-0.6945,-0.8761,-0.993,-1.1573,-1.3249,-1.2539,-1.3187,-1.4422,-1.4088,-1.3649,-1.3248,-1.3423,-1.271,-1.1941,-1.3036,-1.2225,-1.0933,-1.1156,-1.0506,-0.9284,-0.75,-0.6072,-0.4538,-0.2231,-0.0776,0.0505,0.2126,0.3051,0.3842,0.4856,0.5214,0.5387,0.5518,0.505,0.463,0.4559,0.4726,0.5061,0.5619,0.5843,0.6089,0.6411,0.7179,0.7348,0.6544,0.6448,0.6584,0.6971,0.7245,0.7794,0.8703,0.9836,1.0696,1.1282,1.1834,1.2181,1.2271,1.2175,1.2092,1.1939,1.1923,1.1957,1.2041,1.1819,1.1819,1.2004,1.1859,1.1796,1.1844,1.1811,1.192,1.2102,1.2365,1.2544,1.2709,1.292,1.2906,1.2687,1.4433,1.3904,1.338,1.2457,1.0762,0.8954,0.7212,0.5631,0.4846,0.5381,0.286,0.0076,-0.235,-0.4333,-0.5545,-0.562,-0.5791,-0.5622,-0.5025,-0.564,-0.6125,-0.6353,-0.3668,-0.0893,0.1872,0.5643,0.6888,0.5454,0.7049,0.5174,0.0,0.0353,-0.059,-0.2593,0.0,-0.5472,-0.663,-0.7669,-0.897,-1.0406,-1.1276,-1.2361,-1.3383,-1.2766,-1.3048,-1.3763,-1.3801,-1.3521,-1.3252,-1.4024,-1.3509,-1.2755,-1.3734,-1.2546,-1.0935,-1.1511,-1.0659,-0.9231,-0.8098,-0.6676,-0.5009,-0.29,-0.1419,-0.0075,0.1457,0.2475,0.3295,0.4076,0.4679,0.5176,0.5568,0.5275,0.5122,0.5611,0.556,0.5717,0.6438,0.6641,0.6732,0.671,0.7348,0.7442,0.6532,0.6705,0.6809,0.6658,0.6929,0.7382,0.8098,0.9441,1.0463,1.1025,1.1835,1.2363,1.2556,1.2401,1.2294,1.2258,1.2138,1.2102,1.2138,1.1918,1.1881,1.1993,1.1895,1.1833,1.1856,1.2004,1.2138,1.2294,1.2544,1.2838,1.3082,1.3254,1.3323,1.3315,1.4381,1.3668,1.2654,1.087,0.8658,0.6219,0.3558,0.0505,-0.0759,0.1309,-0.1023,-0.3692,-0.5876,-0.7873,-0.888,-0.8503,-0.8353,-0.7954,-0.725,-0.8374,-0.9761,-1.1267,-0.8137,-0.5451,-0.3484,0.1437,0.3283,0.1891,0.2968,0.0964,-0.3912,-0.426,-0.5302,-0.6906,-0.7686,-0.8337,-0.8911,-0.9678,-1.0676,-1.1805,-1.2417,-1.2952,-1.3329,-1.2846,-1.2872,-1.3247,-1.3582,-1.3672,-1.3757,-1.4759,-1.4299,-1.3399,-1.4072,-1.2668,-1.0897,-1.1541,-1.0555,-0.9159,-0.8569,-0.7162,-0.5461,-0.3825,-0.2252,-0.0732,0.0714,0.1933,0.2917,0.3646,0.4536,0.5261,0.5584,0.5568,0.5751,0.6501,0.6475,0.6583,0.7152,0.7545,0.7617,0.7157,0.7653,0.7645,0.6671,0.7032,0.7117,0.659,0.6747,0.711,0.7666,0.915,1.0255,1.0931,1.1832,1.2401,1.2556,1.2484,1.2472,1.2505,1.234,1.2363,1.2487,1.207,1.1963,1.2068,1.1952,1.1881,1.1844,1.2077,1.2246,1.2401,1.2685,1.3122,1.3569,1.3672,1.3741,1.3731,1.3478,1.1985,1.0394,0.8466,0.5998,0.3277,0.0217,-0.3331,-0.5292,-0.4251,-0.5927,-0.7682,-0.8949,-1.0316,-1.0804,-1.0062,-1.0312,-1.0587,-1.0816,-1.1737,-1.2523,-1.3032,-1.0983,-0.8896,-0.6879,-0.3665,-0.309,-0.5323,-0.2473,-0.396,-0.9408,-0.7861,-0.8275,-1.031,-0.9935,-1.023,-1.1024,-1.1234,-1.2196,-1.3542,-1.3302,-1.3543,-1.3971,-1.3377,-1.3576,-1.4205,-1.4424,-1.4774,-1.5163,-1.5203,-1.3982,-1.2585,-1.3023,-1.2171,-1.0926,-1.0566,-1.0058,-0.9332,-0.8309,-0.7404,-0.6343,-0.4848,-0.329,-0.1794,-0.0365,0.1105,0.2613,0.4107,0.5311,0.5951,0.5506,0.5996,0.6355,0.6045,0.6918,0.7573,0.7397,0.8134,0.8432,0.7785,0.8357,0.8257,0.6911,0.7198,0.7446,0.7395,0.6983,0.7014,0.7666,0.8643,0.9677,1.0688,1.1411,1.1895,1.2138,1.2484,1.2733,1.2839,1.26,1.281,1.3409,1.2366,1.217,1.2589,1.205,1.1847,1.1909,1.2029,1.2138,1.2246,1.265,1.3309,1.4046,1.4239,1.4359,1.4453,1.2893,1.1436,0.9591,0.6471,0.3927,0.0832,-0.3461,-0.6529,-0.8747,-0.9759,-1.085,-1.1782,-1.2364,-1.2681,-1.2469,-1.1603,-1.1628,-1.1814,-1.2061,-1.3311,-1.4252,-1.477,-1.3684,-1.193,-0.9522,-0.6621,-0.6141,-0.8166,-0.673,-0.8602,-1.3541,-1.3231,-1.304,-1.2931,-1.2159,-1.1946,-1.2254,-1.2785,-1.3387,-1.407,-1.4502,-1.4548,-1.4392,-1.4978,-1.4959,-1.4708,-1.5014,-1.5172,-1.5155,-1.4876,-1.4049,-1.3168,-1.3383,-1.2423,-1.1346,-1.1531,-1.0724,-0.9649,-0.9124,-0.8236,-0.7203,-0.5844,-0.4306,-0.2772,-0.1301,0.0291,0.1811,0.3154,0.4613,0.5687,0.5803,0.6003,0.6348,0.684,0.7274,0.7689,0.8065,0.8376,0.8418,0.8095,0.8586,0.8542,0.7498,0.8193,0.8533,0.8137,0.734,0.729,0.824,0.886,0.9614,1.0602,1.1659,1.2413,1.2947,1.3354,1.359,1.3607,1.3322,1.3309,1.357,1.2625,1.2101,1.1986,1.1823,1.1697,1.1623,1.187,1.2041,1.2209,1.2853,1.3594,1.4317,1.4686,1.4814,1.4787,1.2154,1.0418,0.8148,0.4452,0.19,-0.1301,-0.6154,-0.8627,-1.0742,-1.295,-1.4045,-1.4408,-1.3822,-1.3616,-1.3251,-1.2567,-1.2613,-1.2871,-1.3341,-1.4754,-1.5742,-1.6143,-1.5978,-1.4746,-1.2354,-1.0667,-1.0301,-1.129,-1.1392,-1.3082,-1.6268,-1.6429,-1.588,-1.4716,-1.382,-1.3428,-1.3498,-1.4251,-1.4702,-1.5023,-1.5826,-1.5884,-1.5595,-1.6474,-1.6253,-1.5513,-1.588,-1.5797,-1.5478,-1.4964,-1.4511,-1.4137,-1.3741,-1.2739,-1.1767,-1.215,-1.1204,-0.9963,-0.9734,-0.8841,-0.7752,-0.6751,-0.5233,-0.3671,-0.2307,-0.0668,0.0984,0.2447,0.4064,0.5338,0.5844,0.603,0.6358,0.7281,0.7582,0.7941,0.861,0.8713,0.8625,0.8428,0.8715,0.865,0.7907,0.8688,0.9144,0.893,0.8372,0.8319,0.9022,0.9334,0.9962,1.095,1.201,1.2806,1.338,1.3724,1.395,1.4134,1.3796,1.37,1.3848,1.2918,1.2127,1.1556,1.1464,1.1373,1.1335,1.1575,1.1785,1.2027,1.2765,1.3459,1.4173,1.474,1.479,1.4538,1.1176,0.8456,0.5531,0.2301,-0.0157,-0.311,-0.732,-0.9355,-1.1099,-1.3044,-1.4942,-1.5104,-1.2508,-1.265,-1.2849,-1.2718,-1.3234,-1.4063,-1.5197,-1.646,-1.7127,-1.699,-1.773,-1.7376,-1.5683,-1.6651,-1.6693,-1.5714,-1.6847,-1.7388,-1.7358,-1.6301,-1.5728,-1.5556,-1.4738,-1.4605,-1.5011,-1.5608,-1.6192,-1.6705,-1.7251,-1.7618,-1.7817,-1.7575,-1.7236,-1.6894,-1.7099,-1.6968,-1.6542,-1.57,-1.5481,-1.5328,-1.384,-1.2851,-1.2162,-1.1959,-1.1132,-1.0245,-0.9986,-0.8986,-0.7908,-0.7494,-0.6061,-0.449,-0.3412,-0.1798,0.0153,0.2429,0.3966,0.5048,0.5533,0.6083,0.6593,0.6938,0.7835,0.8615,0.8948,0.9226,0.9267,0.8934,0.8833,0.8558,0.7963,0.8326,0.897,0.9813,1.0231,1.0284,0.9919,1.0088,1.0695,1.1844,1.2397,1.2818,1.3115,1.3317,1.3694,1.4177,1.3875,1.4024,1.4525,1.3195,1.2287,1.164,1.0987,1.0878,1.1115,1.118,1.1367,1.1653,1.2186,1.2816,1.3502,1.4303,1.4144,1.3579,0.8578,0.655,0.4107,0.0155,-0.2826,-0.5908,-0.9614,-1.196,-1.3624,-1.4677,-1.5336,-1.5112,-1.3656,-1.43,-1.4658,-1.4245,-1.4502,-1.5048,-1.5933,-1.6914,-1.7703,-1.8221,-1.8118,-1.7956,-1.7753,-1.7531,-1.7266,-1.6886,-1.7909,-1.8497,-1.8676,-1.7471,-1.6764,-1.6519,-1.5703,-1.5678,-1.6244,-1.6569,-1.7202,-1.7961,-1.8531,-1.8641,-1.8606,-1.942,-1.9155,-1.8313,-1.8129,-1.767,-1.694,-1.5828,-1.5293,-1.5022,-1.4577,-1.3773,-1.2963,-1.2779,-1.2236,-1.1546,-1.0802,-1.0033,-0.9258,-0.8256,-0.6722,-0.5156,-0.4224,-0.1848,0.0559,0.1945,0.3339,0.4482,0.5074,0.5902,0.6633,0.7011,0.7844,0.8651,0.925,0.9374,0.9438,0.9508,0.9538,0.9491,0.935,0.9804,1.0262,1.0699,1.0963,1.1044,1.0873,1.1096,1.1468,1.2009,1.2523,1.3095,1.3773,1.4046,1.4352,1.4676,1.4339,1.3817,1.314,1.2518,1.188,1.1185,1.0695,1.0587,1.0714,1.0925,1.1057,1.1276,1.2166,1.2823,1.3326,1.3899,1.4075,1.3888,0.6374,0.4347,0.1891,-0.2138,-0.4743,-0.7539,-1.1151,-1.2929,-1.4193,-1.5105,-1.5206,-1.4902,-1.4281,-1.4853,-1.5157,-1.4816,-1.4928,-1.5301,-1.6031,-1.702,-1.7948,-1.8661,-1.8707,-1.8774,-1.8899,-1.8683,-1.8415,-1.8076,-1.887,-1.9313,-1.9425,-1.8399,-1.7968,-1.8006,-1.6981,-1.6979,-1.7785,-1.7844,-1.832,-1.9107,-1.9767,-1.9999,-2.003,-2.0552,-2.0199,-1.9334,-1.8805,-1.8242,-1.7543,-1.6373,-1.5886,-1.5728,-1.5298,-1.4676,-1.4052,-1.3682,-1.3154,-1.2427,-1.139,-1.0625,-0.9777,-0.8483,-0.6928,-0.5325,-0.3758,-0.1397,0.0726,0.1653,0.2955,0.4227,0.5069,0.583,0.6608,0.7341,0.8007,0.8723,0.9544,0.9476,0.9459,0.9801,0.9801,0.9823,0.9955,1.0528,1.092,1.1015,1.1607,1.1885,1.1735,1.2139,1.2538,1.2892,1.3066,1.3505,1.4293,1.4048,1.4114,1.449,1.39,1.3244,1.2513,1.1981,1.1492,1.0974,1.046,1.0249,1.0331,1.043,1.0601,1.086,1.1664,1.2318,1.2803,1.3276,1.3373,1.3187,0.4334,0.1852,-0.0893,-0.45,-0.624,-0.8357,-1.1998,-1.2782,-1.3379,-1.4784,-1.4818,-1.4676,-1.457,-1.4588,-1.4653,-1.4663,-1.4716,-1.5047,-1.5695,-1.6905,-1.7876,-1.8487,-1.939,-1.9706,-1.9364,-2.0037,-2.0052,-1.936,-1.9858,-2.0026,-1.9876,-1.924,-1.9291,-1.9854,-1.8439,-1.8458,-1.9509,-1.936,-1.9626,-2.0194,-2.0945,-2.1507,-2.184,-2.1043,-2.0495,-2.0033,-1.9147,-1.8626,-1.8202,-1.7171,-1.7013,-1.7076,-1.5976,-1.5507,-1.5208,-1.4606,-1.3852,-1.2953,-1.186,-1.0794,-0.9667,-0.8314,-0.6854,-0.5055,-0.2412,-0.0698,0.059,0.1505,0.289,0.4246,0.5421,0.5916,0.6594,0.789,0.8336,0.8833,0.9738,0.9565,0.9497,0.9945,0.9895,0.9899,1.0089,1.0708,1.1075,1.1069,1.2163,1.2733,1.2476,1.3168,1.3753,1.4169,1.3853,1.3937,1.4572,1.3522,1.3249,1.3663,1.2755,1.2361,1.2413,1.1516,1.1079,1.0901,1.0169,0.9933,1.0,0.9875,1.0067,1.0469,1.0884,1.1415,1.2058,1.2508,1.2287,1.1747,0.019,-0.091,-0.2483,-0.6823,-0.8987,-1.0831,-1.2864,-1.4809,-1.612,-1.6286,-1.621,-1.6037,-1.5857,-1.5401,-1.521,-1.5362,-1.537,-1.5665,-1.6289,-1.7157,-1.7976,-1.8712,-1.9281,-2.0021,-2.0943,-2.0547,-2.0565,-2.103,-2.1104,-2.1378,-2.1813,-2.0737,-2.0549,-2.1025,-1.9468,-1.9539,-2.0822,-2.0428,-2.0701,-2.1397,-2.1574,-2.1905,-2.2186,-2.1441,-2.0916,-2.0414,-1.9407,-1.866,-1.8076,-1.7394,-1.7124,-1.6955,-1.6262,-1.5909,-1.5637,-1.4968,-1.4498,-1.3862,-1.2481,-1.1624,-1.0766,-0.92,-0.7152,-0.4836,-0.2319,-0.0948,0.0153,0.1509,0.2965,0.4368,0.5664,0.6407,0.7115,0.8092,0.8582,0.8996,0.9605,1.0157,1.0598,1.0847,1.1521,1.2057,1.2263,1.2021,1.206,1.2604,1.2375,1.2468,1.3068,1.3788,1.4149,1.4121,1.3506,1.3465,1.4045,1.3379,1.2865,1.2642,1.2014,1.1417,1.0931,1.0525,1.0383,1.0359,0.9806,0.986,1.0233,1.0152,1.0328,1.077,1.125,1.1701,1.2025,1.2138,1.2149,1.2133,-0.3911,-0.5329,-0.7048,-1.0931,-1.2593,-1.3803,-1.4981,-1.6262,-1.7003,-1.6705,-1.6566,-1.6441,-1.6173,-1.6098,-1.6114,-1.6275,-1.6178,-1.6126,-1.6219,-1.7485,-1.8423,-1.883,-1.9767,-2.068,-2.1571,-2.1195,-2.1191,-2.1643,-2.1989,-2.2292,-2.2569,-2.1765,-2.1682,-2.217,-2.0675,-2.0744,-2.1945,-2.123,-2.1317,-2.193,-2.1903,-2.2152,-2.2407,-2.1285,-2.0811,-2.06,-1.9147,-1.8448,-1.8121,-1.7618,-1.7453,-1.7336,-1.6712,-1.6388,-1.6099,-1.5566,-1.5043,-1.4314,-1.2788,-1.2013,-1.1001,-0.8491,-0.6419,-0.4389,-0.2142,-0.0638,0.0659,0.1973,0.3493,0.5009,0.6422,0.7074,0.7679,0.8685,0.9139,0.9492,0.9876,1.0594,1.1229,1.1622,1.2195,1.2664,1.2925,1.2737,1.2641,1.2733,1.264,1.265,1.2836,1.3503,1.3989,1.4237,1.3326,1.3161,1.3744,1.2726,1.1989,1.1543,1.0938,1.051,1.0174,1.0031,0.993,0.9914,0.9779,0.9803,1.0011,0.9968,1.0256,1.0714,1.106,1.1635,1.2188,1.2099,1.2203,1.2224,-0.8824,-1.0647,-1.2446,-1.5427,-1.6257,-1.6689,-1.729,-1.7388,-1.7287,-1.6865,-1.6774,-1.6664,-1.6507,-1.6878,-1.7174,-1.734,-1.7215,-1.6879,-1.6351,-1.8054,-1.9119,-1.9202,-2.0582,-2.1573,-2.2036,-2.2127,-2.209,-2.19,-2.2707,-2.3048,-2.292,-2.2589,-2.2773,-2.3293,-2.1914,-2.191,-2.282,-2.1918,-2.1756,-2.2145,-2.2094,-2.233,-2.2531,-2.1034,-2.0657,-2.0648,-1.9005,-1.8426,-1.836,-1.7878,-1.7864,-1.7888,-1.7033,-1.6629,-1.6398,-1.5976,-1.5255,-1.4342,-1.2942,-1.1901,-1.0439,-0.7165,-0.5364,-0.391,-0.1823,-0.0038,0.1481,0.2718,0.4227,0.5766,0.7233,0.7739,0.8276,0.9266,0.9757,1.0091,1.0281,1.0966,1.165,1.217,1.2542,1.2826,1.3109,1.3219,1.3067,1.2566,1.2924,1.2956,1.2464,1.2902,1.343,1.3994,1.3064,1.2719,1.3114,1.1789,1.0898,1.0479,0.9881,0.959,0.9644,0.9549,0.9473,0.9426,0.9678,0.9758,0.974,0.9834,1.017,1.063,1.0895,1.1573,1.2427,1.2324,1.2324,1.2314,-1.6449,-1.6073,-1.5257,-1.7882,-1.8607,-1.853,-1.776,-1.8432,-1.8863,-1.833,-1.8316,-1.8412,-1.8587,-1.8041,-1.7898,-1.8418,-1.8852,-1.8812,-1.82,-1.9258,-2.0122,-2.0565,-2.1574,-2.2596,-2.3616,-2.3813,-2.3549,-2.28,-2.3666,-2.4042,-2.3964,-2.3688,-2.3907,-2.4454,-2.3014,-2.2689,-2.3189,-2.2695,-2.2411,-2.2257,-2.2338,-2.2477,-2.2596,-2.1653,-2.1077,-2.066,-2.0089,-1.9497,-1.8887,-1.8377,-1.8182,-1.7941,-1.6565,-1.6039,-1.5815,-1.5299,-1.4537,-1.3723,-1.3111,-1.1053,-0.86,-0.6495,-0.5052,-0.3541,-0.1129,0.0386,0.1778,0.3531,0.4694,0.5832,0.7311,0.8129,0.868,0.9005,0.9959,1.0586,1.0324,1.1363,1.2234,1.2418,1.3525,1.4256,1.4256,1.3919,1.3835,1.4122,1.3076,1.2637,1.3044,1.2765,1.2483,1.2193,1.1972,1.1537,1.0915,1.0536,1.0188,0.9835,0.9299,0.8795,0.8381,0.8148,0.8238,0.8593,0.899,0.9457,0.9967,1.037,1.0797,1.1195,1.1715,1.2143,1.2531,1.2735,1.2725,1.2628,-1.7683,-1.8389,-1.8684,-2.0287,-2.1013,-2.1049,-2.001,-1.9965,-1.9819,-1.9165,-1.8898,-1.8841,-1.8962,-1.9153,-1.9429,-1.9851,-2.0384,-2.0678,-2.0655,-2.0755,-2.094,-2.1261,-2.2266,-2.322,-2.4045,-2.4644,-2.4518,-2.3644,-2.4569,-2.4969,-2.4904,-2.4709,-2.4716,-2.4866,-2.3915,-2.3581,-2.3635,-2.3154,-2.2848,-2.2643,-2.2504,-2.2559,-2.2593,-2.1615,-2.1207,-2.1073,-2.0238,-1.9732,-1.9336,-1.8532,-1.8302,-1.8183,-1.6776,-1.6452,-1.6391,-1.5217,-1.3958,-1.2704,-1.1775,-0.9849,-0.7601,-0.5608,-0.3974,-0.2256,0.0075,0.1517,0.2847,0.4461,0.5588,0.6695,0.8094,0.8755,0.9209,0.9695,1.0344,1.0818,1.0825,1.1775,1.2562,1.2806,1.3651,1.4214,1.4181,1.4065,1.3947,1.3861,1.3229,1.2758,1.2621,1.2281,1.1786,1.1177,1.1035,1.0347,0.8997,0.9349,0.9246,0.8731,0.835,0.8085,0.7947,0.7804,0.7974,0.8429,0.8892,0.9336,0.9732,1.0154,1.0683,1.126,1.1687,1.2243,1.2724,1.3027,1.3086,1.2978,-1.8365,-2.0266,-2.1721,-2.2385,-2.3061,-2.3082,-2.1843,-2.114,-2.0587,-2.0035,-1.9491,-1.9288,-1.959,-2.0161,-2.0679,-2.1118,-2.1529,-2.2018,-2.26,-2.2166,-2.1958,-2.2136,-2.3126,-2.3898,-2.435,-2.5058,-2.5027,-2.4185,-2.5113,-2.5446,-2.5225,-2.5303,-2.527,-2.5058,-2.4629,-2.4293,-2.4023,-2.3531,-2.3175,-2.297,-2.2674,-2.262,-2.261,-2.1678,-2.1464,-2.1495,-2.0565,-2.0154,-1.9877,-1.8697,-1.8534,-1.8513,-1.7008,-1.6818,-1.6819,-1.523,-1.3289,-1.1384,-1.0175,-0.8455,-0.6581,-0.4668,-0.2725,-0.0762,0.1184,0.2695,0.4011,0.5326,0.6446,0.751,0.8627,0.9215,0.9669,1.012,1.0664,1.1123,1.1365,1.2175,1.2814,1.3069,1.3535,1.3835,1.3735,1.3789,1.3661,1.3241,1.2938,1.2537,1.1906,1.145,1.0795,0.9899,0.9888,0.918,0.7675,0.8255,0.8306,0.7811,0.751,0.7394,0.7482,0.7422,0.7593,0.8063,0.858,0.8978,0.9302,0.9784,1.0375,1.1082,1.1582,1.2241,1.2897,1.3134,1.3224,1.3204,-2.1743,-2.2994,-2.3741,-2.3928,-2.4215,-2.3745,-2.1824,-2.1383,-2.1265,-2.1332,-2.0528,-2.0415,-2.1734,-2.1057,-2.0862,-2.1857,-2.1955,-2.2354,-2.3259,-2.3338,-2.3462,-2.3702,-2.4409,-2.4892,-2.5107,-2.5196,-2.485,-2.4114,-2.5046,-2.5125,-2.4406,-2.5147,-2.5443,-2.5367,-2.5009,-2.4601,-2.4155,-2.381,-2.3414,-2.2985,-2.2779,-2.2685,-2.2679,-2.2453,-2.2117,-2.1717,-2.1809,-2.1396,-2.06,-1.9145,-1.8966,-1.9012,-1.6948,-1.6521,-1.6459,-1.5015,-1.2408,-0.977,-0.8816,-0.6935,-0.4988,-0.3837,-0.1593,0.0651,0.1785,0.3403,0.5001,0.6032,0.7041,0.7851,0.8265,0.9198,0.9803,0.9592,1.0764,1.1705,1.1694,1.2462,1.306,1.3094,1.3446,1.3568,1.3195,1.3079,1.2984,1.2913,1.1886,1.1248,1.1281,1.0258,0.908,0.7766,0.82,0.808,0.7226,0.7407,0.7544,0.7511,0.7115,0.6804,0.656,0.6206,0.6336,0.6865,0.7416,0.8114,0.8883,0.9555,1.019,1.0818,1.173,1.2324,1.2715,1.2894,1.3026,1.2992,-2.201,-2.3086,-2.3824,-2.3914,-2.3988,-2.3855,-2.3254,-2.2817,-2.2353,-2.1855,-2.1698,-2.1605,-2.1592,-2.1929,-2.2229,-2.2601,-2.3027,-2.3438,-2.375,-2.4456,-2.4651,-2.4155,-2.4666,-2.4974,-2.5,-2.5182,-2.512,-2.4839,-2.5286,-2.5352,-2.5109,-2.5467,-2.5568,-2.5459,-2.515,-2.4905,-2.467,-2.4246,-2.3862,-2.3526,-2.32,-2.2972,-2.2791,-2.262,-2.238,-2.2131,-2.204,-2.1773,-2.1222,-1.9716,-1.928,-1.9055,-1.7385,-1.678,-1.6249,-1.4246,-1.1754,-0.9221,-0.7389,-0.566,-0.3999,-0.2447,-0.0386,0.1706,0.3286,0.4454,0.5632,0.7078,0.7797,0.8319,0.8841,0.9387,0.9867,1.0136,1.0798,1.1413,1.1943,1.253,1.2885,1.285,1.3012,1.2918,1.2413,1.2187,1.1954,1.1627,1.0904,1.027,0.9751,0.8622,0.753,0.6458,0.6696,0.6849,0.6775,0.6864,0.6876,0.6815,0.6368,0.6176,0.6197,0.5831,0.5902,0.6415,0.6998,0.7576,0.8196,0.889,0.9828,1.0798,1.1127,1.2066,1.3123,1.2991,1.2995,1.2995,-2.2619,-2.3375,-2.4044,-2.398,-2.3792,-2.3732,-2.3739,-2.3275,-2.2681,-2.2026,-2.1949,-2.1837,-2.1404,-2.2126,-2.2747,-2.2959,-2.3556,-2.4028,-2.4278,-2.4949,-2.5203,-2.4864,-2.5141,-2.5205,-2.4987,-2.5394,-2.5501,-2.5264,-2.5387,-2.5505,-2.5576,-2.5662,-2.5644,-2.5509,-2.501,-2.4874,-2.4991,-2.4294,-2.4007,-2.3958,-2.3629,-2.3336,-2.3074,-2.2911,-2.2799,-2.2668,-2.2347,-2.2136,-2.1807,-2.0328,-1.9767,-1.9381,-1.7858,-1.6752,-1.5591,-1.378,-1.1552,-0.9198,-0.713,-0.5214,-0.337,-0.1369,0.0708,0.2667,0.4278,0.5324,0.6359,0.7772,0.8199,0.8473,0.8956,0.9337,0.9744,1.0322,1.0764,1.1282,1.2102,1.2544,1.2768,1.2662,1.2591,1.2246,1.1579,1.1185,1.0787,1.0307,0.9572,0.8708,0.7704,0.6961,0.6215,0.5473,0.5596,0.5737,0.5891,0.6079,0.6154,0.605,0.5695,0.5539,0.5664,0.5428,0.5494,0.5882,0.6426,0.6972,0.7503,0.8209,0.9205,1.0355,1.0837,1.1842,1.2946,1.3055,1.2963,1.2846,-2.4119,-2.4371,-2.4541,-2.4334,-2.3822,-2.3319,-2.2855,-2.2372,-2.1995,-2.1798,-2.109,-2.085,-2.1435,-2.1612,-2.2047,-2.282,-2.3274,-2.3911,-2.482,-2.4709,-2.5032,-2.6061,-2.6045,-2.574,-2.5199,-2.5926,-2.5932,-2.5192,-2.534,-2.5434,-2.5499,-2.5636,-2.5654,-2.5543,-2.4542,-2.4475,-2.5014,-2.3885,-2.3705,-2.4191,-2.3986,-2.3735,-2.3494,-2.3413,-2.3395,-2.336,-2.2865,-2.2617,-2.2302,-2.1028,-2.049,-2.0102,-1.8338,-1.6341,-1.4484,-1.3802,-1.188,-0.9691,-0.8194,-0.5782,-0.3153,-0.0801,0.1508,0.3447,0.4464,0.5861,0.7162,0.8006,0.8198,0.8259,0.8472,0.8918,0.9448,0.9941,1.0725,1.1494,1.209,1.2544,1.2733,1.2508,1.2126,1.1579,1.0753,1.0011,0.9479,0.9225,0.7795,0.6431,0.5245,0.5393,0.5201,0.4616,0.4793,0.4784,0.4522,0.5011,0.5281,0.5277,0.5179,0.5014,0.4897,0.4901,0.4959,0.5124,0.5614,0.6209,0.6961,0.7605,0.8408,0.9372,1.098,1.178,1.21,1.2894,1.2937,1.2555,-2.4139,-2.3784,-2.3614,-2.3778,-2.2279,-2.1126,-2.1364,-2.1025,-2.057,-2.0243,-2.101,-2.1561,-2.1445,-2.2161,-2.2813,-2.3083,-2.3448,-2.3815,-2.4247,-2.4377,-2.4676,-2.516,-2.5163,-2.511,-2.4999,-2.5292,-2.5378,-2.5209,-2.5376,-2.5461,-2.5437,-2.556,-2.5288,-2.4661,-2.4374,-2.4333,-2.4445,-2.3948,-2.4143,-2.4738,-2.4398,-2.4118,-2.3899,-2.37,-2.3526,-2.3364,-2.3088,-2.283,-2.2493,-2.1491,-2.0647,-1.9609,-1.7548,-1.6167,-1.5116,-1.4222,-1.2562,-1.0699,-0.8958,-0.6753,-0.4183,-0.1142,0.1146,0.3168,0.4918,0.6085,0.7085,0.8182,0.8407,0.8431,0.8472,0.8805,0.9159,0.946,1.0167,1.0905,1.1616,1.1982,1.209,1.1872,1.1435,1.0864,1.0128,0.9327,0.8496,0.7702,0.6007,0.4766,0.4197,0.3988,0.3819,0.3758,0.3816,0.3857,0.3884,0.4493,0.4791,0.4739,0.4912,0.4843,0.4629,0.4741,0.4844,0.5011,0.5454,0.6133,0.6865,0.7421,0.8595,1.0084,1.0311,1.1295,1.2547,1.251,1.2527,1.2535,-2.3061,-2.2815,-2.2613,-2.2461,-2.1613,-2.1023,-2.1201,-2.1119,-2.0824,-2.0147,-2.0939,-2.1452,-2.1066,-2.2067,-2.2766,-2.2886,-2.3431,-2.3753,-2.3774,-2.4135,-2.4445,-2.4645,-2.4695,-2.4802,-2.4985,-2.5374,-2.5461,-2.5239,-2.5415,-2.5464,-2.5401,-2.5518,-2.5279,-2.4797,-2.4458,-2.4452,-2.4682,-2.4231,-2.4438,-2.5041,-2.4762,-2.4491,-2.4247,-2.4096,-2.3881,-2.3671,-2.3512,-2.3259,-2.2875,-2.2135,-2.0964,-1.95,-1.7715,-1.6701,-1.5996,-1.4873,-1.3474,-1.1868,-0.9969,-0.7644,-0.5107,-0.2253,0.0349,0.2775,0.4919,0.6027,0.6859,0.7897,0.8021,0.7979,0.8234,0.8561,0.8918,0.9332,1.005,1.0715,1.1356,1.1616,1.1653,1.1356,1.0885,1.0263,0.9372,0.8535,0.7458,0.597,0.4438,0.342,0.3038,0.2851,0.2756,0.2759,0.2941,0.3049,0.3138,0.3787,0.4195,0.4356,0.4587,0.4637,0.4467,0.4676,0.4827,0.4978,0.5389,0.6021,0.6726,0.7182,0.8275,0.9663,0.9994,1.0894,1.1958,1.2189,1.2318,1.2332,-2.1289,-2.1545,-2.169,-2.0814,-2.1569,-2.2221,-2.1831,-2.2015,-2.1829,-2.0889,-2.087,-2.0801,-2.0586,-2.1499,-2.2164,-2.2297,-2.3173,-2.3624,-2.3399,-2.3901,-2.4284,-2.4389,-2.453,-2.4738,-2.5069,-2.5806,-2.59,-2.5282,-2.544,-2.5468,-2.5395,-2.5473,-2.551,-2.545,-2.4654,-2.4711,-2.5343,-2.4533,-2.4597,-2.5205,-2.5056,-2.4818,-2.4545,-2.4512,-2.4357,-2.4132,-2.4036,-2.3735,-2.3293,-2.2691,-2.1312,-1.9641,-1.8493,-1.7627,-1.6845,-1.5756,-1.4514,-1.3087,-1.1134,-0.8618,-0.6044,-0.3891,-0.0906,0.2059,0.441,0.5669,0.6526,0.7238,0.7168,0.7147,0.7704,0.8111,0.8626,0.9341,1.0128,1.0753,1.1159,1.1319,1.1255,1.0878,1.0428,0.9725,0.861,0.7701,0.6261,0.4158,0.312,0.236,0.1928,0.1866,0.1803,0.1681,0.2126,0.2353,0.2363,0.2935,0.3498,0.4,0.4262,0.4381,0.4357,0.4745,0.4941,0.5011,0.5434,0.6027,0.6629,0.6989,0.7674,0.8664,0.9897,1.0476,1.0726,1.1943,1.2221,1.2046,-2.0547,-2.1024,-2.1481,-2.1142,-2.0971,-2.0874,-2.077,-2.0217,-1.981,-1.9712,-1.9957,-2.0411,-2.1042,-2.1383,-2.16,-2.16,-2.2099,-2.262,-2.3117,-2.3401,-2.3785,-2.4357,-2.4426,-2.4607,-2.4926,-2.5177,-2.5265,-2.5228,-2.5401,-2.5471,-2.5395,-2.5525,-2.5218,-2.4574,-2.4384,-2.4436,-2.4628,-2.4313,-2.4676,-2.5421,-2.5175,-2.5,-2.4879,-2.465,-2.4466,-2.4302,-2.4075,-2.3726,-2.3115,-2.1278,-2.0488,-2.0019,-1.8625,-1.756,-1.6796,-1.6539,-1.5146,-1.344,-1.2491,-1.0153,-0.758,-0.5704,-0.321,-0.0346,0.315,0.4857,0.5891,0.6505,0.6635,0.6719,0.7034,0.7349,0.775,0.8415,0.9262,1.0011,1.0524,1.0611,1.0572,1.0428,0.9597,0.8865,0.8458,0.6504,0.4666,0.3113,0.2034,0.1301,0.1028,0.0709,0.0782,0.1198,0.1303,0.1558,0.1981,0.2523,0.2984,0.3324,0.4001,0.4185,0.4058,0.4718,0.5092,0.5129,0.575,0.6339,0.6832,0.7198,0.7931,0.8884,0.946,1.0091,1.077,1.1334,1.1618,1.1744,-1.9608,-2.0169,-2.0765,-2.0614,-2.1099,-2.1488,-2.1521,-2.1445,-2.1193,-2.0599,-2.0628,-2.0837,-2.1203,-2.1124,-2.114,-2.1433,-2.1794,-2.2248,-2.2822,-2.3147,-2.3574,-2.4172,-2.4302,-2.4662,-2.5367,-2.5132,-2.5091,-2.525,-2.5395,-2.5453,-2.5453,-2.5524,-2.5318,-2.4871,-2.4915,-2.495,-2.4972,-2.4892,-2.5106,-2.5486,-2.5284,-2.5106,-2.4926,-2.4757,-2.4601,-2.4467,-2.4229,-2.3806,-2.3102,-2.1437,-2.0945,-2.0737,-1.9065,-1.8235,-1.7656,-1.6691,-1.5448,-1.409,-1.2617,-1.0572,-0.8421,-0.6609,-0.4235,-0.1481,0.1876,0.3502,0.45,0.5089,0.5677,0.6161,0.6258,0.6833,0.7495,0.8129,0.8981,0.9628,0.9825,1.0079,1.0088,0.9725,0.8958,0.797,0.6734,0.4727,0.3113,0.2087,0.0988,0.0319,0.0131,-0.0132,-0.0066,0.0336,0.0596,0.0927,0.1345,0.2084,0.2583,0.2766,0.3708,0.4167,0.411,0.469,0.5105,0.5359,0.5771,0.6392,0.7078,0.7254,0.7822,0.8696,0.9215,0.9734,1.0221,1.076,1.1066,1.1262,-1.8875,-1.9571,-2.0259,-2.0083,-2.1614,-2.2828,-2.277,-2.3406,-2.3371,-2.193,-2.168,-2.1521,-2.1218,-2.0852,-2.0828,-2.1339,-2.1705,-2.2108,-2.2538,-2.3119,-2.3679,-2.4198,-2.4541,-2.5114,-2.593,-2.5625,-2.5528,-2.5713,-2.5514,-2.5526,-2.572,-2.558,-2.5505,-2.5518,-2.559,-2.5605,-2.5611,-2.5598,-2.5652,-2.5705,-2.5582,-2.5459,-2.5338,-2.5286,-2.517,-2.5028,-2.467,-2.4032,-2.3216,-2.2141,-2.1797,-2.1512,-1.9809,-1.9215,-1.8796,-1.7052,-1.5953,-1.4843,-1.2746,-1.0835,-0.9011,-0.7443,-0.5052,-0.2374,0.0263,0.1844,0.295,0.3514,0.4535,0.5346,0.5384,0.6277,0.7245,0.7949,0.8731,0.9239,0.9199,0.9448,0.9439,0.8837,0.8089,0.678,0.4571,0.2948,0.1721,0.1031,0.0063,-0.0586,-0.0666,-0.0871,-0.0807,-0.0605,0.0,0.0471,0.074,0.1615,0.2154,0.2356,0.3293,0.3894,0.4167,0.4564,0.5027,0.5477,0.5743,0.627,0.7093,0.723,0.7603,0.8213,0.8948,0.9322,0.9481,1.0134,1.0467,1.0571,-1.9246,-2.0374,-2.1361,-2.0877,-2.244,-2.3615,-2.3049,-2.3505,-2.3413,-2.1973,-2.1744,-2.156,-2.1259,-2.0933,-2.0827,-2.0893,-2.1308,-2.182,-2.2395,-2.3476,-2.4397,-2.5087,-2.5983,-2.6339,-2.6079,-2.6898,-2.735,-2.7381,-2.6101,-2.589,-2.6612,-2.5848,-2.5531,-2.5595,-2.5591,-2.5621,-2.5683,-2.5623,-2.6002,-2.6618,-2.6477,-2.6756,-2.7234,-2.7172,-2.7055,-2.6811,-2.5849,-2.4706,-2.348,-2.2478,-2.2216,-2.2133,-2.113,-2.0299,-1.9578,-1.8931,-1.7326,-1.5496,-1.4493,-1.2277,-0.9993,-0.9077,-0.6886,-0.4452,-0.2631,-0.0132,0.1981,0.2584,0.3334,0.3997,0.4387,0.5173,0.6076,0.7029,0.775,0.8349,0.8716,0.8496,0.8146,0.7844,0.6349,0.4698,0.3115,0.2003,0.0931,-0.0118,-0.0686,-0.1096,-0.1361,-0.146,-0.1344,-0.1008,-0.0605,-0.0135,0.0337,0.1076,0.1614,0.1951,0.2552,0.3157,0.3632,0.4295,0.4761,0.496,0.5602,0.6133,0.6531,0.6953,0.725,0.7519,0.8393,0.8707,0.8804,0.9307,0.9604,0.97,-2.1014,-2.1649,-2.2427,-2.2822,-2.3849,-2.4621,-2.4664,-2.4317,-2.3628,-2.2618,-2.1811,-2.1283,-2.1061,-2.1166,-2.1291,-2.1401,-2.1718,-2.2108,-2.2625,-2.3692,-2.4622,-2.5314,-2.632,-2.7045,-2.7497,-2.7637,-2.8171,-2.9136,-2.7644,-2.687,-2.6792,-2.6889,-2.674,-2.6334,-2.6376,-2.6401,-2.6382,-2.5847,-2.5788,-2.6107,-2.6457,-2.6757,-2.702,-2.7409,-2.7494,-2.733,-2.6672,-2.5926,-2.5078,-2.3884,-2.3464,-2.3163,-2.1518,-2.0598,-1.9991,-1.9184,-1.7746,-1.614,-1.5147,-1.3196,-1.1136,-0.9752,-0.7769,-0.5769,-0.4293,-0.2201,-0.0132,0.1559,0.2466,0.3181,0.3833,0.4663,0.5561,0.6446,0.6952,0.7335,0.7648,0.737,0.6713,0.5525,0.4142,0.2716,0.1258,0.0337,-0.041,-0.0998,-0.1494,-0.1804,-0.1804,-0.1855,-0.1749,-0.1412,-0.0807,-0.0336,-0.0067,0.0673,0.1143,0.148,0.2017,0.2622,0.3362,0.3892,0.4359,0.4694,0.5223,0.569,0.6148,0.6526,0.681,0.7063,0.7703,0.8154,0.8419,0.8586,0.8755,0.8761]},{"header":{"parameterUnit":"m.s-1","parameterCategory":1,"la1":30.6,"la2":28.766,"lo1":-90.7593,"lo2":-88.6598,"dy":0.0162,"dx":0.0183,"nx":116,"ny":114,"refTime":"2023-04-08T12:00:00:Z","depth":0,"parameterNumber":3,"parameterNumberName":"V-component_of_WINDS"},"data":[0.0,0.0,0.0,0.0,0.0,0.0,0.0,0.0,0.0,0.0,0.0,0.0,0.0,0.0,0.0,0.0,0.0,0.0,0.0,0.0,0.0,0.0,0.0,0.0,0.0,0.0,0.0,0.0,0.0,0.0,0.0,0.0,0.0,0.0,0.0,0.0,0.0,0.0,0.0,0.0,0.0,0.0,0.0,0.0,0.0,0.0,0.0,0.0,0.0,0.0,0.0,0.0,0.0,0.0,0.0,0.0,0.0,0.0,0.0,0.0,0.0,0.0,0.0,0.0,0.0,0.0,0.0,0.0,0.0,0.0,0.0,0.0,0.0,0.0,0.0,0.0,0.0,0.0,0.0,0.0,0.0,0.0,0.0,0.0,0.0,0.0,0.0,0.0,0.0,0.0,0.0,0.0,0.0,0.0,0.0,0.0,0.0,0.0,0.0,0.0,0.0,0.0,0.0,0.0,0.0,0.0,0.0,0.0,0.0,0.0,0.0,0.0,0.0,0.0,0.0,0.0,0.0,0.0,0.0,0.0,0.0,0.0,0.0,0.0,0.0,0.0,0.0,0.0,0.0,0.0,0.0,0.0,0.0,0.0,0.0,0.0,0.0,0.0,0.0,0.0,0.0,0.0,0.0,0.0,0.0,0.0,0.0,0.0,0.0,0.0,0.0,0.0,0.0,0.0,0.0,0.0,0.0,0.0,0.0,0.0,0.0,0.0,0.0,0.0,0.0,0.0,0.0,0.0,0.0,0.0,0.0,0.0,0.0,0.0,0.0,0.0,0.0,0.0,0.0,0.0,0.0,0.0,0.0,0.0,0.0,0.0,0.0,0.0,0.0,0.0,0.0,0.0,0.0,0.0,0.0,0.0,0.0,0.0,0.0,0.0,0.0,0.0,0.0,0.0,0.0,0.0,0.0,0.0,0.0,0.0,0.0,0.0,0.0,0.0,0.0,0.0,0.0,0.0,0.0,0.0,0.0,0.0,0.0,0.0,0.0,0.0,0.0,0.0,0.0,0.0,0.0,0.0,0.0,0.0,0.0,0.0,0.0,0.0,0.0,0.0,0.0,0.0,0.0,0.0,0.0,0.0,0.0,0.0,0.0,0.0,0.0,0.0,0.0,0.0,0.0,0.0,0.0,0.0,0.0,0.0,0.0,0.0,0.0,0.0,0.0,0.0,0.0,0.0,0.0,0.0,0.0,0.0,0.0,0.0,0.0,0.0,0.0,0.0,0.0,0.0,0.0,0.0,0.0,0.0,0.0,0.0,0.0,0.0,0.0,0.0,0.0,0.0,0.0,0.0,0.0,0.0,0.0,0.0,0.0,0.0,0.0,0.0,0.0,0.0,0.0,0.0,0.0,0.0,0.0,0.0,0.0,0.0,0.0,0.0,0.0,0.0,0.0,0.0,0.0,0.0,0.0,0.0,0.0,0.0,0.0,0.0,0.0,0.0,0.0,0.0,0.0,0.0,0.0,0.0,0.0,0.0,0.0,0.0,0.0,0.0,0.0,0.0,0.0,0.0,0.0,0.0,0.0,0.0,0.0,0.0,0.0,0.0,0.0,0.0,0.0,0.0,0.0,0.0,0.0,0.0,0.0,0.0,0.0,0.0,0.0,0.0,0.0,0.0,0.0,0.0,0.0,0.0,0.0,0.0,0.0,0.0,0.0,0.0,0.0,0.0,0.0,0.0,0.0,0.0,0.0,0.0,0.0,0.0,0.0,0.0,0.0,0.0,0.0,0.0,0.0,0.0,0.0,0.0,0.0,0.0,0.0,0.0,0.0,0.0,0.0,0.0,0.0,0.0,0.0,0.0,0.0,0.0,0.0,0.0,0.0,0.0,0.0,0.0,0.0,0.0,0.0,0.0,0.0,0.0,0.0,0.0,0.0,0.0,0.0,0.0,0.0,0.0,0.0,0.0,0.0,0.0,0.0,0.0,0.0,0.0,0.0,0.0,0.0,0.0,0.0,0.0,0.0,0.0,0.0,0.0,0.0,0.0,0.0,0.0,0.0,0.0,0.0,0.0,0.0,0.0,0.0,0.0,0.0,0.0,0.0,0.0,0.0,0.0,0.0,0.0,0.0,0.0,0.0,0.0,0.0,0.0,0.0,0.0,0.0,0.0,0.0,0.0,0.0,0.0,0.0,0.0,0.0,0.0,0.0,0.0,0.0,0.0,0.0,0.0,0.0,0.0,0.0,0.0,0.0,0.0,0.0,0.0,0.0,0.0,0.0,0.0,0.0,0.0,0.0,0.0,0.0,0.0,0.0,0.0,0.0,0.0,0.0,0.0,0.0,0.0,0.0,0.0,0.0,0.0,0.0,0.0,0.0,0.0,0.0,0.0,0.0,0.0,0.0,0.0,0.0,0.0,0.0,0.0,0.0,0.0,0.0,0.0,0.0,0.0,0.0,0.0,0.0,0.0,0.0,0.0,0.0,0.0,0.0,0.0,0.0,0.0,0.0,0.0,0.0,0.0,0.0,0.0,0.0,0.0,0.0,0.0,0.0,0.0,0.0,0.0,0.0,0.0,0.0,0.0,0.0,0.0,0.0,0.0,0.0,0.0,0.0,0.0,0.0,0.0,0.0,0.0,0.0,0.0,0.0,0.0,0.0,0.0,0.0,0.0,0.0,0.0,0.0,0.0,0.0,0.0,0.0,0.0,0.0,0.0,0.0,0.0,0.0,0.0,0.0,0.0,0.0,0.0,0.0,0.0,0.0,0.0,0.0,0.0,0.0,0.0,0.0,0.0,0.0,0.0,0.0,0.0,0.0,0.0,0.0,0.0,0.0,0.0,0.0,0.0,0.0,0.0,0.0,0.0,0.0,0.0,0.0,0.0,0.0,0.0,0.0,0.0,0.0,0.0,0.0,0.0,0.0,0.0,0.0,0.0,0.0,0.0,0.0,0.0,0.0,0.0,0.0,0.0,0.0,0.0,0.0,0.0,0.0,0.0,0.0,0.0,0.0,0.0,0.0,0.0,0.0,0.0,0.0,0.0,0.0,0.0,0.0,0.0,0.0,0.0,0.0,0.0,0.0,0.0,0.0,0.0,0.0,0.0,0.0,0.0,0.0,0.0,0.0,0.0,0.0,0.0,0.0,0.0,0.0,0.0,0.0,0.0,0.0,0.0,0.0,0.0,0.0,0.0,0.0,0.0,0.0,0.0,0.0,0.0,0.0,0.0,0.0,0.0,0.0,0.0,0.0,0.0,0.0,0.0,0.0,0.0,0.0,0.0,0.0,0.0,0.0,0.0,0.0,0.0,0.0,0.0,0.0,0.0,0.0,0.0,0.0,0.0,0.0,0.0,0.0,0.0,0.0,0.0,0.0,0.0,0.0,0.0,0.0,0.0,0.0,0.0,0.0,0.0,0.0,0.0,0.0,0.0,0.0,0.0,0.0,0.0,0.0,0.0,0.0,0.0,0.0,0.0,0.0,0.0,0.0,0.0,0.0,0.0,0.0,0.0,0.0,0.0,0.0,0.0,0.0,0.0,0.0,0.0,0.0,0.0,0.0,0.0,0.0,0.0,0.0,0.0,0.0,0.0,0.0,0.0,0.0,0.0,0.0,0.0,0.0,0.0,0.0,0.0,0.0,0.0,0.0,0.0,0.0,0.0,0.0,0.0,0.0,0.0,0.0,0.0,0.0,0.0,0.0,0.0,0.0,0.0,0.0,0.0,0.0,0.0,0.0,0.0,0.0,0.0,0.0,0.0,0.0,0.0,0.0,0.0,0.0,0.0,0.0,0.0,0.0,0.0,0.0,0.0,0.0,0.0,0.0,0.0,0.0,0.0,0.0,0.0,0.0,0.0,0.0,0.0,0.0,0.0,0.0,0.0,0.0,0.0,0.0,0.0,0.0,0.0,0.0,0.0,0.0,0.0,0.0,0.0,0.0,0.0,0.0,0.0,0.0,0.0,0.0,0.0,0.0,0.0,0.0,0.0,0.0,0.0,0.0,0.0,0.0,0.0,0.0,0.0,0.0,0.0,0.0,0.0,0.0,0.0,0.0,0.0,0.0,0.0,0.0,0.0,0.0,0.0,0.0,0.0,0.0,0.0,0.0,0.0,0.0,0.0,0.0,0.0,0.0,0.0,0.0,0.0,0.0,0.0,0.0,0.0,0.0,0.0,0.0,0.0,0.0,0.0,0.0,0.0,0.0,0.0,0.0,0.0,0.0,0.0,0.0,0.0,0.0,0.0,0.0,0.0,0.0,0.0,0.0,0.0,0.0,0.0,0.0,0.0,0.0,0.0,0.0,0.0,0.0,0.0,0.0,0.0,0.0,0.0,0.0,0.0,0.0,0.0,0.0,0.0,0.0,0.0,0.0,0.0,0.0,0.0,0.0,0.0,0.0,0.0,0.0,0.0,0.0,0.0,0.0,0.0,0.0,0.0,0.0,0.0,0.0,0.0,0.0,0.0,0.0,0.0,0.0,0.0,0.0,0.0,0.0,0.0,0.0,0.0,0.0,0.0,0.0,0.0,0.0,0.0,0.0,0.0,0.0,0.0,0.0,0.0,0.0,0.0,0.0,0.0,0.0,0.0,0.0,0.0,0.0,0.0,0.0,0.0,0.0,0.0,0.0,0.0,0.0,0.0,0.0,0.0,0.0,0.0,0.0,0.0,0.0,0.0,0.0,0.0,0.0,0.0,0.0,0.0,0.0,0.0,0.0,0.0,0.0,0.0,0.0,0.0,0.0,0.0,0.0,0.0,0.0,0.0,0.0,0.0,0.0,0.0,0.0,0.0,0.0,0.0,0.0,0.0,0.0,0.0,0.0,0.0,0.0,0.0,0.0,0.0,0.0,0.0,0.0,0.0,0.0,0.0,0.0,0.0,0.0,0.0,0.0,0.0,0.0,0.0,0.0,0.0,0.0,0.0,0.0,0.0,0.0,0.0,0.0,0.0,0.0,0.0,0.0,0.0,0.0,0.0,0.0,0.0,0.0,0.0,0.0,0.0,0.0,0.0,0.0,0.0,0.0,0.0,0.0,0.0,0.0,0.0,0.0,0.0,0.0,0.0,0.0,0.0,0.0,0.0,0.0,0.0,0.0,0.0,0.0,0.0,0.0,0.0,0.0,0.0,0.0,0.0,0.0,0.0,0.0,0.0,0.0,0.0,0.0,0.0,0.0,0.0,0.0,0.0,0.0,0.0,0.0,0.0,0.0,0.0,0.0,0.0,0.0,0.0,0.0,0.0,0.0,0.0,0.0,0.0,0.0,0.0,0.0,0.0,0.0,0.0,0.0,0.0,0.0,0.0,0.0,0.0,0.0,0.0,0.0,0.0,0.0,0.0,0.0,0.0,0.0,0.0,0.0,0.0,0.0,0.0,0.0,0.0,0.0,0.0,0.0,0.0,0.0,0.0,0.0,0.0,0.0,0.0,0.0,0.0,0.0,0.0,0.0,0.0,0.0,0.0,0.0,0.0,0.0,0.0,0.0,0.0,0.0,0.0,0.0,0.0,0.0,0.0,0.0,0.0,0.0,0.0,0.0,0.0,0.0,0.0,0.0,0.0,0.0,0.0,0.0,0.0,0.0,0.0,0.0,0.0,0.0,0.0,0.0,0.0,0.0,0.0,0.0,0.0,0.0,0.0,0.0,0.0,0.0,0.0,0.0,0.0,0.0,0.0,0.0,0.0,0.0,0.0,0.0,0.0,0.0,0.0,0.0,0.0,0.0,0.0,0.0,0.0,0.0,0.0,0.0,0.0,0.0,0.0,0.0,0.0,0.0,0.0,0.0,0.0,0.0,0.0,0.0,0.0,0.0,0.0,0.0,0.0,0.0,0.0,0.0,0.0,0.0,0.0,0.0,0.0,0.0,0.0,0.0,0.0,0.0,0.0,0.0,0.0,0.0,0.0,0.0,0.0,0.0,0.0,0.0,0.0,0.0,0.0,0.0,0.0,0.0,0.0,0.0,0.0,0.0,0.0,0.0,0.0,0.0,0.0,0.0,0.0,0.0,0.0,0.0,0.0,0.0,0.0,0.0,0.0,0.0,0.0,0.0,0.0,0.0,0.0,0.0,0.0,0.0,0.0,0.0,0.0,0.0,0.0,0.0,0.0,0.0,0.0,0.0,0.0,0.0,0.0,0.0,0.0,-0.6507,-0.5558,0.0,0.0,0.0,0.0,0.0,0.0,0.0,0.0,0.0,0.0,0.0,0.0,0.0,0.0,0.0,0.0,0.0,0.0,0.0,0.0,0.0,0.0,0.0,0.0,0.0,0.0,0.0,0.0,0.0,0.0,0.0,0.0,0.0,0.0,0.0,0.0,0.0,0.0,0.0,0.0,0.0,0.0,0.0,0.0,0.0,0.0,0.0,0.0,0.0,0.0,0.0,0.0,0.0,0.0,0.0,0.0,0.0,0.0,0.0,0.0,0.0,0.0,0.0,0.0,0.0,0.0,0.0,0.0,0.0,0.0,0.0,0.0,0.0,0.0,0.0,0.0,0.0,0.0,0.0,0.0,0.0,0.0,0.0,0.0,0.0,0.0,0.0,0.0,0.0,0.0,0.0,0.0,0.0,0.0,0.0,0.0,0.0,0.0,0.0,0.0,0.0,0.0,0.0,0.0,0.0,0.0,0.0,0.0,0.0,0.0,0.0,0.0,0.0,0.0,-0.5772,-0.4999,0.0,0.0,0.0,0.0,0.0,0.0,0.0,0.0,0.0,0.0,0.0,0.0,0.0,0.0,0.0,0.0,0.0,0.0,0.0,0.0,0.0,0.0,0.0,0.0,0.3689,0.4207,0.4226,0.0,0.0,0.0,0.0,0.0,0.0,0.0,0.0,0.0,0.0,0.0,0.0,0.0,0.0,0.0,0.0,0.0,0.0,0.0,0.0,0.0,0.0,0.0,0.0,0.0,0.0,0.0,0.0,0.0,0.0,0.0,0.0,0.0,0.0,0.0,0.0,0.0,0.0,0.0,0.0,0.0,0.0,0.0,0.0,0.0,0.0,0.0,0.0,0.0,0.0,0.0,0.0,0.0,0.0,0.0,0.0,0.0,0.0,0.0,0.0,0.0,0.0,0.0,0.0,0.0,0.0,0.0,0.0,0.0,0.0,0.0,0.0,0.0,0.0,0.0,0.0,0.0,0.0,0.0,0.0,0.0,0.0989,0.0471,-0.033,-0.1113,-0.1343,-0.1295,-0.368,-0.3178,-0.0612,0.0934,0.0,0.0,0.0,0.0,0.0,0.0,0.0,0.0,0.0,0.0,0.0,0.0,0.0,0.0,0.0,0.0,0.0,0.0,0.0,0.0,0.0,0.3524,0.3931,0.4361,0.4226,0.4003,0.0,0.0,0.0,0.0,0.0,0.0,0.0,0.0,0.0,0.0,0.0,-0.3672,-0.3945,-0.4599,-0.4681,-0.4284,-0.4117,0.0,0.0,0.0,0.0,0.0,0.0,0.0,0.0,0.0,0.0,0.0,0.0,0.0,0.0,0.0,0.0,0.0,0.0,0.0,0.0,0.0,0.0,0.0,0.0,0.0,0.0,0.0,0.0,0.0,0.0,0.0,0.0,0.0,0.0,0.0,0.0,0.0,0.0,0.0,0.0,0.0,0.0,0.0,-0.0366,0.0568,0.0,0.0,0.0,0.0,0.0,0.0,0.0,0.0,0.0,0.0,0.0,0.0,0.0,0.1229,0.1312,0.197,0.2535,0.2955,0.341,0.3193,0.2459,0.2055,0.1782,0.168,0.2215,0.0,0.1696,0.3176,0.0,0.0,0.0,0.0,0.0,0.0,0.0,0.0,0.0,0.0,0.0,0.0,0.0,0.0,0.0,0.0,0.0,0.0,0.0,0.0,0.0,0.3669,0.4044,0.4446,0.4392,0.4157,0.3795,0.0,0.0,0.0,0.0,0.0,0.0,0.0,0.0,0.0,-0.3416,-0.4045,-0.4186,-0.4736,-0.4741,-0.4298,-0.3838,-0.3504,-0.3206,-0.2511,0.0,0.0,0.0,0.0,0.0,0.0,0.0,0.0,0.0,0.0,0.0,0.0,0.0,0.0,0.0,0.0,0.0,0.0,0.0,0.0,0.0,0.0,0.0,0.0,0.0,0.0,0.0,0.0,0.0,0.0,0.0,0.0,0.0,0.0,0.0,0.0,0.0,0.0,0.0,-0.0769,0.0147,0.0947,0.2617,0.3791,0.0,0.0,0.0,0.0,0.0,0.0,0.0,0.0,0.0,0.364,0.3731,0.3761,0.3728,0.5264,0.5951,0.5818,0.5909,0.5924,0.5776,0.5236,0.5233,0.5658,0.6575,0.7152,0.7532,0.7948,0.7826,0.7446,0.0,0.0,0.0,0.0,0.3461,0.1929,0.0,0.0,0.0,0.0,0.0,0.0,0.0,0.0,0.0,0.0,0.0,0.0,0.326,0.3659,0.4069,0.4436,0.4414,0.4284,0.3819,0.3127,0.0,0.0,0.0,0.0,0.0,0.0,0.0,-0.2672,-0.3407,-0.3981,-0.4153,-0.4498,-0.4398,-0.4051,-0.342,-0.3174,-0.3082,-0.2196,-0.1513,0.0,0.0,0.0,0.0,0.0,0.0,0.0,0.0,0.0,0.0,0.0,0.0,0.0,0.0,0.0,0.0,0.0,0.0,0.0,0.0,0.0,0.0,0.0,0.0,0.0,0.0,0.0,0.0,0.0,0.0,0.0,0.0,0.0,0.0,0.0,0.0,0.0,0.0,-0.0705,0.0459,0.1713,0.3227,0.4343,0.0,0.0,0.0,0.0,0.0,0.0,0.4391,0.5369,0.6363,0.7111,0.6533,0.6369,0.6633,0.8276,0.892,0.8595,0.851,0.8631,0.8906,0.8476,0.8747,0.9602,1.0404,1.169,1.3178,1.24,1.1445,1.0498,1.0985,1.0218,0.8728,0.7822,0.6477,0.5022,0.0,0.0,0.0,0.0,0.0,0.0,0.0,0.0,0.0,0.0,0.0,0.2843,0.3492,0.3664,0.3877,0.4288,0.4247,0.4157,0.3949,0.3238,0.2534,0.1668,0.0,0.0,0.0,0.0,0.0,-0.2941,-0.2916,-0.307,-0.3518,-0.361,-0.3505,-0.3318,-0.2819,-0.2794,-0.32,-0.1781,-0.1113,-0.0993,0.0,0.0,0.0,0.0,0.0,0.0,0.0,0.0,0.0,0.0,0.0,0.0,0.0,0.0,0.0,0.0,0.0,0.0,0.0,0.0,0.0,0.0,0.0,0.0,0.0,0.0,0.0,0.0,0.0,0.0,0.0,0.0,0.0,0.0,0.0,0.0,0.0,0.0,0.0,0.3157,0.4003,0.0,0.0,0.0,0.0,0.6155,0.6892,0.736,0.736,0.7138,0.8039,1.0184,0.927,0.9205,1.024,1.0524,1.0711,1.0754,1.1142,1.1331,1.143,1.1861,1.237,1.3003,1.3998,1.5459,1.698,1.5227,1.433,1.4112,1.4906,1.364,1.138,1.1045,0.9814,0.8096,0.0,0.0,0.0,0.0,0.0,0.0,0.0,0.0,0.0,0.16,0.223,0.2844,0.3044,0.354,0.3949,0.4124,0.4376,0.4261,0.3898,0.3467,0.2889,0.2237,0.0,0.0,0.0,0.0,-0.2126,-0.2504,-0.298,-0.3014,-0.2808,-0.2991,-0.2794,-0.2146,-0.1643,-0.1028,-0.0481,-0.0483,-0.0176,0.0499,0.1016,0.1677,0.0,0.0,0.0,0.0,0.0,0.0,0.0,0.0,0.0,0.0,0.0,0.0,0.0,0.0,0.0,0.0,0.0,0.0,0.0,0.0,0.0,0.0,0.0,0.0,0.0,0.0,0.0,0.0,0.0,0.0,0.0,0.0,0.0,0.0,0.0,0.0,0.0,0.3857,0.4146,0.0,0.5703,0.6641,0.7157,0.7274,0.8541,0.8962,0.8164,0.9622,1.1327,1.3164,1.2475,1.2321,1.2892,1.3627,1.4142,1.4373,1.4385,1.4638,1.5052,1.4683,1.5231,1.6617,1.7605,1.9,2.0583,2.0811,1.9561,1.748,1.7046,1.604,1.4681,1.313,1.204,1.1127,0.0,0.0,0.0,0.0,0.0,0.0,0.0,0.0,0.1584,0.1489,0.2246,0.285,0.3013,0.3562,0.4002,0.3997,0.4302,0.434,0.388,0.3537,0.3096,0.2735,0.1288,0.0,0.0,-0.1855,-0.1934,-0.178,-0.2351,-0.2477,-0.2148,-0.2361,-0.2074,-0.1218,-0.0473,0.062,0.1834,0.133,0.1396,0.185,0.1793,0.1821,0.1871,0.0,0.0,0.0,0.0,0.0,0.0,0.0,0.0,0.0,0.0,0.0,0.0,0.0,0.0,0.0,0.0,0.0,0.0,0.0,0.0,0.0,0.0,0.0,0.0,0.0,0.0,0.0,0.0,0.0,0.0,0.0,0.0,0.0,0.0,0.1701,0.3312,0.4861,0.5712,0.6391,0.7034,0.7949,0.8546,0.8459,1.0066,1.1069,1.123,1.2602,1.3924,1.5094,1.5084,1.5248,1.5593,1.667,1.7219,1.7372,1.7322,1.7511,1.7817,1.7666,1.844,1.9989,2.1139,2.2491,2.3962,2.4791,2.3869,2.1833,2.0151,1.8979,1.7984,1.5924,1.4719,1.3898,0.0,0.0,0.0,0.0,0.0,0.0,0.0,0.1211,0.1617,0.1699,0.2259,0.2857,0.3328,0.3706,0.3902,0.3851,0.4031,0.4051,0.3905,0.3436,0.3138,0.3034,0.0,0.0,-0.1561,-0.1616,-0.1448,-0.0806,-0.0819,-0.1169,-0.1726,-0.1695,-0.131,-0.0518,0.0489,0.1822,0.3355,0.3519,0.3334,0.2882,0.2542,0.208,0.1471,0.0,0.0,0.0,0.0,0.0,0.0,0.0,0.0,0.0,0.0,0.0,0.0,0.0,0.0,0.0,0.0,0.0,0.0,0.0,0.0,0.0,0.0,0.0,0.0,0.0,0.0,0.0,0.0,0.0,0.0,0.0,0.0,0.0,0.1803,0.4326,0.6326,0.6327,0.8811,1.0337,0.9849,1.083,1.1031,0.9872,1.1382,1.3704,1.6751,1.5917,1.562,1.6153,1.7103,1.7895,1.8473,1.9498,1.983,1.9493,1.983,1.9838,1.9584,2.0828,2.198,2.3109,2.4512,2.5913,2.7137,2.6898,2.704,2.7085,2.4308,2.2464,2.1186,1.9484,1.7888,1.638,0.0,0.0,0.0,0.0,0.0,0.0,0.0,0.1232,0.157,0.1498,0.2252,0.2794,0.2911,0.3306,0.3605,0.3592,0.357,0.3514,0.3328,0.3147,0.2852,0.0,0.0,0.0,-0.1757,-0.1704,-0.1634,-0.1549,-0.0718,-0.0119,0.0117,-0.0337,-0.0109,0.0738,0.1397,0.227,0.3501,0.4197,0.4139,0.3546,0.3292,0.2444,0.129,0.0,0.0,0.0,0.0,0.0,0.0,0.0,0.0,0.0,0.0,0.0,0.0,0.0,0.0,0.0,0.0,0.0,0.0,0.0,0.0,0.0,0.0,0.0,0.0,0.0,0.0,0.0,0.0,0.0,0.0,0.0,0.3741,0.3774,0.3192,0.6699,0.9178,0.8735,1.1404,1.3498,1.4027,1.3772,1.36,1.3581,1.4811,1.666,1.9197,1.7936,1.7932,1.9699,1.9584,1.9868,2.0709,2.1515,2.1865,2.1808,2.2055,2.2379,2.2776,2.3526,2.4605,2.5882,2.7282,2.8172,2.8653,2.8963,2.8889,2.8282,2.5051,2.3673,2.3299,2.1175,1.945,1.8028,0.0,0.0,0.0,0.0,0.0,0.0,0.0,0.1104,0.1394,0.1481,0.2206,0.2704,0.2603,0.3036,0.3301,0.3255,0.2971,0.2657,0.2323,0.2319,0.2239,0.0,0.0,-0.0221,-0.102,-0.1522,-0.156,-0.1097,-0.0121,0.0718,0.1295,0.1354,0.1418,0.1594,0.2435,0.2999,0.3411,0.4224,0.4177,0.3649,0.3984,0.3115,0.152,0.0991,0.0455,0.0041,0.0197,0.0763,0.1394,0.0928,0.0,0.0,0.0,0.0,0.0,0.0,0.0,0.0,0.0,0.0,0.0,0.0,0.0,0.0,0.0,0.0,0.0,0.0,0.0,0.0,0.0,0.0,0.0,0.0,0.4633,0.4858,0.4627,0.7621,0.9996,1.0295,1.2986,1.5344,1.6586,1.5579,1.5223,1.6046,1.6734,1.7986,1.9964,1.9738,2.0009,2.0907,2.1455,2.1858,2.211,2.3115,2.3631,2.3656,2.4264,2.47,2.4912,2.6127,2.725,2.8305,2.9624,3.032,3.054,3.0629,3.0341,2.9582,0.0,0.0,0.0,0.0,2.0943,1.9822,0.0,0.0,0.0,0.0,0.0,0.0,0.0,0.0898,0.1226,0.1587,0.2224,0.2594,0.253,0.2779,0.2927,0.2763,0.2122,0.1581,0.1142,0.1263,0.0,0.2127,0.1191,0.0452,0.0,-0.1185,-0.1333,-0.0246,0.0606,0.1312,0.1992,0.2954,0.2967,0.2333,0.3487,0.3723,0.3336,0.3901,0.385,0.3448,0.4556,0.3806,0.2106,0.1688,0.1206,0.0771,0.1211,0.1825,0.2364,0.2021,0.0,0.0,0.0,0.0,0.0,0.0,0.0,0.0,0.0,0.0,0.0,0.0,0.0,0.0,0.0,0.0,0.0,0.0,0.0,0.0,0.0,0.0,0.0,0.0,0.564,0.6268,0.6092,0.7862,0.989,1.1753,1.4036,1.6122,1.7695,1.6633,1.6275,1.7502,1.7747,1.8464,1.9855,2.1247,0.0,0.0,0.0,2.3676,2.3253,2.4474,2.5179,2.5298,2.6409,2.6817,2.6584,2.8492,2.971,3.038,3.1542,3.2136,3.2294,3.1959,3.1497,3.0835,2.9068,2.7956,2.6971,2.405,2.2426,2.1626,0.0,0.0,0.0,0.0,0.0,0.0,0.0,0.0723,0.1228,0.1866,0.23,0.2539,0.245,0.261,0.2541,0.2299,0.1276,0.0641,0.0665,0.1165,0.1695,0.2164,0.1743,0.1017,0.0,-0.0703,-0.1304,-0.1665,0.0593,0.21,0.306,0.355,0.3666,0.3435,0.3359,0.3549,0.3884,0.3803,0.3592,0.3378,0.4828,0.4469,0.3136,0.3173,0.2675,0.2125,0.2691,0.3729,0.4758,0.3987,0.3865,0.4021,0.3723,0.3302,0.0,0.0,0.0,0.0,0.0,0.0,0.0,0.0,0.0,0.0,0.0,0.0,0.0,0.0,0.0,0.0,0.0,0.0,0.0,0.6299,0.6412,0.6683,0.7623,0.9308,1.1862,1.56,1.5599,1.5899,1.7505,1.7356,1.7407,1.8014,1.9132,2.0055,2.0822,2.1528,2.2269,2.3094,2.3932,2.4899,2.6027,2.6318,2.6857,2.774,2.8219,0.0,2.9124,3.0492,3.1346,3.1779,3.2985,3.2856,3.1918,3.282,3.2549,3.137,2.9622,2.8081,2.6679,2.5291,2.4142,2.3131,0.0,0.0,0.0,0.0,0.0,0.0,0.0,0.0412,0.0993,0.1551,0.1987,0.2187,0.1943,0.1799,0.1569,0.1159,-0.0089,-0.0719,-0.0468,0.0096,0.0692,0.1346,0.1637,0.1239,0.0,-0.0582,-0.1174,-0.1863,0.0231,0.2385,0.4545,0.4312,0.4322,0.4451,0.3964,0.3852,0.3811,0.3112,0.2506,0.2139,0.3839,0.4659,0.476,0.4433,0.4177,0.4014,0.4278,0.4877,0.5496,0.5025,0.4987,0.5052,0.4513,0.3991,0.3533,0.0,0.0,0.0,0.0,0.0,0.0,0.0,0.0,0.0,0.0,0.0,0.0,0.0,0.0,0.5437,0.6046,0.0,0.6219,0.7034,0.7012,0.7224,0.8178,1.0018,1.2475,1.5841,1.6204,1.6586,1.7583,1.8129,1.8584,1.9067,2.036,2.1387,2.1924,2.3063,2.3852,2.4193,2.5062,2.5905,2.6792,2.7085,2.7764,2.8907,2.9571,3.0161,3.0695,3.1872,3.2565,3.293,3.3294,3.3129,3.2629,3.3115,3.2441,3.1156,3.1159,2.9843,2.7825,2.6759,2.591,2.5205,0.0,0.0,0.0,0.0,0.0,0.0,0.0,0.0,0.0698,0.1263,0.1604,0.176,0.1611,0.1217,0.0557,-0.0254,-0.1551,-0.2123,0.0,-0.1225,-0.0587,0.0311,0.1189,0.1107,0.0111,-0.0456,-0.1149,-0.1814,0.0,0.253,0.5524,0.5041,0.5156,0.5428,0.4847,0.4224,0.3602,0.2357,0.1534,0.1254,0.301,0.4605,0.5976,0.5467,0.5555,0.5901,0.5729,0.5671,0.5624,0.5695,0.5707,0.5599,0.5005,0.4451,0.3943,0.3255,0.2754,0.0,0.0,0.0,0.0,0.0,0.0,0.0,0.0,0.4738,0.5365,0.6107,0.6212,0.6392,0.7083,0.6815,0.6785,0.7706,0.7732,0.7921,0.8816,1.1014,1.3212,1.5095,1.6408,1.7413,1.8014,1.9,1.9783,2.0268,2.1532,2.2491,2.2926,2.4664,2.5476,2.5017,2.6061,2.6759,2.7096,2.7673,2.8578,2.9747,3.0766,3.1467,3.1903,3.2883,3.3512,3.3787,3.3166,3.3087,3.3363,3.2778,3.1981,3.1233,3.2467,3.1588,2.9473,2.831,2.7544,2.7009,0.0,0.0,0.0,0.0,0.0,0.0,0.0,0.0,0.0,0.1599,0.1673,0.1759,0.1971,0.1356,0.0075,-0.1896,-0.2349,-0.2649,-0.2852,-0.2164,-0.1368,-0.0724,0.0313,0.0739,0.0643,-0.043,-0.1292,-0.1722,0.0535,0.254,0.4479,0.57,0.6199,0.6198,0.5405,0.4522,0.3523,0.182,0.1582,0.2509,0.3513,0.4543,0.547,0.6056,0.6642,0.7144,0.6803,0.6365,0.6066,0.6425,0.6182,0.5664,0.5553,0.4792,0.3857,0.3127,0.259,0.2379,0.3113,0.4129,0.498,0.5142,0.5456,0.5901,0.0,0.6818,0.7063,0.6911,0.7018,0.7237,0.7566,0.72,0.7433,0.9239,0.888,0.8949,1.0662,1.3515,1.5402,1.5308,1.6367,1.7607,1.8837,1.9964,2.0814,2.1305,2.2571,2.3362,2.3505,2.5276,2.6236,2.6115,2.6764,2.7444,2.8131,2.8971,2.9883,3.0918,3.2054,3.2796,3.3205,3.357,3.3921,3.4176,3.3034,3.2752,3.2943,3.1467,3.1702,3.2928,3.2226,3.1639,3.1027,2.9937,2.8797,2.7606,0.0,0.0,0.0,0.0,0.0,0.0,0.0,0.0,0.0,0.0,0.1332,0.1435,0.1242,0.0276,-0.0945,-0.2447,-0.3075,0.0,-0.3818,-0.3397,-0.266,-0.187,-0.1098,-0.1013,-0.1548,-0.1356,-0.0938,-0.0,0.1439,0.3643,0.6703,0.6795,0.6734,0.6539,0.587,0.5216,0.434,0.28,0.1996,0.1886,0.2935,0.3974,0.5014,0.5765,0.629,0.6561,0.6547,0.647,0.0,0.6119,0.5944,0.5677,0.4978,0.4646,0.424,0.2794,0.253,0.2995,0.4276,0.5208,0.5927,0.6359,0.696,0.7462,0.7473,0.7452,0.7554,0.8047,0.7606,0.7455,0.8544,0.8243,0.8352,1.0015,0.9735,0.982,1.1281,1.3891,1.5695,1.5775,1.7035,1.8247,1.9095,2.0994,2.2355,2.2685,2.4288,2.531,2.546,2.6704,2.7377,2.736,2.7964,2.8706,2.9509,3.0346,3.1264,3.2268,3.2906,3.3368,3.3634,3.3921,3.3729,3.3164,3.2822,3.2275,3.1599,3.147,3.1555,3.1838,3.237,3.2066,3.125,3.0519,2.939,2.7985,0.0,0.0,0.0,0.0,0.0,0.0,0.0,0.0,0.0,0.0,0.09,0.1026,0.0513,-0.0736,-0.189,-0.2729,-0.3467,0.0,0.0,-0.4384,-0.3901,-0.3199,-0.2664,-0.271,-0.3375,-0.2616,-0.1203,0.0882,0.1969,0.427,0.7729,0.7386,0.7101,0.6973,0.6315,0.5784,0.5122,0.3824,0.2729,0.1937,0.2576,0.3379,0.4338,0.5008,0.5281,0.5513,0.5906,0.6067,0.5961,0.5412,0.521,0.5052,0.4049,0.3791,0.3582,0.2189,0.2383,0.3392,0.4831,0.5741,0.6491,0.7101,0.7948,0.8533,0.8317,0.8297,0.8512,0.9152,0.8484,0.8211,0.9571,0.9165,0.9183,1.0842,1.047,1.0426,1.1831,1.4122,1.5819,1.6193,1.7736,1.9024,1.9656,2.1603,2.3117,2.3821,2.5454,2.6534,2.6934,2.7772,2.8273,2.8273,2.8951,2.9505,2.9937,3.1184,3.208,3.2618,3.3302,3.3753,3.3947,3.425,3.3688,3.2471,3.2718,3.1976,3.0651,3.1347,3.1406,3.1164,3.228,3.2124,3.1219,3.0753,2.9839,2.8637,0.0,0.0,0.0,0.0,0.0,0.0,0.0,0.0,0.0,0.0,0.0,0.0,0.0,0.0,-0.2314,-0.2863,0.0,0.0,0.0,-0.4794,-0.4737,-0.4878,-0.417,-0.3844,-0.4,-0.3917,-0.2549,-0.0092,0.1689,0.3748,0.607,0.7143,0.7519,0.738,0.6648,0.6026,0.562,0.4536,0.3898,0.3544,0.2852,0.2964,0.3547,0.351,0.3791,0.4301,0.4921,0.4925,0.4655,0.443,0.3975,0.3392,0.2989,0.2116,0.1303,0.1155,0.2052,0.3283,0.4172,0.5412,0.6507,0.6969,0.7991,0.8939,0.9126,0.9962,1.0546,1.0082,0.9894,0.9986,1.0555,0.9746,0.9744,1.2075,1.1116,1.0733,1.2601,1.4723,1.6209,1.655,1.8301,1.9875,2.0933,2.1527,2.261,2.4437,2.5536,2.6471,2.7236,2.8166,2.8669,2.8669,2.9399,2.9453,2.876,3.1093,3.1974,3.1393,3.314,3.4099,3.4293,3.4711,3.4034,3.2607,3.2814,3.201,3.0619,3.0693,3.122,3.1948,3.1806,3.152,3.114,3.0693,3.0222,2.9624,0.0,0.0,0.0,0.0,0.0,0.0,0.0,0.0,0.0,0.0,0.0,0.0,0.0,0.0,0.0,0.0,0.0,0.0,0.0,-0.541,-0.5577,-0.5501,-0.5362,-0.5282,-0.5095,-0.3993,-0.1983,0.1052,0.2216,0.4347,0.7236,0.7034,0.6999,0.6956,0.6863,0.6567,0.6142,0.5546,0.4728,0.3762,0.3248,0.2882,0.2807,0.3099,0.2896,0.2649,0.0,0.3786,0.403,0.3096,0.2355,0.1769,0.1355,0.0823,0.0479,0.0891,0.1627,0.2667,0.4416,0.5797,0.7006,0.7887,0.8913,0.9833,1.0354,1.0537,1.0627,1.0777,1.004,0.9569,1.0203,0.9728,0.975,1.1258,1.1491,1.1942,1.319,1.5295,1.664,1.6497,1.811,1.9794,2.1237,2.2389,2.3549,2.4761,2.6286,2.7273,2.7561,2.8471,2.898,2.8966,3.0289,3.0895,3.0619,3.25,3.3342,3.316,3.3913,3.4363,3.4561,3.4811,3.4089,3.2672,3.2884,3.2077,3.0611,3.0675,3.0866,3.1109,3.0868,3.0599,3.0219,2.9193,2.8874,2.8665,0.0,0.0,0.0,0.0,0.0,0.0,0.0,0.0,0.0,0.0,0.0,0.0,0.0,0.0,0.0,0.0,0.0,0.0,0.0,0.0,-0.5755,-0.5829,-0.5956,-0.5985,-0.5835,-0.4257,-0.1943,0.124,0.2011,0.396,0.701,0.6357,0.6192,0.6364,0.659,0.6672,0.6424,0.6065,0.5254,0.4142,0.3421,0.2847,0.244,0.2339,0.1763,0.0,0.153,0.1928,0.2146,0.1383,0.0839,0.0378,-0.0242,-0.0409,-0.0279,0.035,0.1304,0.2517,0.4262,0.5659,0.6907,0.8063,0.9174,1.0191,1.093,1.1147,1.1273,1.154,1.0596,0.997,1.0809,1.0223,1.0002,1.1172,1.2165,1.3181,1.4288,1.6135,1.7387,1.7503,1.8523,1.9868,2.1461,2.2538,2.3686,2.5008,2.6573,2.7561,2.7822,2.8759,2.9267,2.9272,3.0891,3.1634,3.1336,3.3255,3.4073,3.3841,3.4255,3.4411,3.4295,3.4737,3.4258,3.3127,3.3044,3.225,3.104,3.0832,3.0728,3.0642,3.0095,2.9902,2.9782,2.8521,2.8231,2.8294,0.0,0.0,0.0,0.0,0.0,0.0,0.0,0.0,0.0,0.0,0.0,0.0,0.0,0.0,0.0,0.0,0.0,0.0,0.0,0.0,0.0,-0.5893,-0.6023,-0.6083,-0.6201,-0.4585,-0.2334,0.054,0.119,0.2895,0.5416,0.5068,0.5092,0.5542,0.5928,0.6268,0.656,0.61,0.5511,0.4684,0.3456,0.2795,0.2309,0.1223,0.0379,-0.0261,-0.0276,-0.0574,-0.0953,-0.0658,-0.0705,-0.0942,-0.1812,-0.1645,-0.104,-0.0521,0.0955,0.2689,0.3751,0.501,0.6307,0.7601,0.8855,0.9967,1.0884,1.171,1.2277,1.2219,1.1428,1.1086,1.2173,1.1054,1.0408,1.1767,1.3103,1.4446,1.5845,1.7187,1.8376,1.9345,1.9504,2.01,2.1611,2.1975,2.2961,2.5054,2.6283,2.727,2.7976,2.8988,2.9551,2.9551,3.1165,3.1711,3.0979,3.3383,3.4189,3.3419,3.417,3.4158,3.3468,3.4434,3.4464,3.3757,3.3241,3.2559,3.1799,3.1146,3.0804,3.0599,2.9569,2.9509,2.984,2.8577,2.8384,2.85,0.0,0.0,0.0,0.0,0.0,0.0,0.0,0.0,0.0,0.0,0.0,0.0,0.0,0.0,0.0,0.0,0.0,0.0,0.0,0.0,0.0,-0.5312,-0.6068,-0.63,-0.5751,-0.4002,-0.2028,0.0147,0.134,0.2821,0.4491,0.3754,0.4047,0.5198,0.5748,0.6267,0.655,0.6318,0.5517,0.4271,0.3418,0.2347,0.1162,0.0378,-0.0466,-0.1282,-0.1877,-0.2095,-0.2125,-0.1592,-0.1832,-0.2479,-0.2995,-0.2508,-0.1741,-0.1226,0.0261,0.2012,0.3255,0.4604,0.6122,0.7919,0.8666,0.9313,1.052,1.0909,1.099,1.0958,1.0519,1.0216,1.0518,0.9926,0.9936,1.1584,1.3382,1.5036,1.6332,1.756,1.844,1.8798,1.935,2.01,2.1034,2.1817,2.2722,2.3864,2.5386,2.6371,2.6663,2.807,2.8896,2.8931,3.0557,3.1616,3.2013,3.3826,3.4292,3.34,3.3607,3.331,3.2619,3.292,3.2716,3.2158,3.2744,3.2236,3.1042,3.1558,3.135,3.0661,3.0285,3.011,2.9952,2.8806,2.861,2.8732,0.0,0.0,0.0,0.0,0.0,0.0,0.0,0.0,0.0,0.0,0.0,0.0,0.0,0.0,0.0,0.0,0.0,0.0,0.0,0.0,0.0,-0.474,-0.5463,-0.5617,-0.4975,-0.3655,-0.2165,-0.0411,0.014,0.122,0.2604,0.2209,0.277,0.4151,0.5111,0.5805,0.6121,0.6077,0.5335,0.0,0.0,0.243,0.0805,-0.0065,-0.0961,-0.1909,-0.2471,-0.2908,-0.3164,-0.2887,-0.3174,-0.3573,-0.3774,-0.3255,-0.2463,-0.1812,-0.0107,0.1767,0.2656,0.3979,0.5537,0.7356,0.8177,0.8885,1.0268,1.067,1.0803,1.0918,1.0548,1.0265,1.0479,0.9906,1.0026,1.1898,1.3365,1.4927,1.6829,1.7666,1.838,1.922,1.9667,2.0225,2.0973,2.1525,2.2362,2.3575,2.5232,2.62,2.6252,2.7485,2.8375,2.8726,3.0068,3.1343,3.2492,3.4017,3.3975,3.235,3.3023,3.2762,3.1695,3.2164,3.2262,3.2044,3.232,3.1975,3.1251,3.1456,3.1221,3.0652,2.9788,2.9515,2.9449,2.7953,2.7885,2.8433,0.0,0.0,0.0,0.0,0.0,0.0,0.0,0.0,0.0,0.0,-0.1641,-0.1234,0.0,0.0,0.0,0.0,0.0,0.0,0.0,0.0,0.0,0.0,-0.4434,-0.4443,-0.4106,-0.3367,-0.2429,-0.1149,-0.1443,-0.0876,0.0346,0.0582,0.1434,0.295,0.4288,0.5058,0.5448,0.5585,0.5096,0.4079,0.3753,0.2601,0.0936,0.0,0.0,0.0,-0.2577,-0.3232,-0.3998,-0.4233,-0.425,-0.4217,-0.4222,-0.3751,-0.299,-0.2246,-0.0383,0.1567,0.1974,0.3221,0.4759,0.6268,0.7428,0.8529,0.9844,1.0447,1.0787,1.1036,1.0671,1.047,1.0989,1.0357,1.0397,1.2477,1.3185,1.4415,1.7093,1.7613,1.8307,1.9872,2.0093,2.0356,2.1001,2.1223,2.1942,2.3467,2.5152,2.614,2.6174,2.7056,2.7968,2.8821,2.98,3.1049,3.2572,3.3847,3.3373,3.1167,3.2383,3.2195,3.0772,3.1673,3.2203,3.2369,3.1904,3.1715,3.1701,3.1172,3.0839,3.0476,2.8899,2.8504,2.8629,2.6877,2.694,2.7843,0.0,0.0,0.0,0.0,0.0,0.0,0.0,0.0,0.0,0.0,-0.2153,-0.1737,0.0,0.0,0.0,0.0,0.0,0.0,0.0,0.0,0.0,0.0,0.0,-0.369,-0.3564,-0.2859,-0.2355,-0.2105,-0.1996,-0.1586,-0.0913,-0.0742,0.0352,0.214,0.3703,0.4662,0.5039,0.5108,0.4537,0.3502,0.3136,0.2057,0.058,0.0,0.0,0.0,-0.2985,-0.374,-0.4251,-0.4339,-0.4261,-0.4117,-0.4219,-0.3672,-0.2874,-0.2448,-0.1175,0.0292,0.095,0.2448,0.4066,0.5085,0.649,0.786,0.8653,0.8761,0.8734,0.8829,0.8822,0.9052,0.9905,0.9951,1.0629,1.2978,1.3078,1.3772,1.6398,1.7365,1.8164,1.917,1.9817,2.0233,2.037,2.1037,2.1581,2.1878,2.3628,2.4926,2.553,2.6388,2.7538,2.9002,2.985,3.1038,3.2572,3.2743,3.2543,3.1977,3.1484,3.0771,2.9925,3.0267,3.0517,3.0772,3.1474,3.1441,3.0959,3.1607,3.1034,2.9684,2.9323,2.8734,2.8029,2.7574,2.7409,2.7387,0.0,0.0,0.0,0.0,0.0,0.0,0.0,-0.2672,-0.269,-0.2691,-0.2549,-0.2237,-0.1737,-0.127,-0.1046,0.0,0.0,0.0,0.0,0.0,0.0,0.0,0.0,0.0,0.0,-0.306,-0.2949,-0.2792,0.0,-0.2805,-0.2102,-0.1775,-0.0581,0.1367,0.2809,0.3828,0.4365,0.4539,0.4072,0.3078,0.2664,0.1779,0.0,0.0,0.0,0.0,0.0,-0.3785,-0.4192,-0.4574,-0.4459,-0.4097,-0.4219,-0.3758,-0.3097,-0.2782,-0.1667,-0.0378,0.0553,0.1646,0.2887,0.4244,0.5511,0.6599,0.734,0.7626,0.7735,0.7774,0.8091,0.8659,0.9703,0.9922,1.033,1.1542,1.1894,1.2949,1.5556,1.6259,1.6982,1.8319,1.9182,1.9677,1.9625,2.0431,2.1121,2.1565,2.289,2.3989,2.4747,2.601,2.7254,2.8483,2.9701,3.067,3.134,3.2039,3.1881,3.0885,3.0865,3.0452,2.9717,2.9907,3.0094,3.0279,3.0824,3.0914,3.0685,3.1164,3.063,2.9451,2.8964,2.8175,2.7261,2.666,2.6572,2.6702,0.0,0.0,0.0,0.0,0.0,0.0,-0.26,-0.2705,-0.2759,-0.281,-0.283,-0.2607,-0.2125,-0.1531,-0.114,0.0,0.0,0.0,0.0,0.0,0.0,0.0,0.0,0.0,0.0,0.0,0.0,-0.3545,-0.3997,0.0,0.0,0.0,0.0,0.0,0.201,0.304,0.3795,0.3993,0.3626,0.0,0.0,0.1603,0.0,0.0,0.0,0.0,0.0,-0.3651,-0.4114,-0.4791,-0.4797,-0.4437,-0.4254,-0.3841,-0.3309,-0.2952,-0.1975,-0.0803,0.0292,0.1103,0.199,0.3508,0.4696,0.5668,0.6309,0.6724,0.7007,0.6997,0.7422,0.8097,0.9029,0.9462,0.9764,1.0029,1.0798,1.2223,1.4681,1.5195,1.5894,1.7467,1.8556,1.9187,1.9134,1.9905,2.0692,2.1395,2.2473,2.3528,2.4482,2.5758,2.6854,2.7733,2.911,2.9982,3.0199,3.1331,3.1236,2.9981,3.0434,3.034,2.9753,2.994,3.0094,3.0215,3.0337,3.0463,3.0587,3.0658,3.0197,2.9383,2.8535,2.775,2.6937,2.5774,2.5736,2.6256,0.0,0.0,0.0,0.0,0.0,0.0,-0.2553,-0.2607,-0.2706,-0.2971,-0.2669,-0.2379,-0.2176,-0.1898,-0.1488,0.0,0.0,0.0,0.0,0.0,0.0,0.0,0.0,0.0,0.0,0.0,0.0,-0.4288,-0.4172,0.0,0.0,0.0,0.0,0.0,0.0,0.2737,0.3255,0.3497,0.0,0.0,0.0,0.0,0.0,0.0,0.0,0.0,0.0,-0.3745,-0.4243,-0.4785,-0.5129,-0.5155,-0.459,-0.3906,-0.3301,-0.2863,-0.2136,-0.1214,-0.0062,0.1122,0.2183,0.2707,0.435,0.5871,0.5943,0.5999,0.6035,0.602,0.6126,0.6305,0.6594,0.7744,0.891,0.9772,1.0694,1.1976,1.3847,1.4843,1.574,1.6691,1.8217,1.9208,1.92,1.992,2.0449,2.0597,2.2169,2.3816,2.5477,2.5658,2.6076,2.6883,2.7707,2.8805,3.0194,3.0202,3.0454,3.0883,3.0205,2.9901,2.9895,3.0019,3.0118,3.0215,3.0352,3.0432,3.0519,3.0587,3.0147,2.9333,2.8515,2.8105,2.7789,2.6106,2.5948,2.6448,0.0,0.0,0.0,0.0,0.0,0.0,-0.2409,-0.2315,-0.2343,-0.2696,-0.2607,-0.246,-0.2331,-0.2158,-0.1782,-0.1101,0.0,0.0,0.0,0.0,0.0,0.0,0.0,0.0,0.0,0.0,-0.4062,-0.4712,-0.4749,0.0,0.0,0.0,0.0,0.0,0.0,0.1901,0.2649,0.3018,0.0,0.0,0.0,0.0,0.0,0.0,0.0,0.0,0.0,0.0,-0.4027,-0.4782,-0.4957,-0.4846,-0.4899,-0.4273,-0.3358,-0.2859,-0.2009,-0.1014,0.0132,0.1521,0.2669,0.2785,0.3739,0.4628,0.459,0.4676,0.4765,0.4751,0.4836,0.5241,0.6279,0.7326,0.8376,0.9483,1.0044,1.0879,1.2393,1.3289,1.43,1.5742,1.692,1.7841,1.8376,1.918,2.034,2.1948,2.2714,2.3848,2.5554,2.5609,2.597,2.678,2.7044,2.7903,2.939,2.885,2.9171,3.0332,2.9465,2.9385,2.9891,3.0038,3.0109,3.0147,3.0241,3.0297,3.0337,3.0442,3.0006,2.9271,2.9017,2.8268,2.7241,2.6571,2.6164,2.5893,0.0,0.0,0.0,0.0,0.0,-0.2001,-0.208,-0.2021,-0.2086,-0.2428,-0.2501,-0.2458,-0.2374,-0.2298,-0.1997,-0.1289,-0.1066,0.0,0.0,0.0,0.0,0.0,0.0,0.0,0.0,0.0,-0.4237,-0.4759,-0.4755,-0.4338,0.0,0.0,-0.2048,-0.036,0.0,0.0,0.0,0.0,0.0,0.0,0.0,0.0,0.0,0.0,0.0,0.0,0.0,0.0,0.0,0.0,0.0,-0.4699,-0.502,0.0,0.0,-0.295,-0.2036,-0.0936,0.025,0.16,0.2724,0.2963,0.3463,0.3855,0.3732,0.3849,0.4008,0.4047,0.4081,0.4559,0.6016,0.6994,0.7995,0.9206,0.9534,1.0105,1.1435,1.2255,1.3384,1.5182,1.6132,1.6949,1.7816,1.8912,2.0546,2.2894,2.3073,2.3809,2.5513,2.561,2.5857,2.6411,2.6595,2.7181,2.8185,2.7797,2.8146,2.9223,2.8847,2.8995,2.9596,2.9939,3.0083,3.0079,3.0133,3.0161,3.0117,3.0004,2.9605,2.9043,2.8727,2.7991,2.7088,2.6663,2.6257,2.5873,0.0,0.0,0.0,0.0,0.0,0.0,-0.161,-0.1724,-0.1891,-0.2169,-0.2179,-0.2209,-0.2174,-0.234,-0.2167,-0.1623,-0.1347,0.0,0.0,0.0,0.0,0.0,0.0,0.0,0.0,0.0,-0.3724,-0.4412,-0.3947,-0.348,-0.2993,-0.2799,-0.1759,-0.0095,0.0,0.0,0.0,0.0,0.0,0.0,0.0,0.0,0.0,0.0,0.0,0.0,0.0,0.0,0.0,0.0,0.0,0.0,0.0,0.0,0.0,0.0,-0.2234,-0.1122,0.0165,0.1191,0.2141,0.3059,0.3708,0.403,0.3767,0.3859,0.4032,0.4175,0.4048,0.4232,0.5319,0.6489,0.772,0.8994,0.9366,0.9956,1.1225,1.2204,1.3442,1.5188,1.6172,1.7018,1.7815,1.9461,2.12,2.2867,2.2999,2.3757,2.5504,2.5601,2.5576,2.5518,2.6296,2.665,2.6529,2.7242,2.7605,2.7618,2.8426,2.8806,2.8836,2.9707,3.0053,2.9988,3.0072,3.0053,2.9946,2.9208,2.8867,2.8657,2.7273,2.7198,2.7706,2.6189,2.6142,2.6748,0.0,0.0,0.0,0.0,0.0,0.0,-0.0862,-0.0878,-0.1051,-0.1528,-0.1605,-0.1788,-0.2164,-0.2121,-0.2054,-0.2012,-0.157,0.0,0.0,0.0,0.0,0.0,0.0,0.0,0.0,0.0,-0.3585,-0.4105,-0.3861,-0.3391,-0.2765,-0.2307,-0.1387,-0.0048,0.0866,0.1523,0.0,0.0,0.0,0.0,0.0,0.0,0.0,0.0,0.0,0.0,0.0,0.0,0.0,0.0,0.0,0.0,0.0,0.0,0.0,-0.301,-0.197,-0.074,0.045,0.1388,0.2224,0.3039,0.3429,0.3589,0.3456,0.3685,0.3882,0.37,0.4184,0.5054,0.6347,0.6791,0.7373,0.8652,0.9188,1.0082,1.1958,1.2516,1.3403,1.5188,1.6644,1.7615,1.7877,1.9966,2.1789,2.2915,2.3506,2.4315,2.5473,2.549,2.5476,2.5498,2.5704,2.6006,2.6438,2.6065,2.6415,2.746,2.7123,2.7275,2.7858,2.8089,2.8474,2.8976,2.899,2.9314,2.9734,2.8947,2.8651,2.8582,2.7772,2.7263,2.6981,2.6619,2.6283,2.5962,0.0,0.0,0.0,0.0,0.0,0.0,-0.0305,-0.0405,-0.0655,-0.108,-0.1371,-0.176,-0.2233,-0.2051,-0.2,-0.2289,-0.1774,0.0,0.0,0.0,0.0,0.0,0.0,0.0,-0.2511,-0.2786,-0.3117,-0.3513,-0.3225,-0.2791,-0.2188,-0.1786,-0.0997,0.0047,0.1114,0.1649,0.0,0.0,0.0,0.0,0.0,0.0,-0.0529,0.0,0.0,0.0,0.0,0.0,0.0,0.0,0.0,0.0,0.0,0.0,0.0,0.0,-0.1678,-0.0718,0.0351,0.1078,0.1741,0.2643,0.3107,0.3315,0.3115,0.3462,0.3793,0.3683,0.4481,0.5556,0.674,0.6922,0.7319,0.8597,0.9179,0.9968,1.1348,1.22,1.3368,1.5175,1.6596,1.7553,1.7891,1.9618,2.1346,2.2882,2.3443,2.4238,2.5434,2.5434,2.5412,2.5421,2.5387,2.5543,2.5919,2.5323,2.5511,2.6454,2.6197,2.6352,2.6899,2.7452,2.7968,2.8444,2.8726,2.912,0.0,2.8387,2.797,2.7943,2.7136,2.6502,2.6072,2.6343,2.6093,2.5634,0.0,0.0,0.0,0.0,0.0,0.0,0.0,-0.0181,-0.0522,-0.0812,-0.1378,-0.189,-0.2287,-0.2081,-0.2054,-0.2458,-0.2011,0.0,0.0,0.0,0.0,0.0,0.0,0.0,-0.2246,-0.2233,-0.237,-0.2654,-0.2277,-0.1878,-0.1389,-0.1299,-0.0717,0.0269,0.1336,0.1825,0.0,0.0,0.0,0.0,0.0,0.0,0.0,0.0,0.0,0.0,0.0,0.0,0.0,0.0,0.0,0.0,0.0,0.0,0.0,0.0,0.0,0.0,0.0,0.0399,0.0882,0.2065,0.2815,0.3186,0.283,0.3271,0.0,0.4077,0.4858,0.5736,0.6513,0.6892,0.7533,0.8813,0.938,0.9735,0.9886,1.1588,1.3435,1.5194,1.6117,1.696,1.7908,1.8714,2.026,2.28,2.2998,2.3719,2.5408,2.5429,2.536,2.5293,2.5282,2.5217,2.5069,2.4961,2.4874,2.487,2.5555,2.5882,2.5938,2.7447,2.8146,2.8241,2.8909,2.9243,2.9169,2.7606,2.699,2.6874,2.5669,2.5143,2.5141,2.5488,2.5598,2.5601,0.0,0.0,0.0,0.0,0.0,0.0,0.0,0.0,0.0,0.0,-0.0733,-0.1202,-0.1758,-0.1787,-0.1837,0.0,0.0,0.0,0.0,0.0,0.0,0.0,0.0,0.0,-0.1752,-0.1674,-0.1798,-0.2224,-0.2115,-0.1882,-0.1569,-0.1433,-0.0806,0.0223,0.1034,0.1612,0.0,0.0,0.0,0.0,0.0,0.0,0.0,0.0,0.0,0.0,-0.2494,-0.2784,0.0,0.0,0.0,0.0,0.0,0.0,0.0,0.0,-0.1227,0.005,0.0169,0.0,0.1042,0.2532,0.2954,0.3043,0.0,0.0,0.0,0.0,0.0,0.0,0.0,0.6766,0.7713,0.8888,0.9798,1.0538,1.1037,1.2594,1.4119,1.5264,1.6115,1.6947,1.7842,1.925,2.0886,2.2778,2.3473,2.4284,2.5363,2.536,2.5273,2.5141,2.5094,2.5019,2.4861,2.4832,2.4712,2.4526,2.4748,2.4825,2.4791,2.522,2.606,2.7175,2.7341,2.7746,2.8183,2.7247,2.6526,2.5961,2.5291,2.5101,2.5124,2.4765,2.4666,2.4705,0.0,0.0,0.0,0.0,0.0,0.0,0.0,0.0,0.0,0.0,-0.0539,-0.1058,-0.1578,-0.1696,-0.187,0.0,0.0,0.0,0.0,0.0,0.0,0.0,0.0,-0.1166,-0.1523,-0.1389,-0.1477,-0.17,-0.1612,-0.157,-0.1527,-0.1344,-0.0806,0.0045,0.1047,0.1689,0.0,0.0,0.0,0.0,-0.1199,0.0,0.0,0.0,0.0,0.0,-0.2662,-0.2759,0.0,-0.334,-0.3368,-0.3166,0.0,0.0,0.0,0.0,-0.0483,0.0296,0.1269,0.1576,0.1827,0.2698,0.2976,0.3078,0.3268,0.0,0.0,0.0,0.0,0.0,0.0,0.6611,0.7872,0.833,0.9264,1.0322,1.146,1.2914,1.4238,1.527,1.5766,1.6502,1.7769,1.8693,2.0081,2.2191,2.2697,2.3452,2.4685,2.4313,2.4353,2.4994,2.4265,2.413,2.4746,2.4719,2.461,2.4392,2.4445,2.4392,2.432,2.4727,2.5375,2.6225,2.6554,2.6958,2.7288,2.6559,2.6061,2.5691,2.5252,2.493,2.4674,2.4434,2.412,2.3862,0.0,0.0,0.0,0.0,0.0,0.0,0.0,0.0,0.0,0.0,0.0,0.0,0.0,0.0,0.0,0.0,0.0,0.0,0.0,0.0,0.0,0.0,-0.1539,-0.1534,-0.1433,-0.1299,-0.121,-0.1208,-0.1164,-0.1211,-0.1394,-0.1256,-0.0801,-0.0044,0.1179,0.1795,0.0,0.0,0.0825,-0.0622,-0.1622,0.0,0.0,0.0,0.0,0.0,0.0,0.0,0.0,-0.2967,-0.2753,-0.2139,-0.14,0.0,0.0,0.0,0.0,0.0,0.2677,0.3046,0.2844,0.2771,0.298,0.3197,0.3189,0.0,0.0,0.0,0.0,0.0,0.0,0.6426,0.7875,0.7625,0.8633,1.0115,1.2006,1.3126,1.4179,1.5275,1.5345,1.5993,1.7723,1.783,1.8875,2.1499,2.1574,2.2177,2.3726,2.3055,2.3263,2.4655,2.3385,2.3309,2.4689,2.4516,2.4402,2.4394,2.4394,2.4339,2.4229,2.4929,2.5355,2.5539,2.616,2.6473,2.6479,2.5875,2.5645,2.562,2.5176,2.466,2.4112,2.4021,2.3532,2.3005,0.0,0.0,0.0,0.0,0.0,0.0,0.0,0.0,0.0,0.0,0.0,0.0,0.0,0.0,0.0,0.0,0.0,0.0,0.0,0.0,0.0,-0.1991,-0.1652,-0.1486,-0.157,-0.1167,-0.1077,-0.1299,-0.1254,-0.1299,-0.13,-0.1569,-0.0988,0.0357,0.1071,0.1567,0.1878,0.1333,0.061,-0.0238,-0.0913,0.0,0.0,0.0,0.0,0.0,0.0,0.0,0.0,-0.2099,-0.1491,-0.0783,-0.0598,0.0,0.0,0.0,0.0,0.0,0.3562,0.371,0.3458,0.3131,0.3125,0.3177,0.3122,0.0,0.0,0.0,0.0,0.0,0.0,0.6201,0.7334,0.7567,0.9538,1.1851,1.4116,1.4208,1.4374,1.5292,1.5399,1.602,1.7656,1.782,1.8858,2.1413,2.1602,2.1966,2.2853,2.2747,2.3056,2.3872,2.3587,2.3841,2.4689,2.3952,2.3859,2.4394,2.4394,2.4339,2.421,2.4487,2.4949,2.5522,2.5689,2.5744,2.5688,2.5743,2.5458,2.4908,2.4385,2.4172,2.4016,2.2689,2.2115,2.2026,0.0,0.0,0.0,0.0,0.0,0.0,0.0,0.0,0.0,0.0,0.0,0.0,0.0,0.0,0.0,0.0,0.0,0.0,0.0,0.0,-0.257,-0.2235,-0.1839,-0.1625,-0.1615,-0.1256,-0.1032,-0.0987,-0.0987,-0.1122,-0.1346,-0.1139,-0.0453,0.0637,0.1245,0.1751,0.2105,0.1705,0.101,0.0117,0.0,0.0,0.0,0.0,0.0,0.0,0.0,0.0,0.0,0.0,-0.0961,-0.0046,0.039,0.0,0.0,0.0,0.0,0.0,0.3722,0.3737,0.3586,0.359,0.3818,0.4009,0.3809,0.0,0.0,0.0,0.0,0.0,0.7236,0.8099,0.9104,1.0097,1.1984,1.3772,1.5004,1.4963,1.4939,1.5302,1.5374,1.5867,1.7044,1.7544,1.8471,2.0128,2.0623,2.1175,2.1892,2.145,2.1703,2.2857,2.2443,2.2806,2.4091,2.3719,2.3836,2.4442,2.4442,2.4442,2.4422,2.4493,2.475,2.5069,2.5071,2.5019,2.4984,2.5208,2.5145,2.4856,2.4315,2.3907,2.3413,2.1758,2.1718,2.2441,0.0,0.0,0.0,0.0,0.0,0.0,0.0,0.0,0.0,0.0,0.0,0.0,0.0,0.0,0.0,0.0,0.0,0.0,0.0,0.0,-0.2751,-0.2368,-0.2168,-0.1876,-0.1549,-0.1272,-0.1041,-0.0764,-0.0681,-0.0907,-0.1346,-0.0723,-0.004,0.0702,0.1405,0.1919,0.2249,0.2144,0.1521,0.0574,0.0,0.0,0.0,0.0,0.0,0.0,0.0,0.0,0.0,0.0,0.0,0.0,0.0,0.0,0.0,0.3261,0.313,0.3143,0.3773,0.3751,0.3746,0.4492,0.4724,0.0,0.0,0.0,0.0,0.0,0.0,0.8879,0.9142,1.0103,1.1352,1.2794,1.4168,1.5138,1.5348,1.5387,1.5384,1.5332,1.5368,1.5712,1.6522,1.7341,1.8167,1.9,1.9761,2.0431,2.094,2.0308,2.0538,2.1896,2.1548,2.2071,2.3604,2.3812,2.4138,2.4601,2.4601,2.4617,2.4663,2.4666,2.4682,2.4712,2.467,2.4623,2.4607,2.465,2.4717,2.4734,2.4141,2.3464,2.2629,2.1128,2.1382,2.2396,0.0,0.0,0.0,0.0,0.0,0.0,0.0,0.0,0.0,0.0,0.0,0.0,0.0,0.0,0.0,0.0,0.0,0.0,0.0,0.0,-0.2776,-0.2486,-0.2503,-0.2153,-0.1329,-0.1138,-0.0979,-0.09,-0.0653,-0.0744,-0.1207,-0.07,-0.0235,0.0271,0.1261,0.189,0.2221,0.2249,0.1927,0.1271,0.0483,0.0,0.0,0.0,0.0,0.0,0.0,0.0,0.0,0.0,0.0,0.0,0.0,0.0,0.3789,0.3477,0.3073,0.2963,0.4069,0.4074,0.4237,0.6199,0.5684,0.0,0.5867,0.6308,0.0,0.8053,0.0,0.7214,0.8797,1.1173,1.3254,1.4363,1.4953,1.5291,1.5303,1.5351,1.5409,1.5399,1.5404,1.5725,1.6514,1.7387,1.8197,1.8948,1.9746,2.0153,2.002,2.0004,2.0353,2.1148,2.1922,2.2754,2.3689,2.4441,2.4831,2.4855,2.4855,2.4861,2.4884,2.4874,2.4847,2.479,2.479,2.4823,2.4809,2.4228,2.4049,2.4086,2.3368,2.2608,2.1776,2.0855,2.0579,2.0677,0.0,0.0,0.0,0.0,0.0,0.0,0.0,0.0,0.0,0.0,0.0,0.0,0.0,0.0,0.0,0.0,0.0,0.0,0.0,-0.3021,-0.2879,-0.2645,-0.2511,-0.208,-0.1335,-0.1185,-0.1128,-0.1064,-0.067,-0.0363,-0.0124,0.004,0.0456,0.1102,0.1637,0.2078,0.2393,0.2245,0.1903,0.1409,0.0993,0.0518,0.0,0.0,0.0,0.0,0.0,0.0,0.0,0.0,0.084,0.1949,0.2771,0.3701,0.4301,0.3512,0.3479,0.3746,0.4012,0.4528,0.5276,0.6482,0.6772,0.0,0.0,0.7796,0.8045,0.8498,0.8932,0.9529,1.0494,1.114,1.2138,1.3967,1.4884,1.5365,1.5353,1.537,1.5395,1.5409,1.5407,1.5524,1.5813,1.6592,1.7404,1.8206,1.9001,1.9632,1.9992,1.9979,2.0077,2.0342,2.1167,2.2048,2.3008,2.3284,2.3707,2.4274,2.479,2.5038,2.5099,2.5038,2.5,2.4955,2.4404,2.448,2.4911,2.4273,2.4041,2.398,2.273,2.2062,2.1698,2.0823,2.084,2.123,0.0,0.0,0.0,0.0,0.0,0.0,0.0,0.0,0.0,0.0,0.0,0.0,0.0,0.0,0.0,0.0,0.0,0.0,-0.3019,-0.3074,-0.2952,-0.2705,-0.245,-0.1914,-0.0976,-0.0882,-0.0873,-0.1041,-0.0732,-0.0228,0.0482,0.0884,0.1257,0.1516,0.1962,0.2248,0.2355,0.2309,0.2076,0.1733,0.1444,0.1134,0.0,0.0,0.0,0.0,0.0,0.0,0.0,0.0,0.0678,0.1999,0.3045,0.3852,0.4302,0.3692,0.3881,0.4298,0.4311,0.4964,0.5918,0.6947,0.0,0.0,0.8741,0.8957,0.9034,0.9094,1.0201,1.1147,1.1026,1.1108,1.1913,1.4064,1.4974,1.5392,1.5392,1.5409,1.5403,1.5392,1.5407,1.5405,1.5392,1.613,1.682,1.735,1.8384,1.918,1.9631,1.9808,1.9896,1.9911,2.0684,2.1462,2.2182,2.2407,2.284,2.3501,2.4049,2.4473,2.4788,2.474,2.4865,2.5063,2.4472,2.4384,2.4586,2.3966,2.3562,2.3237,2.1917,2.1568,2.1698,2.0821,2.1042,2.1675,0.0,0.0,0.0,0.0,0.0,0.0,0.0,0.0,0.0,0.0,0.0,0.0,0.0,0.0,0.0,0.0,0.0,0.0,-0.2905,-0.3019,-0.2975,-0.2613,-0.2475,-0.1708,-0.0266,-0.0055,-0.0213,-0.0669,-0.0694,-0.0333,0.0463,0.1766,0.2003,0.135,0.2141,0.2357,0.2146,0.254,0.2543,0.2272,0.1804,0.1691,0.1814,0.0,0.0,0.0,0.0,0.0,0.0,0.0,0.0946,0.2692,0.3858,0.3938,0.3695,0.4102,0.4264,0.4445,0.5046,0.541,0.606,0.7832,0.0,0.0,0.9264,0.9743,0.9956,1.0165,1.1056,1.1374,0.9976,1.1258,1.31,1.4954,1.532,1.5392,1.5403,1.5409,1.5408,1.541,1.54,1.5391,1.5404,1.6113,1.6565,1.6508,1.8056,1.8904,1.8717,1.9465,1.9907,1.9904,2.0677,2.1166,2.1293,2.2083,2.2517,2.2598,2.2571,2.3031,2.3894,2.3892,2.4316,2.5063,2.5076,2.4624,2.3823,2.3083,2.2402,2.1716,2.0846,2.1021,2.1675,2.0826,2.1044,2.1678,0.0,0.0,0.0,0.0,0.0,0.0,0.0,0.0,0.0,0.0,0.0,0.0,0.0,0.0,0.0,0.0,0.0,0.0,-0.2919,-0.3135,-0.3229,-0.2977,-0.273,-0.2125,-0.1075,0.0259,0.0616,-0.005,0.005,0.0609,0.144,0.164,0.1749,0.1894,0.2196,0.25,0.274,0.291,0.2977,0.2918,0.2617,0.2361,0.2119,0.0,0.0,0.0,0.0,0.0,0.0,0.0,0.0,0.0,0.5381,0.5314,0.4434,0.5453,0.5621,0.5619,0.6106,0.6626,0.7084,0.7448,0.0,0.0,0.0,0.8864,0.0,0.0,1.0463,1.0605,1.1323,1.2144,1.2487,1.1762,1.3724,1.5357,1.5385,1.5406,1.539,1.5408,1.5407,1.5406,1.5406,1.5578,1.5929,1.6538,1.7559,1.8388,1.8885,1.9621,2.002,1.9971,2.0157,2.0561,2.1221,2.0854,2.1294,2.2502,2.1278,2.1502,2.2988,2.2985,2.3084,2.3246,2.2665,2.2634,2.2936,2.2249,2.1869,2.1643,2.0827,2.0633,2.0794,2.0579,2.0659,2.0938,0.0,0.0,0.0,0.0,0.0,0.0,0.0,0.0,0.0,0.0,0.0,0.0,0.0,0.0,0.0,0.0,0.0,0.0,0.0,-0.3044,-0.3092,-0.3021,-0.2599,-0.1882,-0.0823,0.0618,0.1178,0.0756,0.0922,0.1335,0.1895,0.1811,0.1873,0.2004,0.2262,0.2673,0.3167,0.3541,0.3552,0.3353,0.3374,0.2971,0.2285,0.0,0.0,0.0,0.0,0.0,0.0,0.0,0.0,0.0,0.5866,0.6126,0.5414,0.6019,0.6547,0.6885,0.6778,0.7315,0.7892,0.7812,0.8582,0.9265,0.888,0.8964,0.9372,1.0285,1.0621,1.0997,1.1804,1.1855,1.1409,1.0325,1.247,1.4569,1.5309,1.5401,1.5408,1.5391,1.5391,1.5391,1.5408,1.5353,1.5557,1.6048,1.6832,1.7639,1.8439,1.9162,1.9668,1.9941,1.9835,2.002,2.0558,2.0032,2.0308,2.1337,2.0609,2.0671,2.1424,2.1824,2.2154,2.2369,2.1593,2.1594,2.2077,2.1371,2.1127,2.115,2.0642,2.0429,2.0404,2.0449,2.0709,2.1044,0.0,0.0,0.0,0.0,0.0,0.0,0.0,0.0,0.0,0.0,0.0,0.0,0.0,0.0,0.0,0.0,0.0,0.0,0.0,0.0,-0.2812,-0.2856,-0.2221,-0.1224,0.0,0.1013,0.1519,0.1564,0.1722,0.1822,0.189,0.2254,0.2221,0.1839,0.2262,0.2768,0.3323,0.4139,0.4229,0.3807,0.4049,0.3517,0.2509,0.2006,0.0,0.0,0.0,0.0,0.0,0.0,0.0,0.0,0.5543,0.6373,0.6406,0.612,0.7092,0.8067,0.7112,0.764,0.8481,0.8593,0.8853,0.9125,0.9397,0.9675,0.9925,1.0,1.1041,1.1838,1.1529,1.1034,1.056,1.026,1.1541,1.3223,1.5134,1.5392,1.5395,1.5401,1.5405,1.5409,1.5408,1.5398,1.5375,1.5303,1.6048,1.6827,1.7535,1.8306,1.9046,1.9741,1.9663,1.9601,1.9582,1.9572,1.9609,1.9713,2.0346,2.0327,1.9699,2.0646,2.1444,2.2034,2.1365,2.1154,2.1225,2.0558,2.0347,2.039,2.0413,2.041,2.04,2.04,2.0958,2.1574,0.0,0.0,0.0,0.0,0.0,0.0,0.0,0.0,0.0,0.0,0.0,0.0,0.0,0.0,0.0,0.0,0.0,0.0,0.0,0.0,-0.2759,-0.2742,-0.1895,-0.1076,-0.0333,0.081,0.1413,0.1363,0.1628,0.1773,0.1924,0.2505,0.2536,0.2049,0.2016,0.2156,0.243,0.3171,0.4207,0.5276,0.472,0.4192,0.3596,0.2356,0.1661,0.0,0.0,0.0,0.0,0.0,0.0,0.0,0.5257,0.5839,0.6242,0.6886,0.7545,0.7953,0.7416,0.8055,0.0,0.8136,0.8772,0.9613,0.9819,0.9889,0.98,0.9471,0.9723,1.0122,1.0515,1.2607,1.3394,1.0714,1.0594,1.1904,1.4963,1.5392,1.5391,1.5392,1.54,1.5407,1.539,1.5401,1.5397,1.5375,1.6072,1.6551,1.6676,1.8018,1.8799,1.8791,1.9326,1.9569,1.9513,1.9467,1.9781,2.0459,1.9956,1.9896,2.0323,2.0689,2.0634,2.0245,2.021,2.0256,2.0384,2.0323,2.0347,2.0413,2.0464,2.0478,2.0473,2.0482,2.0612,2.0842,0.0,0.0,0.0,0.0,0.0,0.0,0.0,0.0,0.0,0.0,0.0,0.0,0.0,0.0,0.0,0.0,0.0,0.0,0.0,0.0,-0.2493,-0.2238,-0.19,-0.1331,-0.0427,0.064,0.1256,0.1463,0.1714,0.206,0.2545,0.3023,0.3037,0.2589,0.2192,0.2279,0.2767,0.3351,0.4357,0.5538,0.5106,0.4555,0.3876,0.2721,0.1987,0.1587,0.1659,0.0,0.0,0.0,0.0,0.0,0.0,0.0,0.6345,0.7168,0.7745,0.8141,0.8075,0.8656,0.0,0.8931,0.0,0.9973,1.0069,1.0079,0.9972,0.9738,0.9754,1.0077,1.0911,1.3443,1.482,1.3025,1.2744,1.3362,1.5143,1.5403,1.5394,1.5391,1.5398,1.5407,1.5408,1.5784,1.6011,1.599,1.6682,1.7253,1.7531,1.8251,1.8757,1.8964,1.9263,1.9368,1.9305,1.9227,1.9447,1.9916,1.9784,1.9917,2.0298,2.0163,1.9921,1.9623,1.9788,1.9928,2.0079,2.0227,2.0347,2.0416,2.0464,2.0488,2.0448,2.0449,2.0463,2.0569,0.0,0.0,0.0,0.0,0.0,0.0,0.0,0.0,0.0,0.0,0.0,0.0,0.0,0.0,0.0,0.0,0.0,0.0,0.0,0.0,0.0,-0.1687,-0.1895,-0.1567,-0.0509,0.0365,0.104,0.1514,0.1852,0.2403,0.317,0.3478,0.3434,0.313,0.2414,0.2472,0.3124,0.3538,0.4182,0.494,0.5093,0.4641,0.3807,0.2896,0.2304,0.1945,0.2091,0.2126,0.2258,0.3156,0.0,0.0,0.0,0.0,0.6464,0.7049,0.765,0.8168,0.8332,0.8776,0.9356,0.9863,1.0077,0.0,1.0176,1.0176,1.0194,1.0195,1.0248,1.0552,1.1458,1.3203,1.4608,1.4902,1.4958,1.4971,1.5085,1.51,1.5182,1.5387,1.5398,1.5408,1.5405,1.6187,1.6661,1.6615,1.7354,1.8024,1.8548,1.8531,1.8728,1.9234,1.9188,1.9134,1.9049,1.8983,1.8984,1.9036,1.9542,1.9809,1.9846,1.9443,1.9338,1.9489,1.9701,1.9855,1.9993,2.02,2.0257,2.0198,2.0415,2.0376,2.0214,2.0351,2.0444,2.0449,0.0,0.0,0.0,0.0,0.0,0.0,0.0,0.0,0.0,0.0,0.0,0.0,0.0,0.0,0.0,0.0,0.0,0.0,0.0,0.0,0.0,-0.1452,-0.1417,-0.1183,-0.074,0.0051,0.0709,0.116,0.1709,0.2345,0.0,0.0,0.3375,0.2904,0.2415,0.2063,0.1868,0.24,0.2946,0.3556,0.4308,0.4327,0.3759,0.2484,0.2041,0.2057,0.1905,0.2174,0.2682,0.3172,0.3774,0.0,0.0,0.0,0.6182,0.6385,0.6966,0.7397,0.6789,0.0,0.8066,0.0,0.9975,0.9975,1.0098,1.0101,1.0122,1.0198,1.0207,1.0273,1.0487,1.072,1.1384,1.2891,1.3144,1.3316,1.3771,1.3887,1.4299,1.527,1.5394,1.5408,1.5408,1.619,1.6667,1.6604,1.7359,1.7767,1.7693,1.813,1.8335,1.8214,1.8799,1.9034,1.8843,1.8843,1.8843,1.8843,1.8932,1.8967,1.8985,1.902,1.9135,1.9344,1.9604,1.979,1.9934,2.0192,1.9896,1.937,2.0177,2.004,1.9433,2.0133,2.0405,2.0298,0.0,0.0,0.0,0.0,0.0,0.0,0.0,0.0,0.0,0.0,0.0,0.0,0.0,0.0,0.0,0.0,0.0,0.0,0.0,0.0,0.0,-0.1372,-0.1233,-0.0906,-0.0351,0.0403,0.0948,0.127,0.1598,0.0,0.0,0.2572,0.2862,0.0,0.2943,0.2555,0.2255,0.2911,0.3189,0.3213,0.3417,0.3559,0.3542,0.2437,0.1971,0.193,0.196,0.2358,0.2931,0.3383,0.3861,0.4311,0.4443,0.0,0.0,0.0,0.6523,0.695,0.7458,0.7819,0.8339,0.0,0.972,0.9763,0.9898,0.9955,1.0031,1.0169,1.0209,1.0203,1.0245,1.0649,1.1089,1.1345,1.2187,1.2767,1.2666,1.3771,1.4803,1.5336,1.5397,1.5409,1.5408,1.615,1.6833,1.7295,1.7559,1.7799,1.8099,1.826,1.8194,1.7902,1.8634,1.8931,1.8696,1.8659,1.8603,1.8581,1.8638,1.8676,1.8678,1.8481,1.8701,1.9266,1.9564,1.9786,1.9924,2.0185,1.9832,1.9128,1.9605,1.923,1.8503,1.8862,1.9003,1.8945,0.0,0.0,0.0,0.0,0.0,0.0,0.0,0.0,0.0,0.0,0.0,0.0,0.0,0.0,0.0,0.0,0.0,0.0,0.0,0.0,0.0,-0.1526,-0.1248,-0.0777,-0.0048,0.0437,0.0922,0.1333,0.0,0.0,0.2284,0.2096,0.2594,0.0,0.3324,0.3027,0.2737,0.3345,0.3362,0.3023,0.2875,0.3024,0.3157,0.191,0.1581,0.1844,0.2159,0.2686,0.3258,0.3634,0.3919,0.4136,0.4241,0.4452,0.0,0.0,0.0,0.6345,0.0,0.0,0.8311,0.8963,0.929,0.9437,0.939,0.9619,0.9796,0.9566,0.9865,1.0101,0.9916,1.0635,1.1065,1.0405,1.1328,1.2063,1.1835,1.3457,1.4762,1.505,1.5263,1.5409,1.5408,1.6124,1.6956,1.782,1.7709,1.789,1.8553,1.8372,1.8029,1.7535,1.8427,1.8699,1.8246,1.836,1.8426,1.8426,1.8561,1.8619,1.8585,1.8285,1.8507,1.9119,1.9332,1.9496,1.9649,1.9869,1.9497,1.877,1.8828,1.8314,1.7568,1.7781,1.7864,1.7825,0.0,0.0,0.0,0.0,0.0,0.0,0.0,0.0,0.0,0.0,0.0,0.0,0.0,0.0,-0.2071,-0.2183,0.0,0.0,0.0,0.0,0.0,-0.2048,-0.1499,0.0,-0.019,-0.0275,0.0138,0.0,0.0,0.0,0.2504,0.2612,0.2855,0.323,0.3195,0.3024,0.2707,0.0,0.2855,0.2565,0.3003,0.3008,0.2506,0.0424,0.0542,0.1896,0.2541,0.3198,0.3777,0.3858,0.3904,0.3953,0.4141,0.4336,0.4558,0.0,0.0,0.0,0.0,0.66,0.0,0.7894,0.8557,0.8872,0.8306,0.8985,0.9326,0.7929,0.8956,0.9864,0.9114,0.9727,1.0352,1.0311,1.0312,1.0605,1.1417,1.2325,1.3245,1.4071,1.491,1.5409,1.5406,1.6137,1.6938,1.7747,1.7689,1.7886,1.8558,1.8297,1.7687,1.6777,1.8019,1.8249,1.7267,1.7902,1.8307,1.8485,1.8622,1.8658,1.8616,1.877,1.8825,1.8807,1.8705,1.872,1.8878,1.9012,1.8596,1.7876,1.7868,1.7331,1.6681,1.7503,1.7805,1.769,0.0,0.0,0.0,0.0,0.0,0.0,0.0,0.0,0.0,0.0,0.0,0.0,0.0,-0.1905,-0.2071,-0.2183,-0.2336,0.0,0.0,0.0,0.0,-0.2102,-0.182,-0.1354,-0.0732,-0.0361,0.018,0.0,0.0,0.1568,0.2771,0.2457,0.2452,0.2683,0.3046,0.2937,0.2518,0.2727,0.0,0.2613,0.2476,0.1549,0.0318,0.0942,0.0755,0.0171,-0.0065,0.158,0.3857,0.3788,0.3831,0.3913,0.3986,0.4085,0.4262,0.4738,0.0,0.0,0.0,0.0,0.0,0.672,0.7181,0.7493,0.7681,0.7604,0.7403,0.7004,0.7452,0.8129,0.8777,0.9627,1.0253,1.0287,1.0273,1.0368,1.0631,1.1421,1.2076,1.2386,1.3697,1.4568,1.4569,1.5288,1.609,1.6904,1.627,1.6183,1.6882,1.6731,1.6392,1.5875,1.7379,1.8163,1.8103,1.8248,1.8385,1.8505,1.8584,1.8603,1.8524,1.8146,1.795,1.7879,1.7497,1.7789,1.8518,1.8215,1.7622,1.69,1.69,1.6366,1.5638,1.5959,1.6087,1.6067,0.0,0.0,0.0,0.0,0.0,0.0,0.0,0.0,0.0,0.0,0.0,0.0,0.0,0.0,-0.2275,-0.2277,-0.2784,-0.289,-0.2485,-0.2805,-0.2773,-0.2238,-0.2091,-0.1666,-0.0921,-0.0302,0.0215,0.0,0.0,0.0,0.0,0.2226,0.2197,0.2415,0.2877,0.2733,0.0,0.0,0.2294,0.2306,0.2047,0.1143,0.0077,0.094,0.0944,0.038,-0.033,0.1268,0.3721,0.3606,0.3655,0.3756,0.3734,0.3858,0.4119,0.47,0.0,0.0,0.5436,0.0,0.0,0.0,0.6302,0.6608,0.6731,0.6625,0.6398,0.601,0.6433,0.7102,0.7849,0.8697,0.9485,1.0182,1.0273,1.0253,1.0231,1.0961,1.1515,1.1533,1.2799,1.3787,1.4061,1.4561,1.5292,1.6314,1.5445,1.5179,1.5857,1.5766,1.5823,1.61,1.6884,1.7716,1.8547,1.8408,1.8385,1.8465,1.8563,1.8544,1.8371,1.7944,1.7557,1.7222,1.6647,1.6968,1.7861,1.7283,1.678,1.6308,1.6019,1.556,1.5068,1.5059,1.5087,1.5121,0.0,0.0,0.0,0.0,0.0,0.0,0.0,0.0,0.0,-0.1457,0.0,0.0,0.0,0.0,0.0,-0.2594,-0.3234,-0.3354,-0.2778,-0.3283,-0.3278,-0.2512,-0.2367,-0.1802,-0.0757,-0.0241,0.0196,0.0,0.0,0.0,0.0,0.0,0.2127,0.2407,0.2672,0.2377,0.1665,0.1477,0.1472,0.1557,0.1697,0.1853,0.1808,0.0205,0.087,0.2611,0.2062,0.2523,0.3395,0.3332,0.3408,0.3488,0.3441,0.3694,0.4118,0.4647,0.0,0.0,0.0,0.0,0.0,0.0,0.5943,0.6244,0.5446,0.6076,0.6399,0.4908,0.595,0.693,0.6292,0.6818,0.7976,0.9899,1.0162,1.0148,1.0254,1.0929,1.1463,1.1551,1.2278,1.3085,1.3938,1.3989,1.455,1.5969,1.5247,1.499,1.56,1.5522,1.6073,1.7435,1.664,1.6941,1.8487,1.8307,1.8266,1.8406,1.854,1.8443,1.8187,1.8187,1.7752,1.6969,1.6271,1.632,1.6818,1.6204,1.6036,1.607,1.5218,1.4942,1.4995,1.4979,1.5,1.4992,0.0,0.0,0.0,0.0,0.0,0.0,-0.0939,-0.1087,-0.1391,0.0,0.0,0.0,0.0,-0.3183,-0.3762,-0.4069,-0.4168,-0.4058,-0.3673,-0.3285,-0.2922,-0.2572,-0.2296,-0.1943,-0.144,-0.0711,0.0196,0.1333,0.106,0.1295,0.1958,0.19,0.2015,0.0,0.2181,0.1803,0.1197,0.1453,0.1042,0.0244,0.0572,0.0242,-0.0437,-0.0578,-0.0408,0.0225,0.2712,0.3483,0.3392,0.3761,0.3672,0.3499,0.3862,0.4112,0.0,0.4639,0.0,0.0,0.4305,0.0,0.0,0.0,0.0,0.0,0.4524,0.4773,0.4978,0.4614,0.4878,0.5305,0.5754,0.6024,0.658,0.7844,0.8167,0.8483,0.918,0.947,0.9882,1.0584,1.1367,1.1948,1.2136,1.2665,1.3147,1.3507,1.3191,1.329,1.394,1.4338,1.526,1.6799,1.6475,1.7064,1.8696,1.8465,1.8365,1.8385,1.8406,1.8187,1.7844,1.7777,1.7592,1.7233,1.6065,1.5797,1.6105,1.5264,1.4976,1.5085,1.486,1.4804,1.485,1.4859,1.4894,1.4933,0.0,0.0,0.0,0.0,0.0,-0.1427,-0.1086,-0.1068,-0.1306,0.0,0.0,0.0,0.0,-0.3978,-0.4645,-0.4958,-0.4908,-0.4684,-0.4222,-0.3586,-0.2959,-0.2477,-0.2145,-0.1644,-0.1065,-0.0559,0.0258,0.1401,0.1071,0.1219,0.1809,0.1786,0.1831,0.2003,0.0,0.0,0.0,0.1076,0.0449,-0.0551,-0.0457,-0.1111,-0.2093,-0.1442,-0.0967,-0.0284,0.2296,0.3264,0.3415,0.396,0.3995,0.3985,0.4979,0.475,0.4301,0.5312,0.4735,0.0,0.0,0.0,0.0,0.3762,0.0,0.0,0.4331,0.4291,0.431,0.4431,0.4286,0.4306,0.4846,0.4972,0.5209,0.5871,0.6108,0.6693,0.807,0.8566,0.8994,0.9555,1.0341,1.0958,1.1286,1.1723,1.2074,1.2322,1.2231,1.2465,1.3099,1.3715,1.4606,1.5882,1.579,1.6359,1.7648,1.7737,1.7755,1.7734,1.7945,1.7849,1.7502,1.7384,1.7148,1.6755,1.5719,1.53,1.5262,1.4534,1.4344,1.4508,1.4552,1.4603,1.4645,1.4697,1.4785,1.4875,0.0,0.0,-0.168,-0.1785,-0.1469,-0.1364,-0.1574,-0.1425,-0.143,0.0,-0.2431,-0.3087,-0.4017,-0.4835,-0.5404,-0.5557,-0.5444,-0.5188,-0.4587,-0.3893,-0.3166,-0.2328,-0.1873,-0.1123,-0.0072,0.0069,0.0469,0.1168,0.09,0.1033,0.1534,0.1663,0.1727,0.1755,0.0,0.0,0.0,0.0486,-0.0173,-0.0992,-0.1309,-0.2087,-0.2973,-0.2129,-0.0999,0.028,0.1385,0.252,0.3613,0.4247,0.4543,0.4889,0.6287,0.5421,0.4274,0.6158,0.5317,0.0,0.0,0.0,0.0,0.4079,0.4318,0.0,0.4483,0.4246,0.4076,0.4208,0.3934,0.3672,0.3729,0.3799,0.3914,0.4141,0.425,0.4991,0.6946,0.792,0.8486,0.8652,0.936,1.0158,1.0928,1.0948,1.1187,1.1854,1.1984,1.2285,1.2822,1.3429,1.4143,1.4942,1.4893,1.5279,1.6167,1.6635,1.687,1.691,1.7406,1.7479,1.7142,1.7018,1.6629,1.603,1.5452,1.4997,1.4705,1.4286,1.4133,1.4206,1.4325,1.4387,1.4398,1.4526,1.4668,1.4784,0.0,0.0,-0.1951,-0.1704,-0.1656,-0.1849,-0.2376,-0.3383,-0.3776,-0.2899,-0.3658,-0.4599,-0.5397,-0.5627,-0.5892,-0.6427,-0.5848,-0.532,-0.5,-0.376,-0.2795,-0.226,-0.1541,-0.0643,0.0376,0.071,0.1086,0.1509,0.1223,0.1286,0.1658,0.1783,0.1876,0.1938,0.0,0.0,0.0,-0.0,-0.0681,-0.1399,-0.1565,-0.1887,-0.2164,-0.1557,-0.0908,-0.0065,0.1658,0.3097,0.4392,0.5701,0.615,0.6174,0.6221,0.574,0.5184,0.54,0.4893,0.4304,0.4487,0.4633,0.4567,0.3878,0.4115,0.0,0.3766,0.3665,0.3602,0.3264,0.2965,0.2746,0.2706,0.2796,0.2995,0.3355,0.3613,0.4313,0.5887,0.6814,0.7586,0.8361,0.9065,0.9576,0.9739,0.9686,0.9951,1.0683,1.1716,1.2359,1.2491,1.3114,1.3869,1.4727,1.4641,1.5273,1.6738,1.6631,1.6874,1.744,1.7396,1.7158,1.6799,1.6712,1.6622,1.6447,1.5895,1.5884,1.6228,1.5655,1.4908,1.4123,1.415,1.4219,1.4338,1.4403,1.4515,1.468,0.0,-0.2053,-0.1956,-0.1859,-0.1811,-0.1963,-0.2374,-0.4235,-0.5494,-0.5259,-0.5457,-0.5742,-0.6066,-0.6257,-0.6519,-0.6934,-0.6437,-0.5874,-0.5356,-0.4102,-0.2998,-0.2034,-0.097,-0.0104,0.0471,0.0948,0.1145,0.1048,0.0895,0.1057,0.1557,0.1849,0.2114,0.2321,0.1985,0.0,0.0,0.0151,-0.0467,-0.1197,-0.1845,-0.2291,-0.2497,-0.2,-0.1116,0.0083,0.1869,0.4079,0.6241,0.6848,0.7408,0.7749,0.722,0.6777,0.6454,0.6531,0.5579,0.4565,0.4862,0.4607,0.4217,0.4038,0.4015,0.0,0.0,0.3502,0.3083,0.2856,0.2239,0.1818,0.2062,0.2101,0.2324,0.2988,0.3519,0.4034,0.4582,0.57,0.6757,0.7553,0.8388,0.894,0.9041,0.9047,0.9314,0.9954,1.1244,1.2039,1.2102,1.2689,1.3307,1.3886,1.378,1.4297,1.5539,1.5687,1.6127,1.6848,1.6963,1.6876,1.6659,1.6543,1.6554,1.6612,1.6128,1.618,1.6572,1.5596,1.4916,1.4493,1.4491,1.436,1.4167,1.4234,1.4391,1.4587,0.0,-0.2069,-0.198,-0.2123,-0.2074,-0.2045,-0.2203,-0.4319,-0.6374,-0.7542,-0.707,-0.6632,-0.6721,-0.6957,-0.7209,-0.746,-0.6935,-0.6325,-0.5684,-0.4431,-0.3162,-0.1807,-0.0512,0.0332,0.0671,0.0953,0.0949,0.0665,0.0511,0.0686,0.1237,0.1672,0.214,0.2639,0.2091,0.0,0.0,0.0481,-0.0133,-0.0852,-0.1946,-0.2602,-0.2873,-0.2466,-0.1202,0.0669,0.2762,0.5458,0.8024,0.808,0.869,0.9339,0.8806,0.8312,0.7975,0.8302,0.7013,0.5605,0.6233,0.5526,0.4643,0.4749,0.4343,0.3974,0.0,0.0,0.0,0.2322,0.1636,0.1139,0.1292,0.1316,0.1551,0.2301,0.3209,0.3683,0.3359,0.4445,0.5606,0.6495,0.7555,0.829,0.8469,0.8849,0.9316,0.9843,1.1041,1.1779,1.192,1.2362,1.2738,1.3013,1.3037,1.3481,1.4338,1.4918,1.557,1.6334,1.6593,1.6686,1.6633,1.6463,1.6517,1.669,1.633,1.6394,1.6728,1.5639,1.5157,1.5054,1.4758,1.4381,1.3998,1.4038,1.4216,1.4478,-0.231,-0.2217,-0.217,-0.217,-0.253,-0.2647,-0.2262,-0.3755,-0.5783,0.0,-0.7593,-0.7361,-0.8227,-0.8108,-0.8031,-0.8173,-0.6989,-0.6213,-0.6123,-0.4281,-0.2686,-0.1578,-0.0525,0.0446,0.1371,0.0697,0.0659,0.1303,0.0742,0.0537,0.061,0.0912,0.1572,0.2507,0.2196,0.1793,0.0,0.047,-0.0156,-0.069,-0.1607,-0.206,-0.2196,-0.21,-0.0609,0.1907,0.5542,0.7536,0.8623,0.9842,1.0403,1.064,1.0866,1.0401,0.979,0.9839,0.9295,0.8773,0.9134,0.8774,0.795,0.6455,0.5644,0.479,0.3241,0.0,0.2385,0.0953,0.0,0.1065,-0.0184,0.0,0.0,0.0335,0.1708,0.2728,0.2626,0.2868,0.3673,0.5286,0.6684,0.7563,0.7707,0.9173,1.0348,1.0883,1.173,1.2282,1.2418,1.232,1.2412,1.2738,1.3308,1.4004,1.4805,1.5535,1.6312,1.715,1.686,1.6738,1.6763,1.6517,1.6543,1.6789,1.6735,1.7036,1.7552,1.7406,1.6731,1.566,1.428,1.3802,1.392,1.3913,1.4051,1.4252,-0.2324,-0.2281,0.0,-0.2373,-0.2553,-0.2718,-0.2763,-0.4534,-0.6276,-0.7462,-0.8052,-0.857,-0.9055,-0.8871,-0.8727,-0.8812,-0.7788,-0.6786,-0.5945,-0.4332,-0.2895,-0.1772,-0.0456,0.0531,0.115,0.0997,0.0949,0.1054,0.0762,0.0567,0.0448,0.068,0.1312,0.2262,0.2401,0.2027,0.1336,0.1279,0.055,-0.0622,-0.0875,-0.1471,-0.2158,-0.171,0.0647,0.41,0.72,0.9035,0.9941,0.987,1.0973,1.2146,1.0834,1.095,1.136,1.0379,0.9809,0.9514,0.9663,0.9229,0.8399,0.6988,0.6074,0.5107,0.352,0.2439,0.1457,0.0391,0.0,0.0,0.0,0.0,0.0,0.0,0.0283,0.1419,0.1712,0.2559,0.3605,0.4808,0.5647,0.6505,0.7446,0.899,1.0106,1.0494,1.1422,1.1982,1.2086,1.2081,1.2396,1.3077,1.3441,1.425,1.5522,1.5882,1.6473,1.7314,1.6917,1.6825,1.6952,1.6607,1.6675,1.7016,1.6993,1.7248,1.7676,1.732,1.6942,1.6381,1.4795,1.4067,1.3906,1.3934,1.4037,1.4159,-0.2417,0.0,0.0,-0.2505,-0.2633,-0.2976,-0.382,-0.5216,-0.6469,-0.736,-0.8257,-0.9096,-0.9907,-0.976,-0.9678,-0.9933,-0.8864,-0.7632,-0.6366,-0.4802,-0.333,-0.1952,-0.0887,0.0028,0.0783,0.0861,0.0804,0.0603,0.0725,0.0651,0.0403,0.0601,0.1201,0.2118,0.275,0.2429,0.1463,0.1826,0.1099,-0.0311,-0.0153,-0.0354,-0.0738,-0.0461,0.2082,0.5811,0.8179,0.9828,1.0794,1.0421,1.168,1.3173,1.1751,1.2132,1.2936,1.2103,1.1466,1.1059,1.1156,1.0532,0.9445,0.7738,0.6679,0.555,0.3594,0.23,0.1214,0.0119,-0.1033,0.0,0.0,0.0,-0.1579,0.0,0.0,0.0103,0.066,0.2027,0.3337,0.4311,0.4959,0.5888,0.7365,0.8734,0.971,1.0116,1.1125,1.1768,1.1869,1.2158,1.2559,1.3147,1.3855,1.4712,1.5713,1.6017,1.6429,1.6985,1.6693,1.6627,1.6784,1.6642,1.6779,1.7215,1.715,1.7337,1.7631,1.7219,1.7007,1.6821,1.5666,1.49,1.4428,1.4038,1.3941,1.4026,-0.2733,-0.2647,0.0,-0.2605,-0.2802,-0.3636,-0.562,-0.5444,-0.5955,-0.8438,-0.8032,-0.8506,-1.098,-1.0976,-1.1126,-1.183,-1.0156,-0.8694,-0.7791,-0.5857,-0.3913,-0.1984,-0.2041,-0.1289,0.0474,-0.0052,-0.0201,0.0125,0.0701,0.0782,0.0397,0.0596,0.1191,0.215,0.3322,0.3099,0.1781,0.1723,0.1194,0.0378,0.0442,0.1541,0.3018,0.2132,0.3658,0.6521,0.8419,0.9709,1.0758,1.2266,1.2966,1.342,1.4724,1.4752,1.4605,1.5913,1.5427,1.4517,1.4845,1.4009,1.2303,0.9132,0.7788,0.6357,0.301,0.2556,0.2219,0.0057,-0.0935,-0.1683,-0.2558,-0.1273,0.0,0.0,0.0,0.0,0.0,0.077,0.2171,0.3562,0.4831,0.61,0.7375,0.848,0.9447,1.0221,1.1226,1.1869,1.2091,1.2715,1.2886,1.2542,1.4684,1.5561,1.5033,1.5862,1.6269,1.6229,1.603,1.5975,1.6038,1.6495,1.6882,1.7215,1.7215,1.7338,1.7612,1.7647,1.732,1.6785,1.6751,1.6394,1.5749,1.419,1.37,1.3809,0.0,0.0,0.0,0.0,-0.3082,-0.3617,-0.4309,-0.5763,-0.7855,-1.0851,-1.062,-1.0948,-1.3117,-1.2904,-1.2587,-1.2545,-1.0824,-0.9149,-0.7699,-0.5456,-0.3807,-0.2917,-0.161,-0.0725,-0.0365,-0.0461,-0.035,0.0023,0.0064,0.0549,0.0,0.1901,0.2363,0.2837,0.3254,0.3488,0.3575,0.3424,0.2672,0.1639,0.2146,0.3634,0.5444,0.4507,0.5511,0.7559,0.8551,1.0369,1.238,1.2961,1.4123,1.5356,1.5505,1.5486,1.5484,1.5958,1.5921,1.5675,1.5424,1.5206,1.4289,1.1062,0.8866,0.6899,0.4572,0.3045,0.1691,0.0231,0.0036,-0.0412,-0.2147,-0.1701,0.0,0.0,0.0,0.0,0.0,0.1961,0.3399,0.4495,0.5049,0.5782,0.6928,0.8133,0.9193,1.0031,1.0995,1.1874,1.2606,1.2924,1.3312,1.3807,1.5167,1.5579,1.4951,1.589,1.6297,1.619,1.5603,1.584,1.6767,1.6346,1.6572,1.7273,1.7273,1.7353,1.7479,1.7641,1.758,1.7354,1.6919,1.6625,1.635,1.5451,1.483,1.4238,-0.3548,-0.3847,-0.3859,-0.3285,-0.3941,-0.4577,-0.4782,-0.6053,-0.812,-1.1314,-1.2698,-1.3634,-1.4221,-1.4104,-1.3816,-1.3488,-1.2192,-1.0404,-0.799,-0.6487,-0.4921,-0.325,-0.2257,-0.1502,-0.1031,-0.0935,-0.0648,-0.0178,-0.0127,0.0379,0.0,0.0,0.0,0.2847,0.371,0.4324,0.4708,0.4657,0.3955,0.2993,0.388,0.5237,0.6669,0.6145,0.697,0.8519,0.9202,1.0961,1.3075,1.366,1.4881,1.6133,1.6023,1.6027,1.6157,1.657,1.6641,1.659,1.6397,1.6167,1.5309,1.2553,1.0469,0.8433,0.5906,0.4339,0.3012,0.1514,0.1271,0.095,-0.0296,-0.076,0.0,0.0,0.0,0.0,0.0,0.2789,0.4047,0.4993,0.5135,0.558,0.6628,0.7772,0.8865,0.9859,1.0754,1.1776,1.2978,1.3313,1.3729,1.4374,1.5542,1.5743,1.4885,1.5846,1.6114,1.5694,1.5489,1.584,1.6678,1.6427,1.6678,1.7306,1.7297,1.7353,1.7408,1.7566,1.7595,1.7545,1.7093,1.6953,1.6884,1.607,1.5255,1.428,-0.4105,-0.4272,-0.4292,-0.4047,-0.5233,-0.6382,-0.6965,-0.6327,-0.6956,-1.0164,-1.4278,-1.6243,-1.4502,-1.4708,-1.4902,-1.4774,-1.42,-1.2328,-0.8747,-0.8765,-0.7122,-0.3149,-0.3879,-0.3447,-0.1451,-0.1381,-0.1074,-0.0426,0.0111,0.0308,0.0,0.0,0.0,0.0,0.4668,0.5562,0.5292,0.5446,0.5093,0.4535,0.557,0.6404,0.7017,0.7212,0.8143,0.9452,1.0293,1.1518,1.2951,1.4405,1.5308,1.5889,1.642,1.652,1.6675,1.7808,1.772,1.7347,1.7791,1.6965,1.554,1.3706,1.2486,1.0775,0.7011,0.6421,0.6019,0.3806,0.2815,0.2405,0.2667,0.1409,0.0412,0.0,0.0,0.0,0.0,0.3234,0.4125,0.5071,0.5187,0.5552,0.6533,0.7455,0.85,0.9722,1.0546,1.1657,1.3193,1.3797,1.4126,1.4208,1.5753,1.601,1.4802,1.5733,1.5727,1.4854,1.5658,1.5958,1.5879,1.6686,1.715,1.7281,1.7281,1.7338,1.7384,1.7448,1.7448,1.7384,1.732,1.7368,1.7319,1.6005,1.4974,1.4007,-0.4678,-0.5123,-0.5486,-0.5522,-0.5946,-0.6567,-0.7383,-0.7313,-0.8989,-1.4046,-1.5962,-1.6996,-1.7273,-1.7188,-1.671,-1.5676,-1.4852,-1.3204,-1.0373,-0.9285,-0.7789,-0.565,-0.3535,-0.2117,-0.1484,-0.118,-0.0529,0.046,0.0324,0.046,0.0858,0.0,0.0,0.0,0.5339,0.6935,0.7739,0.719,0.7281,0.7741,0.7438,0.8267,0.9718,0.9813,1.0476,1.1267,1.0721,1.2154,1.4388,1.5001,1.6045,1.7188,1.7626,1.7494,1.7363,1.8438,1.8416,1.8021,1.8102,1.7591,1.6716,1.5484,1.3149,1.0875,0.9909,0.8507,0.7031,0.5711,0.5517,0.5033,0.3182,0.258,0.2198,0.1719,0.0,0.0,0.3852,0.437,0.5108,0.6297,0.6301,0.638,0.6789,0.749,0.8464,0.977,1.0542,1.1576,1.3075,1.3702,1.4053,1.412,1.5599,1.579,1.4599,1.5509,1.5806,1.5464,1.5298,1.5685,1.6543,1.6403,1.6613,1.7074,1.7248,1.7257,1.7191,1.7289,1.7338,1.7314,1.724,1.7175,1.7028,1.6291,1.537,1.4266,-0.527,-0.598,-0.6592,-0.6592,-0.6707,-0.6895,-0.7071,-0.7434,-0.9545,-1.4667,-1.6847,-1.7781,-1.7306,-1.7776,-1.7566,-1.6196,-1.5727,-1.4296,-1.1391,-1.0846,-0.9117,-0.5774,-0.4203,-0.2492,-0.0542,-0.0674,-0.0185,0.0969,0.0243,0.0318,0.1172,0.0,0.0,0.0,0.5991,0.8112,0.9337,0.8391,0.8199,0.8557,0.8416,0.921,0.0,1.0833,1.1717,1.2738,1.2317,1.3469,1.5306,1.5808,1.6786,1.7847,1.8346,1.799,1.7605,1.8616,1.862,1.8338,1.8544,1.827,1.7821,1.7341,1.5284,1.3199,1.2487,1.0951,0.9302,0.7848,0.7291,0.6601,0.5063,0.4125,0.3436,0.2989,0.3372,0.4036,0.4861,0.5367,0.5913,0.6643,0.6855,0.7041,0.7242,0.7611,0.8342,0.9503,1.0226,1.1208,1.263,1.3463,1.4106,1.4481,1.561,1.579,1.4915,1.583,1.6086,1.5669,1.5735,1.6128,1.6805,1.6572,1.6669,1.7048,1.7124,1.7133,1.7108,1.7141,1.7125,1.7025,1.6924,1.6779,1.6628,1.6342,1.5751,1.4844,-0.5937,-0.6802,-0.7492,-0.7392,-0.7474,-0.7443,-0.7121,-0.8068,-1.0177,-1.3939,-1.6994,-1.815,-1.641,-1.7586,-1.7911,-1.6483,-1.6587,-1.5346,-1.2065,-1.2606,-1.0673,-0.5368,-0.5103,-0.3283,0.0616,0.0058,0.0405,0.1769,0.0205,0.0238,0.0,0.0,0.0,0.0,0.0,0.8971,1.0275,0.918,0.8601,0.8495,0.9123,0.9855,1.0702,1.1315,1.2573,1.4078,1.4472,1.5051,1.5757,1.6653,1.7363,1.7985,1.8687,1.8194,1.7565,1.8504,1.8533,1.8364,1.8939,1.8839,1.8605,1.8843,1.7748,1.6194,1.4663,1.3355,1.1962,1.0149,0.8708,0.7693,0.7418,0.5756,0.4379,0.4203,0.4365,0.4813,0.5651,0.6214,0.6572,0.6671,0.7198,0.0,0.7739,0.7797,0.8198,0.9126,0.9857,1.0774,1.1989,1.3129,1.4076,1.4875,1.5594,1.5837,1.5536,1.6338,1.6416,1.5722,1.6508,1.6837,1.6785,1.6879,1.6956,1.7016,1.6981,1.7023,1.7057,1.6984,1.685,1.667,1.6528,1.6355,1.6194,1.6234,1.6035,1.5499,-0.6593,-0.7143,-0.7734,-0.8265,-0.8053,-0.8573,-1.0833,-1.3183,-1.4953,-1.568,-1.6049,-1.6808,-1.8278,-1.8769,-1.8364,-1.6847,-1.6862,-1.5735,-1.2875,-1.2743,-1.147,-0.8595,-0.4558,-0.1597,0.0099,0.1012,0.2573,0.4836,0.0924,0.1056,0.0,0.0,0.0,0.0,0.0,0.8953,1.0568,0.9709,0.9872,1.0723,1.0742,1.1573,1.2906,1.3624,1.4645,1.5739,1.6065,1.598,1.5858,1.6875,1.7176,1.7293,1.853,1.821,1.7581,1.8475,1.8381,1.822,1.8919,1.8687,1.8374,1.8853,1.7776,1.6516,1.615,1.4667,1.3182,1.2487,1.0994,0.9474,0.8457,0.6856,0.5421,0.4639,0.518,0.5926,0.6579,0.6722,0.6974,0.7573,0.8043,0.8233,0.8046,0.7998,0.8314,0.9126,1.0018,1.0778,1.1342,1.259,1.3628,1.4311,1.4944,1.5591,1.6211,1.6454,1.6491,1.6433,1.6638,1.6686,1.6649,1.6879,1.6879,1.6675,1.6779,1.6847,1.6837,1.6789,1.6712,1.6581,1.6409,1.6274,1.6194,1.6026,1.5938,1.5738,-0.7594,-0.8027,-0.8731,-0.9689,-0.9232,-0.9729,-1.2683,-1.5264,-1.7181,-1.8022,-1.7562,-1.7344,-1.7854,-1.8403,-1.8279,-1.717,-1.67,-1.5766,-1.4092,-1.2818,-1.0717,-0.7571,-0.3815,-0.0345,0.2789,0.3718,0.4668,0.5648,0.2444,0.1999,0.0,0.3753,0.4197,0.5406,0.0,0.9153,0.9922,1.0603,1.0881,1.0966,1.1728,1.2689,1.3738,1.4366,1.5209,1.6114,1.6668,1.6772,1.6811,1.7869,1.8091,1.8131,1.9615,1.8865,1.7671,1.8876,1.8744,1.8313,1.8735,1.8853,1.8858,1.8841,1.803,1.7109,1.6655,1.5408,1.4133,1.3438,1.2513,1.1292,0.9595,0.7821,0.6705,0.6992,0.6655,0.6753,0.788,0.7915,0.7812,0.7753,0.8233,0.8411,0.803,0.8317,0.856,0.8677,0.9451,1.016,1.0698,1.2303,1.3513,1.4239,1.5217,1.5895,1.6289,1.6382,1.6463,1.649,1.6554,1.6581,1.6554,1.6785,1.6811,1.6659,1.6753,1.6821,1.6853,1.6675,1.6554,1.6463,1.6274,1.6067,1.587,1.5726,1.5668,1.5521,-0.8641,-0.9004,-0.9754,-1.1061,-1.1081,-1.1757,-1.427,-1.6516,-1.8305,-1.9331,-1.8742,-1.7944,-1.7187,-1.7682,-1.7811,-1.7148,-1.6393,-1.561,-1.4783,-1.2773,-0.9933,-0.6181,-0.2942,0.079,0.5141,0.6042,0.6306,0.5998,0.3475,0.2684,0.3507,0.3703,0.4528,0.5898,0.8242,0.934,0.9556,1.1332,1.1702,1.1252,1.258,1.353,1.4169,1.4712,1.5409,1.6214,1.6998,1.7499,1.7928,1.8806,1.889,1.8872,2.0284,1.923,1.7695,1.8926,1.8847,1.8371,1.8589,1.9029,1.9362,1.9014,1.8339,1.7641,1.7212,1.6036,1.4833,1.4228,1.3558,1.2471,1.0392,0.8911,0.8252,0.8989,0.8176,0.7811,0.8911,0.8992,0.8647,0.7879,0.8352,0.8491,0.7915,0.853,0.8788,0.8359,0.8953,0.9609,1.0266,1.2033,1.3426,1.431,1.549,1.6161,1.6289,1.6344,1.6476,1.6671,1.6526,1.6631,1.6952,1.6844,1.6849,1.6918,1.6833,1.6811,1.6837,1.6623,1.6474,1.6382,1.6163,1.5989,1.5817,1.5728,1.5668,1.552,-0.9525,-0.9749,-1.0349,-1.1978,-1.4046,-1.5756,-1.6581,-1.8194,-1.8922,-1.788,-1.7335,-1.7254,-1.7755,-1.7339,-1.6877,-1.642,-1.6032,-1.5261,-1.3906,-1.2422,-1.0232,-0.7187,-0.1937,0.2013,0.4361,0.6069,0.6941,0.6969,0.2819,0.2721,0.6346,0.352,0.4194,0.777,0.8336,0.9333,1.0599,1.1332,1.2249,1.3249,1.3654,1.4209,1.4852,1.5389,1.5965,1.6558,1.7497,1.8245,1.8809,1.9028,1.8639,1.8226,1.9038,1.8388,1.7401,1.7849,1.8051,1.8217,1.8663,1.9041,1.9379,1.9625,1.8657,1.782,1.861,1.6858,1.5207,1.5601,1.4112,1.22,1.0411,1.0386,1.017,0.8714,0.9264,0.9649,0.9013,0.9154,0.9122,0.8496,0.8845,0.8777,0.7811,0.839,0.8795,0.8735,0.9142,0.9654,1.0266,1.1681,1.3078,1.4444,1.5074,1.5785,1.6554,1.6344,1.667,1.759,1.6721,1.7077,1.8456,1.7257,1.7061,1.765,1.7051,1.6763,1.6696,1.6633,1.6554,1.6474,1.6191,1.6289,1.6591,1.6452,1.6373,1.6264,-1.0209,-1.0618,-1.1635,-1.3878,-1.5184,-1.6561,-1.8448,-1.8697,-1.8441,-1.7881,-1.7448,-1.7142,-1.7018,-1.6905,-1.6698,-1.6266,-1.5571,-1.4786,-1.3997,-1.1571,-0.9036,-0.6538,-0.1529,0.2292,0.467,0.5781,0.6585,0.7099,0.4267,0.392,0.5888,0.5046,0.5908,0.8238,0.9372,0.998,1.0282,1.2346,1.3156,1.312,1.4251,1.4675,1.4774,1.5646,1.6041,1.6192,1.7045,1.7607,1.7981,1.8288,1.8392,1.8461,1.8763,1.8076,1.7224,1.7756,1.7937,1.8052,1.8301,1.8717,1.9013,1.8821,1.8469,1.8011,1.751,1.6658,1.5893,1.5503,1.4519,1.3478,1.2659,1.1781,1.1219,1.1384,1.0784,1.0297,1.0231,0.985,0.9267,0.8419,0.8814,0.8884,0.8255,0.918,0.9688,0.936,0.931,0.9718,1.0738,1.1812,1.3052,1.4459,1.5401,1.6251,1.6949,1.7325,1.7711,1.8139,1.784,1.8069,1.8677,1.7864,1.7444,1.7358,1.7043,1.694,1.6991,1.6795,1.6649,1.6575,1.675,1.6712,1.6616,1.6969,1.7116,1.701,-1.0991,-1.1724,-1.3103,-1.5527,-1.6355,-1.751,-1.9972,-1.9377,-1.8606,-1.8495,-1.7578,-1.6796,-1.6473,-1.6518,-1.6437,-1.6157,-1.537,-1.4612,-1.3997,-1.1219,-0.8459,-0.5956,-0.1926,0.1517,0.4314,0.4946,0.5506,0.6098,0.4953,0.46,0.4974,0.6306,0.7447,0.8496,1.0087,1.0634,1.0546,1.2719,1.3472,1.3291,1.4501,1.4812,1.4606,1.5497,1.5559,1.5311,1.616,1.6647,1.6891,1.7063,1.7603,1.8177,1.8234,1.7614,1.6962,1.7433,1.7502,1.7432,1.7561,1.8027,1.8373,1.8057,1.8249,1.8248,1.7229,1.6999,1.669,1.5669,1.4905,1.4373,1.4196,1.3006,1.228,1.2935,1.1959,1.1081,1.102,1.0383,0.958,0.8614,0.8907,0.8997,0.8516,0.9523,1.0111,0.9831,0.9802,1.0227,1.1241,1.2164,1.328,1.4664,1.5723,1.6614,1.7281,1.7805,1.8345,1.8842,1.8729,1.8944,1.9415,1.8708,1.8065,1.7459,1.7239,1.7183,1.7207,1.7,1.6831,1.6707,1.694,1.6921,1.6816,1.7411,1.7548,1.7402,-1.1984,-1.3209,-1.4697,-1.6638,-1.7968,-1.9361,-2.111,-2.0527,-1.9819,-1.9707,-1.7418,-1.5986,-1.6449,-1.6191,-1.6009,-1.5988,-1.5564,-1.4819,-1.3683,-1.1633,-0.9059,-0.585,-0.3366,-0.0493,0.2836,0.3388,0.3663,0.3736,0.4201,0.4295,0.4167,0.6835,0.8319,0.8757,1.0177,1.1157,1.1781,1.2031,1.2995,1.4394,1.4475,1.4523,1.4557,1.4878,1.4463,1.3865,1.4864,1.548,1.5766,1.5428,1.6031,1.6949,1.7167,1.6899,1.6512,1.6612,1.6427,1.6237,1.6375,1.69,1.7452,1.7655,1.8114,1.8526,1.8636,1.8251,1.7577,1.6502,1.5335,1.4456,1.432,1.4074,1.3517,1.2389,1.2538,1.2303,1.1,1.0613,1.0158,0.9292,0.9308,0.9138,0.8464,0.9086,0.9661,1.0073,1.0781,1.1371,1.1768,1.2739,1.3876,1.516,1.5868,1.6629,1.7483,1.7355,1.8172,1.9876,1.901,1.9481,2.1134,1.9935,1.9012,1.8359,1.7754,1.7408,1.7281,1.7216,1.7093,1.6876,1.6543,1.6778,1.736,1.7822,1.7624,1.7225,-1.3083,-1.4207,-1.5601,-1.7773,-1.8358,-1.8882,-1.9931,-2.0406,-2.0681,-2.0767,-2.026,-1.9694,-1.9144,-1.7194,-1.5788,-1.5478,-1.4693,-1.3789,-1.2787,-1.1248,-0.9265,-0.6813,-0.435,-0.1808,0.0853,0.1534,0.2465,0.3782,0.3766,0.4526,0.5978,0.7326,0.8267,0.8829,1.0246,1.1183,1.1802,1.2543,1.3259,1.397,1.4478,1.4303,1.3831,1.4634,1.4239,1.3305,1.3911,1.4055,1.3964,1.4003,1.4386,1.4892,1.5029,1.5431,1.5866,1.6065,1.6164,1.6187,1.6014,1.678,1.7596,1.7506,1.7859,1.8129,1.7766,1.6872,1.6006,1.5562,1.5544,1.5376,1.4633,1.4699,1.447,1.3327,1.2991,1.2587,1.1734,1.0975,1.0345,0.9932,0.9877,0.9786,0.9515,1.0108,1.0535,1.0514,1.1352,1.1947,1.2129,1.3049,1.4036,1.503,1.5744,1.6761,1.8112,1.864,1.9484,2.0575,2.0479,2.0293,2.0041,1.9745,1.9292,1.8708,1.7977,1.7973,1.8464,1.7655,1.7272,1.7199,1.7375,1.7408,1.7446,1.8114,1.8594,1.8855,-1.3987,-1.5414,-1.6926,-1.8411,-1.8846,-1.9261,-2.0013,-2.0294,-2.0651,-2.1373,-2.1517,-2.1086,-1.9657,-1.7545,-1.6042,-1.5613,-1.4542,-1.3537,-1.2695,-1.1159,-0.9343,-0.7304,-0.4969,-0.268,-0.0536,0.0571,0.1733,0.2984,0.354,0.4726,0.6452,0.7434,0.8236,0.8928,1.0153,1.1185,1.2053,1.2787,1.3495,1.4139,1.4296,1.4003,1.351,1.3993,1.3433,1.2436,1.2565,1.2596,1.2571,1.2734,1.3154,1.3672,1.3775,1.4296,1.4937,1.5329,1.5401,1.5346,1.5115,1.5827,1.6682,1.6831,1.7255,1.7693,1.7871,1.6817,1.5843,1.6067,1.6138,1.5913,1.5151,1.5189,1.5017,1.4102,1.3326,1.2633,1.1999,1.1145,1.0459,1.0193,1.0193,1.0172,1.0042,1.0574,1.0873,1.0777,1.176,1.2416,1.2584,1.3721,1.4745,1.557,1.6135,1.7208,1.8796,1.9247,2.0064,2.1182,2.1201,2.0788,2.0025,1.9939,1.9706,1.9396,1.8677,1.8682,1.9127,1.8065,1.7555,1.7465,1.7622,1.7674,1.7785,1.8527,1.901,1.9187,-1.4869,-1.6911,-1.8592,-1.8745,-1.9494,-2.03,-2.0993,-2.0063,-1.9835,-2.1311,-2.136,-2.048,-1.8483,-1.7386,-1.6635,-1.6285,-1.4975,-1.3848,-1.317,-1.1296,-0.9355,-0.7423,-0.5286,-0.3298,-0.1397,0.0306,0.1358,0.1694,0.3457,0.4854,0.5793,0.7098,0.8139,0.8996,0.996,1.1146,1.2489,1.2754,1.3615,1.4672,1.3863,1.357,1.3515,1.3022,1.2193,1.1276,1.1055,1.1247,1.1596,1.1636,1.2304,1.3103,1.3229,1.348,1.3874,1.4479,1.4345,1.4012,1.3886,1.439,1.5101,1.5886,1.6547,1.7345,1.8634,1.776,1.6884,1.7651,1.7042,1.6272,1.5857,1.5616,1.5257,1.4607,1.3537,1.2556,1.1918,1.1249,1.0687,1.0298,1.0427,1.0477,1.0267,1.0615,1.0883,1.0973,1.2005,1.2789,1.3147,1.4688,1.5891,1.6589,1.6879,1.7838,1.9515,1.9311,2.0016,2.1655,2.1228,2.0985,2.0864,2.0458,2.0298,2.0394,1.9851,1.9599,1.9521,1.8573,1.8068,1.7861,1.7588,1.7831,1.8392,1.9078,1.9012,1.8708,-1.7382,-1.8943,-2.0219,-2.0393,-2.067,-2.0696,-2.0289,-1.904,-1.8543,-1.9581,-2.0198,-2.0161,-1.9151,-1.7485,-1.6527,-1.6838,-1.4843,-1.3144,-1.233,-1.0983,-0.9458,-0.7751,-0.6451,-0.453,-0.197,-0.1257,0.0224,0.2443,0.3343,0.4349,0.5439,0.6389,0.7327,0.8388,0.9759,1.0998,1.2021,1.2641,1.3379,1.4029,1.3351,1.3032,1.2939,1.2317,1.1415,1.057,1.0592,1.045,1.0331,1.0975,1.1496,1.1982,1.2591,1.2941,1.3238,1.4019,1.431,1.4417,1.4485,1.4811,1.5375,1.6427,1.7374,1.7893,1.7326,1.7357,1.7558,1.769,1.796,1.7852,1.6806,1.6369,1.5796,1.4674,1.3406,1.2439,1.2075,1.2104,1.2085,1.1889,1.2035,1.2057,1.1791,1.1507,1.1494,1.1857,1.2703,1.337,1.3771,1.5313,1.6349,1.6681,1.7133,1.8197,1.9874,2.0118,2.0588,2.125,2.1343,2.1137,2.0666,2.0657,2.1055,2.1718,2.1029,2.1025,2.1454,2.0473,1.9946,1.9733,1.9486,1.9378,1.9432,1.9615,2.002,2.0394,-1.8398,-1.9216,-1.9902,-1.9822,-1.9767,-1.9805,-2.0063,-1.9295,-1.8883,-1.956,-1.9831,-1.9681,-1.8936,-1.7568,-1.6614,-1.6346,-1.4695,-1.3293,-1.239,-1.1086,-0.9488,-0.7512,-0.609,-0.4349,-0.2172,-0.1529,-0.0046,0.2227,0.2651,0.3581,0.4952,0.5781,0.6836,0.8014,0.9313,1.0569,1.173,1.2134,1.2872,1.3703,1.3226,1.2725,1.2229,1.1677,1.0949,1.0159,1.0127,0.9861,0.9686,1.0534,1.128,1.1914,1.2087,1.2746,1.3509,1.3531,1.3967,1.4439,1.4582,1.4901,1.5352,1.5969,1.7284,1.8108,1.6837,1.7195,1.7761,1.7663,1.8183,1.8372,1.7408,1.6666,1.5921,1.4967,1.3742,1.2827,1.2584,1.2909,1.309,1.2795,1.2795,1.272,1.2427,1.2087,1.2101,1.2623,1.3262,1.3866,1.4382,1.595,1.697,1.7271,1.7446,1.8537,2.0766,2.0972,2.0976,2.0823,2.1125,2.108,2.0745,2.1269,2.1789,2.2268,2.1836,2.1889,2.2224,2.1255,2.0683,2.0471,2.0264,2.0255,2.0384,2.0437,2.0716,2.1066,-1.8815,-1.9109,-1.9258,-1.8467,-1.8214,-1.8535,-1.9803,-1.9482,-1.9284,-1.9834,-1.9553,-1.9002,-1.8173,-1.7478,-1.6658,-1.5477,-1.4638,-1.3791,-1.289,-1.1391,-0.9584,-0.7419,-0.5515,-0.3852,-0.2413,-0.1353,0.0,0.1531,0.1737,0.2677,0.43,0.5215,0.6316,0.7568,0.8743,1.0043,1.144,1.1654,1.2434,1.3504,1.321,1.257,1.1791,1.1361,1.0696,1.0015,0.9893,0.9694,0.9609,1.0479,1.1436,1.2179,1.1871,1.2818,1.3882,1.3229,1.3735,1.4467,1.4628,1.5165,1.5622,1.5278,1.6883,1.8198,1.6992,1.7266,1.7829,1.792,1.8127,1.8149,1.7679,1.6692,1.5729,1.5121,1.4197,1.3452,1.3159,1.3663,1.3885,1.3457,1.3274,1.3109,1.2826,1.2599,1.2729,1.3358,1.3799,1.4327,1.4986,1.6514,1.7661,1.8238,1.7982,1.9126,2.1719,2.1713,2.1388,2.079,2.0951,2.1043,2.104,2.1703,2.2183,2.2479,2.2392,2.2443,2.2536,2.1704,2.1203,2.0976,2.0818,2.0985,2.1309,2.1346,2.1346,2.1329,-1.9954,-2.0852,-2.1,-1.8517,-1.8126,-1.8289,-1.8634,-1.7263,-1.6615,-1.7935,-1.7921,-1.7625,-1.7182,-1.6823,-1.6258,-1.5454,-1.4795,-1.4176,-1.3591,-1.1859,-1.0197,-0.8835,-0.6854,-0.5009,-0.3319,-0.1874,-0.0514,0.0746,0.1085,0.1945,0.3368,0.4444,0.541,0.6381,0.815,0.9631,1.0813,1.194,1.2744,1.3242,1.2832,1.2588,1.2332,1.1818,1.1031,1.0301,1.0851,1.0752,1.0523,1.1317,1.1808,1.2101,1.2483,1.2873,1.327,1.3715,1.441,1.5108,1.5283,1.6621,1.7536,1.5681,1.6918,1.8432,1.7816,1.7691,1.8057,1.9289,1.8314,1.7305,1.7541,1.6484,1.5263,1.4341,1.4223,1.3984,1.3274,1.4095,1.4644,1.4411,1.4252,1.4194,1.4194,1.3618,1.3536,1.4245,1.4587,1.4994,1.5545,1.694,1.8248,1.9419,1.9441,2.0289,2.2013,2.2089,2.21,2.2089,2.1514,2.1366,2.1553,2.0952,2.1461,2.2831,2.2677,2.2973,2.348,2.3155,2.2894,2.2702,2.2504,2.2365,2.2262,2.2169,2.2152,2.2207,-1.9899,-1.9893,-1.9263,-1.6873,-1.6566,-1.652,-1.6132,-1.6312,-1.6853,-1.7794,-1.7623,-1.734,-1.7149,-1.643,-1.5733,-1.5164,-1.4339,-1.3557,-1.2906,-1.1863,-1.044,-0.8536,-0.7127,-0.5521,-0.3755,-0.2645,-0.1607,-0.0619,-0.0268,0.0763,0.2398,0.3253,0.4358,0.5684,0.7483,0.8817,0.985,1.1293,1.2277,1.2811,1.2539,1.244,1.2459,1.2167,1.1574,1.0912,1.1508,1.1565,1.139,1.1806,1.2403,1.285,1.2527,1.3263,1.4249,1.4067,1.4838,1.59,1.6432,1.7586,1.8351,1.7133,1.7744,1.8378,1.7285,1.7336,1.7722,1.8232,1.7857,1.7556,1.7968,1.6999,1.595,1.5291,1.5192,1.5027,1.4562,1.5139,1.5513,1.5261,1.4963,1.4783,1.4814,1.4438,1.4443,1.5061,1.5696,1.633,1.6901,1.8643,2.0009,2.0801,2.1427,2.1572,2.1197,2.2024,2.2321,2.2024,2.1753,2.1916,2.2443,2.2038,2.2517,2.364,2.347,2.3549,2.3789,2.3634,2.3442,2.3214,2.2936,2.2667,2.249,2.2338,2.2327,2.2367,-1.9781,-1.8733,-1.7589,-1.6041,-1.5998,-1.5864,-1.4942,-1.6148,-1.7275,-1.7648,-1.732,-1.6989,-1.688,-1.6037,-1.5232,-1.4514,-1.3716,-1.284,-1.1828,-1.1477,-1.0356,-0.8276,-0.7126,-0.5793,-0.4184,-0.3577,-0.2907,-0.2116,-0.1481,-0.0389,0.1212,0.2103,0.3327,0.4871,0.6484,0.7776,0.8862,1.0293,1.1429,1.2214,1.2311,1.241,1.2469,1.2453,1.1959,1.1369,1.2113,1.223,1.2121,1.2375,1.3098,1.3825,1.2933,1.3988,1.5412,1.4707,1.5491,1.6799,1.7535,1.834,1.8845,1.8381,1.8511,1.8363,1.6931,1.7014,1.7375,1.7284,1.7357,1.7585,1.8087,1.7331,1.6496,1.6039,1.6036,1.5959,1.5571,1.5867,1.6037,1.5854,1.5433,1.5165,1.5255,1.518,1.5374,1.5991,1.6709,1.7495,1.8421,2.0136,2.1417,2.2103,2.2876,2.258,2.1088,2.2227,2.2667,2.2367,2.2284,2.259,2.3198,2.3012,2.3368,2.4097,2.3897,2.3855,2.3919,2.3768,2.358,2.3364,2.323,2.3022,2.2796,2.2863,2.2789,2.2642,-2.0099,-1.8871,-1.789,-1.7868,-1.8331,-1.8303,-1.7051,-1.6632,-1.6465,-1.6443,-1.6329,-1.6094,-1.5574,-1.551,-1.488,-1.3263,-1.3062,-1.2327,-1.0661,-1.0391,-0.9959,-0.9158,-0.7405,-0.5919,-0.4824,-0.467,-0.4158,-0.3282,-0.2136,-0.1262,-0.0639,0.1208,0.2506,0.334,0.4918,0.6592,0.8258,0.9259,1.0364,1.146,1.224,1.2575,1.2506,1.251,1.1946,1.1366,1.2655,1.2856,1.2624,1.3281,1.4034,1.4654,1.4411,1.5072,1.5964,1.5962,1.6768,1.7808,1.8278,1.8926,1.9287,1.8652,1.8682,1.8641,1.7723,1.7305,1.7299,1.7898,1.7104,1.6553,1.7329,1.6941,1.6235,1.5425,1.611,1.6409,1.5448,1.5667,1.5913,1.5885,1.5536,1.5404,1.5725,1.5796,1.6251,1.7293,1.7213,1.7914,1.9738,2.0463,2.1522,2.3043,2.2996,2.2976,2.3095,2.314,2.3568,2.4377,2.364,2.3345,2.3455,2.2763,2.2849,2.3551,2.3342,2.3564,2.4078,2.3798,2.3576,2.3466,2.405,2.4058,2.3788,2.4378,2.4242,2.3682,-1.9217,-1.9371,-1.9552,-1.9193,-1.9599,-1.9577,-1.858,-1.7747,-1.723,-1.7075,-1.68,-1.6504,-1.6197,-1.6005,-1.5277,-1.358,-1.2764,-1.1558,-0.9777,-0.9266,-0.885,-0.8554,-0.7015,-0.5996,-0.5714,-0.4952,-0.4429,-0.4101,-0.3049,-0.2218,-0.1536,-0.0333,0.0949,0.2339,0.3759,0.5237,0.6784,0.8171,0.934,1.0352,1.1378,1.2086,1.2504,1.241,1.2278,1.2205,1.2918,1.3212,1.3325,1.3998,1.4463,1.4821,1.498,1.5512,1.6178,1.6754,1.7843,1.8906,1.8879,1.9264,1.9656,1.9574,1.9664,1.9496,1.84,1.8032,1.7864,1.7742,1.7309,1.7151,1.7831,1.7748,1.7352,1.6786,1.695,1.6921,1.614,1.6037,1.6055,1.6083,1.5926,1.5953,1.6324,1.647,1.6759,1.7319,1.8512,1.9623,2.0559,2.2757,2.4064,2.4313,2.4775,2.449,2.3435,2.3938,2.4381,2.4783,2.3973,2.3882,2.4401,2.3607,2.367,2.4365,2.4204,2.4213,2.432,2.4096,2.4172,2.4397,2.3861,2.4603,2.5756,2.3927,2.3323,2.3323,-1.9318,-1.9876,-2.0265,-1.9855,-2.0231,-2.018,-1.9224,-1.868,-1.8203,-1.7677,-1.7303,-1.6908,-1.6573,-1.6298,-1.5488,-1.3932,-1.2856,-1.1461,-0.9563,-0.8591,-0.7946,-0.772,-0.6913,-0.6284,-0.5941,-0.5282,-0.4842,-0.4625,-0.3624,-0.285,-0.235,-0.1457,-0.0168,0.1393,0.2518,0.3884,0.5483,0.6966,0.8208,0.9256,1.0213,1.1006,1.163,1.1863,1.1995,1.2116,1.2579,1.2909,1.3233,1.3906,1.4494,1.5006,1.5118,1.5828,1.6866,1.7959,1.8851,1.9502,1.9457,1.9632,1.9872,2.0208,2.0261,1.992,1.8716,1.8568,1.8467,1.7663,1.7684,1.7965,1.8362,1.8325,1.8134,1.7789,1.7479,1.7126,1.6581,1.6274,1.6123,1.6207,1.6262,1.6474,1.6926,1.7142,1.7602,1.8404,1.9735,2.1022,2.2218,2.4682,2.5885,2.5473,2.6046,2.5615,2.4075,2.4612,2.4915,2.4961,2.4423,2.4479,2.5031,2.4484,2.4529,2.4981,2.4847,2.4719,2.4543,2.4357,2.4458,2.4694,2.4058,2.4689,2.5823,2.4425,2.3876,2.3784,-2.069,-2.0179,-1.9785,-1.9793,-2.0256,-2.0182,-1.9008,-1.9277,-1.9204,-1.8049,-1.7618,-1.7111,-1.6373,-1.6138,-1.5437,-1.4121,-1.3437,-1.2183,-1.0154,-0.8448,-0.7296,-0.68,-0.7162,-0.6717,-0.5356,-0.5688,-0.5571,-0.4897,-0.3674,-0.3123,-0.3074,-0.1849,-0.0728,0.0446,0.1179,0.2572,0.4467,0.5679,0.6965,0.8212,0.8849,0.929,0.9731,1.0794,1.0971,1.0769,1.1525,1.1963,1.2299,1.2823,1.4083,1.5286,1.4783,1.6058,1.8127,1.9711,1.9772,1.9437,2.0029,2.0001,1.9908,2.0375,2.0296,1.98,1.8593,1.8877,1.9029,1.7772,1.82,1.8771,1.8698,1.8489,1.8246,1.8027,1.7502,1.696,1.6565,1.6274,1.6151,1.6301,1.6538,1.6926,1.7462,1.7876,1.8909,2.0843,2.0711,2.1887,2.4943,2.5929,2.6447,2.6515,2.6504,2.6128,2.5322,2.519,2.5115,2.5096,2.5176,2.5209,2.5192,2.5212,2.522,2.5187,2.5063,2.4902,2.4682,2.4491,2.4248,2.4101,2.4807,2.4286,2.3493,2.6437,2.6525,2.532,-1.9287,-1.8919,-1.9037,-2.0398,-2.0149,-1.9873,-2.0274,-1.9865,-1.9266,-1.8469,-1.7865,-1.7227,-1.6456,-1.6249,-1.546,-1.3801,-1.3132,-1.1809,-0.9429,-0.8453,-0.7603,-0.6918,-0.6978,-0.6728,-0.6059,-0.5839,-0.5452,-0.5014,-0.3962,-0.3522,-0.3688,-0.2517,-0.1491,-0.0592,0.0213,0.1435,0.3002,0.4438,0.5518,0.6455,0.7576,0.8541,0.9354,0.9999,1.0352,1.0525,1.0889,1.1507,1.2276,1.3299,1.3992,1.4643,1.5389,1.6888,1.8419,1.8703,1.9252,1.9705,1.9657,1.9612,1.9678,2.0104,2.0182,2.0005,1.9366,1.9298,1.9204,1.8485,1.8555,1.8716,1.8698,1.8565,1.8371,1.8173,1.7788,1.7368,1.6901,1.6644,1.6565,1.6722,1.6953,1.7302,1.781,1.881,1.9775,2.0599,2.2614,2.4521,2.613,2.7091,2.7608,2.7616,2.7589,2.7445,2.7205,2.6497,2.5849,2.5262,2.6502,2.6455,2.5283,2.5898,2.5819,2.519,2.5118,2.5302,2.562,2.4853,2.5319,2.6443,2.5683,2.5821,2.6604,2.761,2.7173,2.6134,-1.8509,-1.8066,-1.8068,-1.8931,-1.9546,-2.0038,-2.0473,-2.0305,-1.9935,-1.9541,-1.8689,-1.7763,-1.6907,-1.618,-1.5356,-1.4163,-1.3122,-1.1714,-0.9666,-0.8725,-0.7943,-0.73,-0.7198,-0.682,-0.6114,-0.5916,-0.5528,-0.4963,-0.3968,-0.3635,-0.3796,-0.2907,-0.2156,-0.1517,-0.0854,0.0267,0.178,0.3136,0.4364,0.5437,0.6519,0.7605,0.8586,0.889,0.9347,0.9865,1.0041,1.0661,1.1592,1.2715,1.3549,1.4363,1.5672,1.6995,1.808,1.8366,1.889,1.9368,1.9252,1.9282,1.9398,1.9774,2.0016,2.0063,1.9728,1.9561,1.9368,1.8948,1.8895,1.8913,1.8825,1.8678,1.8489,1.8217,1.7854,1.7486,1.7076,1.6901,1.6876,1.7076,1.7335,1.7687,1.8197,1.9397,2.0772,2.228,2.4543,2.642,2.7744,2.8314,2.8618,2.8656,2.8579,2.8411,2.8087,2.7829,2.7257,2.6381,2.7412,2.7344,2.6343,2.6862,2.6696,2.5913,2.5352,2.557,2.6242,2.5045,2.5282,2.6371,2.6206,2.6964,2.8172,2.8201,2.7504,2.6597,-1.8588,-1.8078,-1.7408,-1.6408,-1.8503,-2.0184,-1.983,-2.0351,-2.0806,-2.0708,-1.9546,-1.8403,-1.7428,-1.6127,-1.5233,-1.4969,-1.3379,-1.1843,-1.0541,-0.9295,-0.8362,-0.7925,-0.7676,-0.6977,-0.5673,-0.5958,-0.5624,-0.4743,-0.3802,-0.3466,-0.3569,-0.3128,-0.2625,-0.2227,-0.1886,-0.0863,0.0664,0.1931,0.3348,0.4728,0.5555,0.6534,0.7563,0.767,0.8209,0.8962,0.9106,0.971,1.0493,1.1437,1.2806,1.4336,1.5517,1.6437,1.7292,1.8367,1.8577,1.8518,1.8807,1.891,1.9024,1.9339,1.9764,2.0011,1.9688,1.9607,1.9504,1.9104,1.9172,1.9243,1.9069,1.8878,1.8605,1.8235,1.781,1.7462,1.7183,1.7101,1.7167,1.7408,1.7704,1.81,1.8677,1.9931,2.2018,2.5186,2.6359,2.7673,2.9409,2.9453,2.9476,2.9601,2.9474,2.9085,2.8437,2.9149,2.9009,2.8017,2.8097,2.8058,2.7904,2.7979,2.7668,2.7039,2.5841,2.585,2.6588,2.5201,2.4715,2.4986,2.6472,2.7652,2.8498,2.8306,2.7611,2.6898,-2.1184,-2.1208,-2.0207,-1.6968,-1.7364,-1.8468,-1.9538,-1.9524,-1.9298,-1.9203,-1.8692,-1.79,-1.6812,-1.6408,-1.5693,-1.4501,-1.3542,-1.241,-1.0965,-1.0297,-0.9429,-0.8209,-0.7937,-0.7289,-0.6273,-0.5986,-0.5601,-0.5018,-0.3796,-0.3297,-0.3569,-0.3021,-0.2595,-0.2366,-0.208,-0.1334,-0.0215,0.1062,0.2105,0.3065,0.478,0.5887,0.6608,0.7419,0.8068,0.8606,0.9001,0.9526,1.0171,1.1195,1.2432,1.363,1.4227,1.5197,1.6291,1.7505,1.7578,1.7358,1.7839,1.8222,1.8529,1.8802,1.9444,1.9821,1.9078,1.9301,1.9419,1.8499,1.8867,1.9376,1.9326,1.9146,1.8945,1.868,1.8275,1.7876,1.7602,1.7572,1.7595,1.7704,1.8146,1.8796,1.9686,2.1784,2.4004,2.6301,2.7366,2.8369,2.9435,2.9542,2.9853,3.0504,2.9835,2.9725,3.0228,3.0364,2.9635,2.8085,2.9397,2.9312,2.7989,2.8578,2.8157,2.7017,2.7052,2.692,2.6658,2.5954,2.6352,2.7343,2.6901,2.7171,2.7875,2.8408,2.8399,2.8178,-2.2756,-2.2498,-2.1597,-1.9562,-1.8832,-1.8597,-1.8708,-1.8973,-1.9166,-1.9293,-1.8655,-1.7796,-1.664,-1.6136,-1.543,-1.4186,-1.3552,-1.2716,-1.1566,-1.0855,-0.9946,-0.8738,-0.8309,-0.7776,-0.6975,-0.6092,-0.5391,-0.4908,-0.3965,-0.3577,-0.3577,-0.319,-0.2941,-0.2724,-0.2289,-0.1581,-0.0654,0.0706,0.1866,0.2847,0.4401,0.5508,0.6273,0.6982,0.758,0.8127,0.858,0.9377,1.0346,1.11,1.2276,1.3467,1.3599,1.4505,1.5621,1.6118,1.6278,1.6425,1.7051,1.7595,1.8162,1.8794,1.9506,1.9925,1.948,1.9612,1.9688,1.916,1.932,1.954,1.955,1.9295,1.9026,1.8807,1.8415,1.8107,1.8001,1.7905,1.7922,1.81,1.8469,1.9361,2.1038,2.3235,2.5356,2.7283,2.8283,2.9197,3.0078,3.0156,3.0371,3.0799,3.0365,3.0337,3.081,3.0769,3.0281,2.9401,3.0203,3.0123,2.9244,2.9611,2.9325,2.8564,2.8364,2.8251,2.8127,2.7072,2.7279,2.8222,2.7542,2.7488,2.7893,2.8589,2.8828,2.8773,-2.3518,-2.2814,-2.2206,-2.2207,-2.0691,-1.9071,-1.787,-1.8452,-1.918,-1.9573,-1.8763,-1.7741,-1.6652,-1.5784,-1.4994,-1.4258,-1.3695,-1.2957,-1.211,-1.1276,-1.0296,-0.9228,-0.8751,-0.816,-0.7497,-0.6211,-0.531,-0.4882,-0.4212,-0.3758,-0.35,-0.3368,-0.3188,-0.2907,-0.2408,-0.1734,-0.0838,0.0614,0.1906,0.3156,0.4281,0.5353,0.6317,0.6598,0.7099,0.7652,0.8135,0.9225,1.0519,1.0919,1.2082,1.3377,1.3173,1.4025,1.5086,1.4888,1.5138,1.5641,1.6388,1.7089,1.7877,1.8774,1.9533,2.0055,2.0076,2.0072,2.0038,1.9927,1.984,1.9778,1.9748,1.9462,1.9123,1.8841,1.8513,1.833,1.8351,1.8246,1.8229,1.8528,1.9057,2.0263,2.2469,2.4452,2.6252,2.7774,2.8887,2.9818,3.054,3.071,3.081,3.0795,3.0801,3.0817,3.0811,3.0817,3.0804,3.0789,3.0683,3.0613,3.0616,3.054,3.0447,3.029,2.9545,2.9497,2.9832,2.8209,2.7888,2.8407,2.8164,2.8063,2.8133,2.8817,2.9154,2.9242,-2.3038,-2.2628,-2.2217,-2.2193,-2.0028,-1.812,-1.7766,-1.7552,-1.7643,-1.8113,-1.8084,-1.7694,-1.6759,-1.5774,-1.5062,-1.4971,-1.4305,-1.3437,-1.2414,-1.1833,-1.0798,-0.9193,-0.8947,-0.8305,-0.711,-0.6086,-0.5564,-0.5509,-0.4251,-0.3408,-0.2973,-0.3116,-0.2796,-0.2127,-0.2183,-0.1792,-0.1009,0.028,0.1647,0.3092,0.4253,0.5444,0.6538,0.6712,0.6934,0.7247,0.7841,0.887,0.9967,1.0303,1.138,1.2522,1.2385,1.3245,1.4421,1.479,1.4929,1.5162,1.5886,1.6743,1.7572,1.8106,1.9047,1.9879,1.9984,2.0195,2.0117,1.93,1.9661,2.0095,1.9993,1.9824,1.9567,1.9182,1.8945,1.8753,1.8585,1.8643,1.8735,1.8821,2.0606,2.2343,2.3663,2.5449,2.6663,2.7031,2.8585,2.955,2.9676,3.0395,3.0791,3.0804,3.0795,3.0839,3.0897,3.0821,3.0798,3.0798,3.0714,3.0678,3.0684,3.0559,3.049,3.0458,3.0227,3.0144,3.008,2.8962,2.8547,2.8558,2.8334,2.8259,2.8352,2.9074,2.9779,3.0302,-2.2144,-2.1744,-2.1282,-2.1376,-1.9399,-1.7481,-1.6558,-1.6791,-1.7088,-1.7044,-1.7194,-1.6854,-1.5799,-1.489,-1.4294,-1.4165,-1.3637,-1.2957,-1.203,-1.1748,-1.077,-0.9026,-0.8806,-0.8269,-0.7175,-0.6001,-0.554,-0.5796,-0.4502,-0.3597,-0.3112,-0.3123,-0.2693,-0.1957,-0.1613,-0.1153,-0.0518,0.079,0.1916,0.2917,0.4131,0.514,0.599,0.6391,0.6791,0.7195,0.8154,0.9054,0.9878,1.0509,1.1192,1.193,1.2299,1.2996,1.374,1.4002,1.4179,1.4533,1.5346,1.6079,1.6824,1.7684,1.8641,1.9476,1.9774,2.0095,2.0117,1.9273,1.9729,2.0082,1.949,1.961,1.9719,1.9407,1.9231,1.9109,1.9049,1.9075,1.9357,2.0094,2.1559,2.2945,2.401,2.5759,2.6833,2.6895,2.8515,2.9496,2.9496,3.0334,3.081,3.0807,3.081,3.0838,3.0898,3.0832,3.0799,3.0804,3.0774,3.0748,3.0695,3.0593,3.053,3.05,3.0394,3.033,3.0221,2.9742,2.9497,2.9418,2.9257,2.9155,2.912,2.9458,2.9795,3.0058]}]]